<?xml version="1.0" encoding="UTF-8" standalone="no" ?>
<gpx xmlns="http://www.topografix.com/GPX/1/1" xmlns:xsi="http://www.w3.org/2001/XMLSchema-instance" xsi:schemaLocation="http://www.topografix.com/GPX/1/1 http://www.topografix.com/GPX/1/1/gpx.xsd" version="1.1" creator="VisuGPX - https://www.visugpx.com">
  <metadata>
    <name>départ Maléon par Vira</name>
    <desc><![CDATA[beau parcours avec vues imprenables sur l'ariège]]></desc>
  </metadata>
  <trk>
    <name><![CDATA[2019-01-16_circuit-n-6-le-bourreau]]></name>
    <trkseg>
      <trkpt lat="43.03332" lon="1.71216">
        <ele>396.1</ele>
        <time>2019-01-16T12:50:13Z</time>
      </trkpt>
      <trkpt lat="43.03332" lon="1.71216">
        <ele>397.7</ele>
        <time>2019-01-16T12:50:14Z</time>
      </trkpt>
      <trkpt lat="43.0334" lon="1.71222">
        <ele>403.7</ele>
        <time>2019-01-16T12:54:49Z</time>
      </trkpt>
      <trkpt lat="43.03349" lon="1.71227">
        <ele>403.8</ele>
        <time>2019-01-16T12:54:53Z</time>
      </trkpt>
      <trkpt lat="43.03359" lon="1.71232">
        <ele>403.3</ele>
        <time>2019-01-16T12:55:18Z</time>
      </trkpt>
      <trkpt lat="43.0337" lon="1.71237">
        <ele>402.9</ele>
        <time>2019-01-16T12:55:22Z</time>
      </trkpt>
      <trkpt lat="43.03379" lon="1.71244">
        <ele>402.7</ele>
        <time>2019-01-16T12:55:25Z</time>
      </trkpt>
      <trkpt lat="43.03389" lon="1.71252">
        <ele>401</ele>
        <time>2019-01-16T12:55:28Z</time>
      </trkpt>
      <trkpt lat="43.03398" lon="1.71256">
        <ele>399.8</ele>
        <time>2019-01-16T12:55:30Z</time>
      </trkpt>
      <trkpt lat="43.03408" lon="1.71261">
        <ele>398.9</ele>
        <time>2019-01-16T12:55:32Z</time>
      </trkpt>
      <trkpt lat="43.03418" lon="1.71268">
        <ele>398.3</ele>
        <time>2019-01-16T12:55:34Z</time>
      </trkpt>
      <trkpt lat="43.03427" lon="1.71273">
        <ele>397.8</ele>
        <time>2019-01-16T12:55:36Z</time>
      </trkpt>
      <trkpt lat="43.03437" lon="1.7128">
        <ele>397.5</ele>
        <time>2019-01-16T12:55:38Z</time>
      </trkpt>
      <trkpt lat="43.03447" lon="1.71286">
        <ele>397.3</ele>
        <time>2019-01-16T12:55:40Z</time>
      </trkpt>
      <trkpt lat="43.03457" lon="1.71292">
        <ele>397</ele>
        <time>2019-01-16T12:55:42Z</time>
      </trkpt>
      <trkpt lat="43.03467" lon="1.71296">
        <ele>396.9</ele>
        <time>2019-01-16T12:55:44Z</time>
      </trkpt>
      <trkpt lat="43.03477" lon="1.71296">
        <ele>396.6</ele>
        <time>2019-01-16T12:55:46Z</time>
      </trkpt>
      <trkpt lat="43.03487" lon="1.71296">
        <ele>396.5</ele>
        <time>2019-01-16T12:55:48Z</time>
      </trkpt>
      <trkpt lat="43.03498" lon="1.71295">
        <ele>396.3</ele>
        <time>2019-01-16T12:55:50Z</time>
      </trkpt>
      <trkpt lat="43.03513" lon="1.71297">
        <ele>395.9</ele>
        <time>2019-01-16T12:55:52Z</time>
      </trkpt>
      <trkpt lat="43.03527" lon="1.71301">
        <ele>395.5</ele>
        <time>2019-01-16T12:55:54Z</time>
      </trkpt>
      <trkpt lat="43.03541" lon="1.71304">
        <ele>395</ele>
        <time>2019-01-16T12:55:56Z</time>
      </trkpt>
      <trkpt lat="43.03555" lon="1.71299">
        <ele>394.6</ele>
        <time>2019-01-16T12:55:58Z</time>
      </trkpt>
      <trkpt lat="43.03567" lon="1.71287">
        <ele>394.3</ele>
        <time>2019-01-16T12:56:00Z</time>
      </trkpt>
      <trkpt lat="43.03578" lon="1.71278">
        <ele>394.1</ele>
        <time>2019-01-16T12:56:02Z</time>
      </trkpt>
      <trkpt lat="43.03588" lon="1.71272">
        <ele>393.9</ele>
        <time>2019-01-16T12:56:04Z</time>
      </trkpt>
      <trkpt lat="43.03598" lon="1.7127">
        <ele>394</ele>
        <time>2019-01-16T12:56:06Z</time>
      </trkpt>
      <trkpt lat="43.03607" lon="1.7127">
        <ele>394.4</ele>
        <time>2019-01-16T12:56:08Z</time>
      </trkpt>
      <trkpt lat="43.03617" lon="1.7127">
        <ele>395</ele>
        <time>2019-01-16T12:56:10Z</time>
      </trkpt>
      <trkpt lat="43.03629" lon="1.71266">
        <ele>395.9</ele>
        <time>2019-01-16T12:56:12Z</time>
      </trkpt>
      <trkpt lat="43.03639" lon="1.71261">
        <ele>396.5</ele>
        <time>2019-01-16T12:56:14Z</time>
      </trkpt>
      <trkpt lat="43.03653" lon="1.71253">
        <ele>397.2</ele>
        <time>2019-01-16T12:56:16Z</time>
      </trkpt>
      <trkpt lat="43.03665" lon="1.71243">
        <ele>397.8</ele>
        <time>2019-01-16T12:56:18Z</time>
      </trkpt>
      <trkpt lat="43.03679" lon="1.71236">
        <ele>398.2</ele>
        <time>2019-01-16T12:56:20Z</time>
      </trkpt>
      <trkpt lat="43.03691" lon="1.71232">
        <ele>398.7</ele>
        <time>2019-01-16T12:56:22Z</time>
      </trkpt>
      <trkpt lat="43.03702" lon="1.71229">
        <ele>399</ele>
        <time>2019-01-16T12:56:24Z</time>
      </trkpt>
      <trkpt lat="43.03712" lon="1.71228">
        <ele>399.3</ele>
        <time>2019-01-16T12:56:26Z</time>
      </trkpt>
      <trkpt lat="43.03724" lon="1.71223">
        <ele>399.6</ele>
        <time>2019-01-16T12:56:29Z</time>
      </trkpt>
      <trkpt lat="43.03734" lon="1.71216">
        <ele>399.6</ele>
        <time>2019-01-16T12:56:32Z</time>
      </trkpt>
      <trkpt lat="43.03742" lon="1.71207">
        <ele>399.7</ele>
        <time>2019-01-16T12:56:35Z</time>
      </trkpt>
      <trkpt lat="43.03749" lon="1.71198">
        <ele>399.7</ele>
        <time>2019-01-16T12:56:38Z</time>
      </trkpt>
      <trkpt lat="43.03755" lon="1.71188">
        <ele>399.8</ele>
        <time>2019-01-16T12:56:42Z</time>
      </trkpt>
      <trkpt lat="43.03762" lon="1.71178">
        <ele>400</ele>
        <time>2019-01-16T12:56:46Z</time>
      </trkpt>
      <trkpt lat="43.03769" lon="1.71167">
        <ele>400.2</ele>
        <time>2019-01-16T12:56:51Z</time>
      </trkpt>
      <trkpt lat="43.03774" lon="1.71153">
        <ele>400.4</ele>
        <time>2019-01-16T12:56:56Z</time>
      </trkpt>
      <trkpt lat="43.0378" lon="1.71142">
        <ele>400.7</ele>
        <time>2019-01-16T12:57:00Z</time>
      </trkpt>
      <trkpt lat="43.03785" lon="1.71129">
        <ele>400.9</ele>
        <time>2019-01-16T12:57:05Z</time>
      </trkpt>
      <trkpt lat="43.03791" lon="1.71118">
        <ele>401.1</ele>
        <time>2019-01-16T12:57:10Z</time>
      </trkpt>
      <trkpt lat="43.03795" lon="1.71107">
        <ele>401.3</ele>
        <time>2019-01-16T12:57:14Z</time>
      </trkpt>
      <trkpt lat="43.038" lon="1.71094">
        <ele>401.5</ele>
        <time>2019-01-16T12:57:19Z</time>
      </trkpt>
      <trkpt lat="43.03806" lon="1.7108">
        <ele>401.7</ele>
        <time>2019-01-16T12:57:24Z</time>
      </trkpt>
      <trkpt lat="43.03811" lon="1.71069">
        <ele>401.9</ele>
        <time>2019-01-16T12:57:29Z</time>
      </trkpt>
      <trkpt lat="43.03815" lon="1.71057">
        <ele>401.9</ele>
        <time>2019-01-16T12:57:33Z</time>
      </trkpt>
      <trkpt lat="43.03818" lon="1.71044">
        <ele>402</ele>
        <time>2019-01-16T12:57:37Z</time>
      </trkpt>
      <trkpt lat="43.03824" lon="1.71034">
        <ele>402.2</ele>
        <time>2019-01-16T12:57:41Z</time>
      </trkpt>
      <trkpt lat="43.03832" lon="1.71023">
        <ele>402.4</ele>
        <time>2019-01-16T12:57:46Z</time>
      </trkpt>
      <trkpt lat="43.03841" lon="1.71013">
        <ele>402.5</ele>
        <time>2019-01-16T12:57:51Z</time>
      </trkpt>
      <trkpt lat="43.03849" lon="1.71008">
        <ele>402.7</ele>
        <time>2019-01-16T12:57:55Z</time>
      </trkpt>
      <trkpt lat="43.03859" lon="1.71011">
        <ele>403.1</ele>
        <time>2019-01-16T12:58:00Z</time>
      </trkpt>
      <trkpt lat="43.03867" lon="1.71022">
        <ele>403.6</ele>
        <time>2019-01-16T12:58:05Z</time>
      </trkpt>
      <trkpt lat="43.03872" lon="1.71033">
        <ele>404.3</ele>
        <time>2019-01-16T12:58:10Z</time>
      </trkpt>
      <trkpt lat="43.03875" lon="1.71046">
        <ele>405</ele>
        <time>2019-01-16T12:58:15Z</time>
      </trkpt>
      <trkpt lat="43.03879" lon="1.71058">
        <ele>405.6</ele>
        <time>2019-01-16T12:58:20Z</time>
      </trkpt>
      <trkpt lat="43.03885" lon="1.71068">
        <ele>406.1</ele>
        <time>2019-01-16T12:58:24Z</time>
      </trkpt>
      <trkpt lat="43.0389" lon="1.71079">
        <ele>406.5</ele>
        <time>2019-01-16T12:58:28Z</time>
      </trkpt>
      <trkpt lat="43.03896" lon="1.71088">
        <ele>406.8</ele>
        <time>2019-01-16T12:58:31Z</time>
      </trkpt>
      <trkpt lat="43.03902" lon="1.71098">
        <ele>407.1</ele>
        <time>2019-01-16T12:58:35Z</time>
      </trkpt>
      <trkpt lat="43.03909" lon="1.7111">
        <ele>407.7</ele>
        <time>2019-01-16T12:58:40Z</time>
      </trkpt>
      <trkpt lat="43.03915" lon="1.7112">
        <ele>408.1</ele>
        <time>2019-01-16T12:58:44Z</time>
      </trkpt>
      <trkpt lat="43.03921" lon="1.71131">
        <ele>408.7</ele>
        <time>2019-01-16T12:58:49Z</time>
      </trkpt>
      <trkpt lat="43.03927" lon="1.71143">
        <ele>409.3</ele>
        <time>2019-01-16T12:58:54Z</time>
      </trkpt>
      <trkpt lat="43.03931" lon="1.71156">
        <ele>409.8</ele>
        <time>2019-01-16T12:58:59Z</time>
      </trkpt>
      <trkpt lat="43.03936" lon="1.71169">
        <ele>410.4</ele>
        <time>2019-01-16T12:59:04Z</time>
      </trkpt>
      <trkpt lat="43.03943" lon="1.71184">
        <ele>412.2</ele>
        <time>2019-01-16T12:59:43Z</time>
      </trkpt>
      <trkpt lat="43.03949" lon="1.71197">
        <ele>413</ele>
        <time>2019-01-16T12:59:48Z</time>
      </trkpt>
      <trkpt lat="43.03954" lon="1.71211">
        <ele>413.6</ele>
        <time>2019-01-16T12:59:52Z</time>
      </trkpt>
      <trkpt lat="43.03957" lon="1.71224">
        <ele>414.2</ele>
        <time>2019-01-16T12:59:56Z</time>
      </trkpt>
      <trkpt lat="43.03961" lon="1.71237">
        <ele>414.8</ele>
        <time>2019-01-16T13:00:00Z</time>
      </trkpt>
      <trkpt lat="43.03964" lon="1.7125">
        <ele>415.3</ele>
        <time>2019-01-16T13:00:04Z</time>
      </trkpt>
      <trkpt lat="43.03969" lon="1.71261">
        <ele>415.8</ele>
        <time>2019-01-16T13:00:08Z</time>
      </trkpt>
      <trkpt lat="43.03974" lon="1.71272">
        <ele>416.4</ele>
        <time>2019-01-16T13:00:12Z</time>
      </trkpt>
      <trkpt lat="43.0398" lon="1.71283">
        <ele>416.9</ele>
        <time>2019-01-16T13:00:16Z</time>
      </trkpt>
      <trkpt lat="43.03986" lon="1.71293">
        <ele>417.5</ele>
        <time>2019-01-16T13:00:20Z</time>
      </trkpt>
      <trkpt lat="43.03992" lon="1.71303">
        <ele>418.1</ele>
        <time>2019-01-16T13:00:24Z</time>
      </trkpt>
      <trkpt lat="43.03999" lon="1.71313">
        <ele>418.5</ele>
        <time>2019-01-16T13:00:28Z</time>
      </trkpt>
      <trkpt lat="43.04006" lon="1.71325">
        <ele>419</ele>
        <time>2019-01-16T13:00:33Z</time>
      </trkpt>
      <trkpt lat="43.04016" lon="1.71331">
        <ele>419.6</ele>
        <time>2019-01-16T13:00:38Z</time>
      </trkpt>
      <trkpt lat="43.04027" lon="1.7133">
        <ele>420.2</ele>
        <time>2019-01-16T13:00:42Z</time>
      </trkpt>
      <trkpt lat="43.04037" lon="1.71329">
        <ele>420.8</ele>
        <time>2019-01-16T13:00:46Z</time>
      </trkpt>
      <trkpt lat="43.04048" lon="1.71332">
        <ele>421.5</ele>
        <time>2019-01-16T13:00:50Z</time>
      </trkpt>
      <trkpt lat="43.04055" lon="1.71343">
        <ele>422.3</ele>
        <time>2019-01-16T13:00:55Z</time>
      </trkpt>
      <trkpt lat="43.0406" lon="1.71355">
        <ele>422.9</ele>
        <time>2019-01-16T13:00:59Z</time>
      </trkpt>
      <trkpt lat="43.04064" lon="1.71366">
        <ele>423.6</ele>
        <time>2019-01-16T13:01:03Z</time>
      </trkpt>
      <trkpt lat="43.04067" lon="1.71378">
        <ele>424.3</ele>
        <time>2019-01-16T13:01:07Z</time>
      </trkpt>
      <trkpt lat="43.04069" lon="1.71391">
        <ele>424.9</ele>
        <time>2019-01-16T13:01:11Z</time>
      </trkpt>
      <trkpt lat="43.04071" lon="1.71404">
        <ele>425.6</ele>
        <time>2019-01-16T13:01:15Z</time>
      </trkpt>
      <trkpt lat="43.04072" lon="1.71419">
        <ele>426.4</ele>
        <time>2019-01-16T13:01:20Z</time>
      </trkpt>
      <trkpt lat="43.04074" lon="1.71434">
        <ele>427.2</ele>
        <time>2019-01-16T13:01:25Z</time>
      </trkpt>
      <trkpt lat="43.04078" lon="1.71447">
        <ele>427.9</ele>
        <time>2019-01-16T13:01:29Z</time>
      </trkpt>
      <trkpt lat="43.04083" lon="1.7146">
        <ele>428.5</ele>
        <time>2019-01-16T13:01:33Z</time>
      </trkpt>
      <trkpt lat="43.04088" lon="1.7147">
        <ele>429.2</ele>
        <time>2019-01-16T13:01:37Z</time>
      </trkpt>
      <trkpt lat="43.04094" lon="1.71481">
        <ele>429.8</ele>
        <time>2019-01-16T13:01:41Z</time>
      </trkpt>
      <trkpt lat="43.041" lon="1.71491">
        <ele>430.3</ele>
        <time>2019-01-16T13:01:45Z</time>
      </trkpt>
      <trkpt lat="43.04106" lon="1.71502">
        <ele>431</ele>
        <time>2019-01-16T13:01:49Z</time>
      </trkpt>
      <trkpt lat="43.04111" lon="1.71511">
        <ele>431.6</ele>
        <time>2019-01-16T13:01:53Z</time>
      </trkpt>
      <trkpt lat="43.04119" lon="1.71522">
        <ele>432.2</ele>
        <time>2019-01-16T13:01:57Z</time>
      </trkpt>
      <trkpt lat="43.04127" lon="1.7153">
        <ele>432.9</ele>
        <time>2019-01-16T13:02:01Z</time>
      </trkpt>
      <trkpt lat="43.04137" lon="1.71535">
        <ele>433.6</ele>
        <time>2019-01-16T13:02:05Z</time>
      </trkpt>
      <trkpt lat="43.04147" lon="1.71537">
        <ele>434.2</ele>
        <time>2019-01-16T13:02:09Z</time>
      </trkpt>
      <trkpt lat="43.04157" lon="1.71539">
        <ele>434.9</ele>
        <time>2019-01-16T13:02:13Z</time>
      </trkpt>
      <trkpt lat="43.04166" lon="1.71547">
        <ele>435.9</ele>
        <time>2019-01-16T13:02:18Z</time>
      </trkpt>
      <trkpt lat="43.04172" lon="1.71559">
        <ele>436.4</ele>
        <time>2019-01-16T13:02:21Z</time>
      </trkpt>
      <trkpt lat="43.04177" lon="1.7157">
        <ele>436.8</ele>
        <time>2019-01-16T13:02:24Z</time>
      </trkpt>
      <trkpt lat="43.04181" lon="1.71582">
        <ele>437.1</ele>
        <time>2019-01-16T13:02:27Z</time>
      </trkpt>
      <trkpt lat="43.04179" lon="1.71595">
        <ele>437.5</ele>
        <time>2019-01-16T13:02:31Z</time>
      </trkpt>
      <trkpt lat="43.04172" lon="1.71606">
        <ele>437.9</ele>
        <time>2019-01-16T13:02:35Z</time>
      </trkpt>
      <trkpt lat="43.04165" lon="1.71617">
        <ele>438.4</ele>
        <time>2019-01-16T13:02:38Z</time>
      </trkpt>
      <trkpt lat="43.04158" lon="1.71628">
        <ele>438.5</ele>
        <time>2019-01-16T13:02:41Z</time>
      </trkpt>
      <trkpt lat="43.04152" lon="1.71638">
        <ele>438.3</ele>
        <time>2019-01-16T13:02:45Z</time>
      </trkpt>
      <trkpt lat="43.04148" lon="1.71651">
        <ele>437.6</ele>
        <time>2019-01-16T13:02:49Z</time>
      </trkpt>
      <trkpt lat="43.04144" lon="1.71663">
        <ele>436.6</ele>
        <time>2019-01-16T13:02:52Z</time>
      </trkpt>
      <trkpt lat="43.04143" lon="1.71676">
        <ele>435.4</ele>
        <time>2019-01-16T13:02:55Z</time>
      </trkpt>
      <trkpt lat="43.04142" lon="1.71694">
        <ele>429</ele>
        <time>2019-01-16T13:02:58Z</time>
      </trkpt>
      <trkpt lat="43.04141" lon="1.71706">
        <ele>424.5</ele>
        <time>2019-01-16T13:03:00Z</time>
      </trkpt>
      <trkpt lat="43.04142" lon="1.71726">
        <ele>417.3</ele>
        <time>2019-01-16T13:03:03Z</time>
      </trkpt>
      <trkpt lat="43.04142" lon="1.71739">
        <ele>415.6</ele>
        <time>2019-01-16T13:03:05Z</time>
      </trkpt>
      <trkpt lat="43.04143" lon="1.71754">
        <ele>414.5</ele>
        <time>2019-01-16T13:03:08Z</time>
      </trkpt>
      <trkpt lat="43.04145" lon="1.71769">
        <ele>413.9</ele>
        <time>2019-01-16T13:03:11Z</time>
      </trkpt>
      <trkpt lat="43.04147" lon="1.71781">
        <ele>413.4</ele>
        <time>2019-01-16T13:03:14Z</time>
      </trkpt>
      <trkpt lat="43.04148" lon="1.71794">
        <ele>413</ele>
        <time>2019-01-16T13:03:17Z</time>
      </trkpt>
      <trkpt lat="43.04149" lon="1.7181">
        <ele>411.9</ele>
        <time>2019-01-16T13:03:20Z</time>
      </trkpt>
      <trkpt lat="43.0415" lon="1.71827">
        <ele>411.2</ele>
        <time>2019-01-16T13:03:23Z</time>
      </trkpt>
      <trkpt lat="43.04153" lon="1.71839">
        <ele>410.8</ele>
        <time>2019-01-16T13:03:26Z</time>
      </trkpt>
      <trkpt lat="43.04158" lon="1.7185">
        <ele>410.6</ele>
        <time>2019-01-16T13:03:28Z</time>
      </trkpt>
      <trkpt lat="43.04161" lon="1.71866">
        <ele>410.6</ele>
        <time>2019-01-16T13:03:30Z</time>
      </trkpt>
      <trkpt lat="43.04164" lon="1.71882">
        <ele>411.1</ele>
        <time>2019-01-16T13:03:33Z</time>
      </trkpt>
      <trkpt lat="43.04165" lon="1.71896">
        <ele>411.5</ele>
        <time>2019-01-16T13:03:35Z</time>
      </trkpt>
      <trkpt lat="43.04166" lon="1.71909">
        <ele>413.7</ele>
        <time>2019-01-16T13:03:37Z</time>
      </trkpt>
      <trkpt lat="43.04168" lon="1.71924">
        <ele>415.2</ele>
        <time>2019-01-16T13:03:39Z</time>
      </trkpt>
      <trkpt lat="43.0417" lon="1.71936">
        <ele>416</ele>
        <time>2019-01-16T13:03:41Z</time>
      </trkpt>
      <trkpt lat="43.04173" lon="1.7195">
        <ele>416.9</ele>
        <time>2019-01-16T13:03:44Z</time>
      </trkpt>
      <trkpt lat="43.04176" lon="1.71962">
        <ele>417.8</ele>
        <time>2019-01-16T13:03:47Z</time>
      </trkpt>
      <trkpt lat="43.04175" lon="1.71979">
        <ele>418.6</ele>
        <time>2019-01-16T13:03:50Z</time>
      </trkpt>
      <trkpt lat="43.04175" lon="1.71992">
        <ele>419.5</ele>
        <time>2019-01-16T13:03:53Z</time>
      </trkpt>
      <trkpt lat="43.04173" lon="1.72006">
        <ele>420.3</ele>
        <time>2019-01-16T13:03:56Z</time>
      </trkpt>
      <trkpt lat="43.04167" lon="1.7202">
        <ele>421.4</ele>
        <time>2019-01-16T13:04:00Z</time>
      </trkpt>
      <trkpt lat="43.04164" lon="1.72031">
        <ele>422.6</ele>
        <time>2019-01-16T13:04:05Z</time>
      </trkpt>
      <trkpt lat="43.04158" lon="1.7204">
        <ele>423.5</ele>
        <time>2019-01-16T13:04:09Z</time>
      </trkpt>
      <trkpt lat="43.0415" lon="1.72048">
        <ele>423.9</ele>
        <time>2019-01-16T13:04:12Z</time>
      </trkpt>
      <trkpt lat="43.04144" lon="1.72057">
        <ele>424.1</ele>
        <time>2019-01-16T13:04:15Z</time>
      </trkpt>
      <trkpt lat="43.0414" lon="1.72073">
        <ele>424</ele>
        <time>2019-01-16T13:04:19Z</time>
      </trkpt>
      <trkpt lat="43.04142" lon="1.72088">
        <ele>423.7</ele>
        <time>2019-01-16T13:04:22Z</time>
      </trkpt>
      <trkpt lat="43.04142" lon="1.72104">
        <ele>423.4</ele>
        <time>2019-01-16T13:04:25Z</time>
      </trkpt>
      <trkpt lat="43.04141" lon="1.72119">
        <ele>423.4</ele>
        <time>2019-01-16T13:04:27Z</time>
      </trkpt>
      <trkpt lat="43.04141" lon="1.72134">
        <ele>423.5</ele>
        <time>2019-01-16T13:04:30Z</time>
      </trkpt>
      <trkpt lat="43.04139" lon="1.72149">
        <ele>423.7</ele>
        <time>2019-01-16T13:04:32Z</time>
      </trkpt>
      <trkpt lat="43.04139" lon="1.72161">
        <ele>423.9</ele>
        <time>2019-01-16T13:04:34Z</time>
      </trkpt>
      <trkpt lat="43.04139" lon="1.72174">
        <ele>424.7</ele>
        <time>2019-01-16T13:04:45Z</time>
      </trkpt>
      <trkpt lat="43.04139" lon="1.72189">
        <ele>424.8</ele>
        <time>2019-01-16T13:05:26Z</time>
      </trkpt>
      <trkpt lat="43.04145" lon="1.72199">
        <ele>424.7</ele>
        <time>2019-01-16T13:05:32Z</time>
      </trkpt>
      <trkpt lat="43.04154" lon="1.72192">
        <ele>424.5</ele>
        <time>2019-01-16T13:05:39Z</time>
      </trkpt>
      <trkpt lat="43.04162" lon="1.72179">
        <ele>423.6</ele>
        <time>2019-01-16T13:05:42Z</time>
      </trkpt>
      <trkpt lat="43.04168" lon="1.72166">
        <ele>422.6</ele>
        <time>2019-01-16T13:05:44Z</time>
      </trkpt>
      <trkpt lat="43.04176" lon="1.72154">
        <ele>422</ele>
        <time>2019-01-16T13:05:46Z</time>
      </trkpt>
      <trkpt lat="43.04182" lon="1.72144">
        <ele>421.3</ele>
        <time>2019-01-16T13:05:48Z</time>
      </trkpt>
      <trkpt lat="43.0419" lon="1.72135">
        <ele>421</ele>
        <time>2019-01-16T13:05:50Z</time>
      </trkpt>
      <trkpt lat="43.04199" lon="1.72127">
        <ele>420.4</ele>
        <time>2019-01-16T13:05:52Z</time>
      </trkpt>
      <trkpt lat="43.04209" lon="1.72117">
        <ele>420.1</ele>
        <time>2019-01-16T13:05:55Z</time>
      </trkpt>
      <trkpt lat="43.04219" lon="1.7211">
        <ele>420.1</ele>
        <time>2019-01-16T13:05:59Z</time>
      </trkpt>
      <trkpt lat="43.04229" lon="1.72105">
        <ele>420.3</ele>
        <time>2019-01-16T13:06:02Z</time>
      </trkpt>
      <trkpt lat="43.0424" lon="1.72101">
        <ele>420.6</ele>
        <time>2019-01-16T13:06:05Z</time>
      </trkpt>
      <trkpt lat="43.04252" lon="1.72098">
        <ele>421</ele>
        <time>2019-01-16T13:06:08Z</time>
      </trkpt>
      <trkpt lat="43.04262" lon="1.72097">
        <ele>421.4</ele>
        <time>2019-01-16T13:06:11Z</time>
      </trkpt>
      <trkpt lat="43.0427" lon="1.72103">
        <ele>421.8</ele>
        <time>2019-01-16T13:06:14Z</time>
      </trkpt>
      <trkpt lat="43.04279" lon="1.72114">
        <ele>422.1</ele>
        <time>2019-01-16T13:06:17Z</time>
      </trkpt>
      <trkpt lat="43.04286" lon="1.72128">
        <ele>422.4</ele>
        <time>2019-01-16T13:06:20Z</time>
      </trkpt>
      <trkpt lat="43.04289" lon="1.7214">
        <ele>422.7</ele>
        <time>2019-01-16T13:06:23Z</time>
      </trkpt>
      <trkpt lat="43.04291" lon="1.72155">
        <ele>423</ele>
        <time>2019-01-16T13:06:26Z</time>
      </trkpt>
      <trkpt lat="43.04293" lon="1.72172">
        <ele>423.9</ele>
        <time>2019-01-16T13:06:29Z</time>
      </trkpt>
      <trkpt lat="43.04295" lon="1.72189">
        <ele>424.4</ele>
        <time>2019-01-16T13:06:32Z</time>
      </trkpt>
      <trkpt lat="43.04298" lon="1.72206">
        <ele>424.5</ele>
        <time>2019-01-16T13:06:35Z</time>
      </trkpt>
      <trkpt lat="43.04302" lon="1.72223">
        <ele>424.5</ele>
        <time>2019-01-16T13:06:38Z</time>
      </trkpt>
      <trkpt lat="43.04304" lon="1.72236">
        <ele>424.4</ele>
        <time>2019-01-16T13:06:40Z</time>
      </trkpt>
      <trkpt lat="43.04308" lon="1.72248">
        <ele>424.3</ele>
        <time>2019-01-16T13:06:42Z</time>
      </trkpt>
      <trkpt lat="43.04314" lon="1.72261">
        <ele>424.4</ele>
        <time>2019-01-16T13:06:45Z</time>
      </trkpt>
      <trkpt lat="43.04322" lon="1.72271">
        <ele>424.4</ele>
        <time>2019-01-16T13:06:48Z</time>
      </trkpt>
      <trkpt lat="43.04329" lon="1.72282">
        <ele>424.6</ele>
        <time>2019-01-16T13:06:50Z</time>
      </trkpt>
      <trkpt lat="43.04335" lon="1.72292">
        <ele>424.6</ele>
        <time>2019-01-16T13:06:52Z</time>
      </trkpt>
      <trkpt lat="43.04341" lon="1.72302">
        <ele>424.6</ele>
        <time>2019-01-16T13:06:55Z</time>
      </trkpt>
      <trkpt lat="43.04347" lon="1.72312">
        <ele>424.6</ele>
        <time>2019-01-16T13:06:57Z</time>
      </trkpt>
      <trkpt lat="43.04355" lon="1.72325">
        <ele>424.8</ele>
        <time>2019-01-16T13:07:00Z</time>
      </trkpt>
      <trkpt lat="43.04363" lon="1.72337">
        <ele>424.9</ele>
        <time>2019-01-16T13:07:03Z</time>
      </trkpt>
      <trkpt lat="43.0437" lon="1.72348">
        <ele>425.2</ele>
        <time>2019-01-16T13:07:06Z</time>
      </trkpt>
      <trkpt lat="43.04378" lon="1.72355">
        <ele>426</ele>
        <time>2019-01-16T13:07:13Z</time>
      </trkpt>
      <trkpt lat="43.04386" lon="1.72361">
        <ele>427.7</ele>
        <time>2019-01-16T13:07:29Z</time>
      </trkpt>
      <trkpt lat="43.04391" lon="1.72373">
        <ele>428.8</ele>
        <time>2019-01-16T13:07:40Z</time>
      </trkpt>
      <trkpt lat="43.04393" lon="1.72386">
        <ele>429.5</ele>
        <time>2019-01-16T13:07:49Z</time>
      </trkpt>
      <trkpt lat="43.04392" lon="1.724">
        <ele>430</ele>
        <time>2019-01-16T13:07:56Z</time>
      </trkpt>
      <trkpt lat="43.04397" lon="1.72412">
        <ele>430.3</ele>
        <time>2019-01-16T13:08:03Z</time>
      </trkpt>
      <trkpt lat="43.04403" lon="1.72421">
        <ele>430.5</ele>
        <time>2019-01-16T13:08:08Z</time>
      </trkpt>
      <trkpt lat="43.04412" lon="1.72426">
        <ele>430.8</ele>
        <time>2019-01-16T13:08:13Z</time>
      </trkpt>
      <trkpt lat="43.04421" lon="1.7243">
        <ele>431</ele>
        <time>2019-01-16T13:08:18Z</time>
      </trkpt>
      <trkpt lat="43.04429" lon="1.72439">
        <ele>431.4</ele>
        <time>2019-01-16T13:08:24Z</time>
      </trkpt>
      <trkpt lat="43.04434" lon="1.7245">
        <ele>431.7</ele>
        <time>2019-01-16T13:08:30Z</time>
      </trkpt>
      <trkpt lat="43.04435" lon="1.72464">
        <ele>431.9</ele>
        <time>2019-01-16T13:08:36Z</time>
      </trkpt>
      <trkpt lat="43.04431" lon="1.72477">
        <ele>432.3</ele>
        <time>2019-01-16T13:08:41Z</time>
      </trkpt>
      <trkpt lat="43.04427" lon="1.72491">
        <ele>432.6</ele>
        <time>2019-01-16T13:08:46Z</time>
      </trkpt>
      <trkpt lat="43.04425" lon="1.72504">
        <ele>432.8</ele>
        <time>2019-01-16T13:08:49Z</time>
      </trkpt>
      <trkpt lat="43.04424" lon="1.72517">
        <ele>433</ele>
        <time>2019-01-16T13:08:52Z</time>
      </trkpt>
      <trkpt lat="43.04426" lon="1.72529">
        <ele>433.1</ele>
        <time>2019-01-16T13:08:55Z</time>
      </trkpt>
      <trkpt lat="43.04426" lon="1.72546">
        <ele>433.4</ele>
        <time>2019-01-16T13:08:58Z</time>
      </trkpt>
      <trkpt lat="43.04427" lon="1.72564">
        <ele>433.7</ele>
        <time>2019-01-16T13:09:01Z</time>
      </trkpt>
      <trkpt lat="43.04426" lon="1.72581">
        <ele>433.9</ele>
        <time>2019-01-16T13:09:04Z</time>
      </trkpt>
      <trkpt lat="43.04423" lon="1.72599">
        <ele>432.8</ele>
        <time>2019-01-16T13:09:07Z</time>
      </trkpt>
      <trkpt lat="43.0442" lon="1.72616">
        <ele>431.7</ele>
        <time>2019-01-16T13:09:10Z</time>
      </trkpt>
      <trkpt lat="43.04421" lon="1.7263">
        <ele>430.1</ele>
        <time>2019-01-16T13:09:12Z</time>
      </trkpt>
      <trkpt lat="43.0442" lon="1.72644">
        <ele>429.4</ele>
        <time>2019-01-16T13:09:14Z</time>
      </trkpt>
      <trkpt lat="43.04419" lon="1.72658">
        <ele>429.1</ele>
        <time>2019-01-16T13:09:17Z</time>
      </trkpt>
      <trkpt lat="43.0442" lon="1.72675">
        <ele>429.1</ele>
        <time>2019-01-16T13:09:20Z</time>
      </trkpt>
      <trkpt lat="43.04421" lon="1.72688">
        <ele>429.1</ele>
        <time>2019-01-16T13:09:23Z</time>
      </trkpt>
      <trkpt lat="43.04429" lon="1.72699">
        <ele>428.3</ele>
        <time>2019-01-16T13:09:31Z</time>
      </trkpt>
      <trkpt lat="43.04439" lon="1.72703">
        <ele>427.9</ele>
        <time>2019-01-16T13:09:34Z</time>
      </trkpt>
      <trkpt lat="43.04449" lon="1.72711">
        <ele>425.1</ele>
        <time>2019-01-16T13:09:37Z</time>
      </trkpt>
      <trkpt lat="43.04458" lon="1.72722">
        <ele>422.3</ele>
        <time>2019-01-16T13:09:39Z</time>
      </trkpt>
      <trkpt lat="43.04466" lon="1.72734">
        <ele>420.7</ele>
        <time>2019-01-16T13:09:42Z</time>
      </trkpt>
      <trkpt lat="43.04475" lon="1.72739">
        <ele>419.7</ele>
        <time>2019-01-16T13:10:40Z</time>
      </trkpt>
      <trkpt lat="43.04469" lon="1.72748">
        <ele>417.8</ele>
        <time>2019-01-16T13:11:02Z</time>
      </trkpt>
      <trkpt lat="43.04459" lon="1.72752">
        <ele>417.2</ele>
        <time>2019-01-16T13:11:07Z</time>
      </trkpt>
      <trkpt lat="43.0445" lon="1.72748">
        <ele>416.6</ele>
        <time>2019-01-16T13:11:11Z</time>
      </trkpt>
      <trkpt lat="43.04441" lon="1.72745">
        <ele>415.7</ele>
        <time>2019-01-16T13:11:15Z</time>
      </trkpt>
      <trkpt lat="43.04443" lon="1.72758">
        <ele>413.5</ele>
        <time>2019-01-16T13:11:21Z</time>
      </trkpt>
      <trkpt lat="43.04453" lon="1.72767">
        <ele>411.7</ele>
        <time>2019-01-16T13:11:25Z</time>
      </trkpt>
      <trkpt lat="43.04463" lon="1.72774">
        <ele>406.4</ele>
        <time>2019-01-16T13:11:28Z</time>
      </trkpt>
      <trkpt lat="43.04467" lon="1.72785">
        <ele>403.9</ele>
        <time>2019-01-16T13:11:32Z</time>
      </trkpt>
      <trkpt lat="43.04472" lon="1.72799">
        <ele>402.4</ele>
        <time>2019-01-16T13:11:35Z</time>
      </trkpt>
      <trkpt lat="43.04482" lon="1.72807">
        <ele>400.4</ele>
        <time>2019-01-16T13:11:39Z</time>
      </trkpt>
      <trkpt lat="43.04493" lon="1.72808">
        <ele>398.7</ele>
        <time>2019-01-16T13:11:42Z</time>
      </trkpt>
      <trkpt lat="43.04504" lon="1.7281">
        <ele>393.2</ele>
        <time>2019-01-16T13:11:44Z</time>
      </trkpt>
      <trkpt lat="43.04515" lon="1.7281">
        <ele>390.6</ele>
        <time>2019-01-16T13:11:47Z</time>
      </trkpt>
      <trkpt lat="43.04524" lon="1.72812">
        <ele>389.3</ele>
        <time>2019-01-16T13:11:49Z</time>
      </trkpt>
      <trkpt lat="43.04534" lon="1.72812">
        <ele>385.2</ele>
        <time>2019-01-16T13:11:51Z</time>
      </trkpt>
      <trkpt lat="43.04546" lon="1.72811">
        <ele>377.4</ele>
        <time>2019-01-16T13:11:53Z</time>
      </trkpt>
      <trkpt lat="43.04559" lon="1.72811">
        <ele>370.5</ele>
        <time>2019-01-16T13:11:55Z</time>
      </trkpt>
      <trkpt lat="43.0457" lon="1.7281">
        <ele>367.8</ele>
        <time>2019-01-16T13:11:56Z</time>
      </trkpt>
      <trkpt lat="43.04584" lon="1.7281">
        <ele>364.4</ele>
        <time>2019-01-16T13:11:58Z</time>
      </trkpt>
      <trkpt lat="43.04595" lon="1.7281">
        <ele>363.3</ele>
        <time>2019-01-16T13:12:00Z</time>
      </trkpt>
      <trkpt lat="43.04607" lon="1.72814">
        <ele>362.6</ele>
        <time>2019-01-16T13:12:03Z</time>
      </trkpt>
      <trkpt lat="43.04616" lon="1.72816">
        <ele>362.2</ele>
        <time>2019-01-16T13:12:06Z</time>
      </trkpt>
      <trkpt lat="43.04628" lon="1.72821">
        <ele>361.7</ele>
        <time>2019-01-16T13:12:09Z</time>
      </trkpt>
      <trkpt lat="43.04639" lon="1.72823">
        <ele>361.4</ele>
        <time>2019-01-16T13:12:11Z</time>
      </trkpt>
      <trkpt lat="43.04649" lon="1.72833">
        <ele>360.6</ele>
        <time>2019-01-16T13:12:15Z</time>
      </trkpt>
      <trkpt lat="43.04659" lon="1.72842">
        <ele>359.8</ele>
        <time>2019-01-16T13:12:18Z</time>
      </trkpt>
      <trkpt lat="43.04667" lon="1.72849">
        <ele>359.2</ele>
        <time>2019-01-16T13:12:20Z</time>
      </trkpt>
      <trkpt lat="43.04674" lon="1.72858">
        <ele>358.2</ele>
        <time>2019-01-16T13:12:23Z</time>
      </trkpt>
      <trkpt lat="43.04683" lon="1.72866">
        <ele>357</ele>
        <time>2019-01-16T13:12:26Z</time>
      </trkpt>
      <trkpt lat="43.04693" lon="1.72871">
        <ele>354.1</ele>
        <time>2019-01-16T13:12:29Z</time>
      </trkpt>
      <trkpt lat="43.04704" lon="1.72879">
        <ele>349</ele>
        <time>2019-01-16T13:12:31Z</time>
      </trkpt>
      <trkpt lat="43.04714" lon="1.72888">
        <ele>344.7</ele>
        <time>2019-01-16T13:12:33Z</time>
      </trkpt>
      <trkpt lat="43.04724" lon="1.72897">
        <ele>342.3</ele>
        <time>2019-01-16T13:12:35Z</time>
      </trkpt>
      <trkpt lat="43.04733" lon="1.72905">
        <ele>341.5</ele>
        <time>2019-01-16T13:12:37Z</time>
      </trkpt>
      <trkpt lat="43.04742" lon="1.72915">
        <ele>341</ele>
        <time>2019-01-16T13:12:40Z</time>
      </trkpt>
      <trkpt lat="43.04753" lon="1.72926">
        <ele>340.1</ele>
        <time>2019-01-16T13:12:44Z</time>
      </trkpt>
      <trkpt lat="43.04762" lon="1.72932">
        <ele>339.1</ele>
        <time>2019-01-16T13:12:46Z</time>
      </trkpt>
      <trkpt lat="43.04772" lon="1.72938">
        <ele>338.2</ele>
        <time>2019-01-16T13:12:48Z</time>
      </trkpt>
      <trkpt lat="43.04784" lon="1.72944">
        <ele>337.5</ele>
        <time>2019-01-16T13:12:50Z</time>
      </trkpt>
      <trkpt lat="43.04792" lon="1.72947">
        <ele>337.1</ele>
        <time>2019-01-16T13:12:51Z</time>
      </trkpt>
      <trkpt lat="43.04802" lon="1.72959">
        <ele>336.7</ele>
        <time>2019-01-16T13:12:53Z</time>
      </trkpt>
      <trkpt lat="43.04813" lon="1.72971">
        <ele>336.6</ele>
        <time>2019-01-16T13:12:55Z</time>
      </trkpt>
      <trkpt lat="43.04825" lon="1.72984">
        <ele>337.3</ele>
        <time>2019-01-16T13:12:57Z</time>
      </trkpt>
      <trkpt lat="43.04837" lon="1.72994">
        <ele>338.2</ele>
        <time>2019-01-16T13:12:59Z</time>
      </trkpt>
      <trkpt lat="43.04847" lon="1.73004">
        <ele>338.8</ele>
        <time>2019-01-16T13:13:01Z</time>
      </trkpt>
      <trkpt lat="43.04857" lon="1.73017">
        <ele>339.2</ele>
        <time>2019-01-16T13:13:03Z</time>
      </trkpt>
      <trkpt lat="43.04866" lon="1.73031">
        <ele>340</ele>
        <time>2019-01-16T13:13:05Z</time>
      </trkpt>
      <trkpt lat="43.04876" lon="1.73046">
        <ele>340.7</ele>
        <time>2019-01-16T13:13:07Z</time>
      </trkpt>
      <trkpt lat="43.04888" lon="1.73064">
        <ele>341.4</ele>
        <time>2019-01-16T13:13:09Z</time>
      </trkpt>
      <trkpt lat="43.04896" lon="1.73074">
        <ele>341.9</ele>
        <time>2019-01-16T13:13:10Z</time>
      </trkpt>
      <trkpt lat="43.04903" lon="1.73083">
        <ele>342.4</ele>
        <time>2019-01-16T13:13:11Z</time>
      </trkpt>
      <trkpt lat="43.04913" lon="1.73101">
        <ele>343.5</ele>
        <time>2019-01-16T13:13:13Z</time>
      </trkpt>
      <trkpt lat="43.04923" lon="1.73116">
        <ele>344.7</ele>
        <time>2019-01-16T13:13:15Z</time>
      </trkpt>
      <trkpt lat="43.04932" lon="1.73129">
        <ele>345.7</ele>
        <time>2019-01-16T13:13:17Z</time>
      </trkpt>
      <trkpt lat="43.04941" lon="1.73136">
        <ele>346.8</ele>
        <time>2019-01-16T13:13:19Z</time>
      </trkpt>
      <trkpt lat="43.04952" lon="1.73128">
        <ele>347.4</ele>
        <time>2019-01-16T13:13:22Z</time>
      </trkpt>
      <trkpt lat="43.04961" lon="1.73123">
        <ele>347.5</ele>
        <time>2019-01-16T13:13:24Z</time>
      </trkpt>
      <trkpt lat="43.04971" lon="1.73119">
        <ele>347.2</ele>
        <time>2019-01-16T13:13:26Z</time>
      </trkpt>
      <trkpt lat="43.04979" lon="1.73123">
        <ele>346.6</ele>
        <time>2019-01-16T13:13:28Z</time>
      </trkpt>
      <trkpt lat="43.04988" lon="1.73134">
        <ele>345.5</ele>
        <time>2019-01-16T13:13:30Z</time>
      </trkpt>
      <trkpt lat="43.04992" lon="1.73148">
        <ele>343.8</ele>
        <time>2019-01-16T13:13:32Z</time>
      </trkpt>
      <trkpt lat="43.04994" lon="1.73165">
        <ele>341.9</ele>
        <time>2019-01-16T13:13:34Z</time>
      </trkpt>
      <trkpt lat="43.04996" lon="1.73182">
        <ele>340.4</ele>
        <time>2019-01-16T13:13:36Z</time>
      </trkpt>
      <trkpt lat="43.04998" lon="1.73197">
        <ele>339.1</ele>
        <time>2019-01-16T13:13:38Z</time>
      </trkpt>
      <trkpt lat="43.05" lon="1.73214">
        <ele>338.1</ele>
        <time>2019-01-16T13:13:40Z</time>
      </trkpt>
      <trkpt lat="43.05001" lon="1.73233">
        <ele>337.6</ele>
        <time>2019-01-16T13:13:42Z</time>
      </trkpt>
      <trkpt lat="43.05006" lon="1.73251">
        <ele>337.4</ele>
        <time>2019-01-16T13:13:44Z</time>
      </trkpt>
      <trkpt lat="43.05016" lon="1.73267">
        <ele>337.4</ele>
        <time>2019-01-16T13:13:46Z</time>
      </trkpt>
      <trkpt lat="43.0503" lon="1.73281">
        <ele>337.5</ele>
        <time>2019-01-16T13:13:48Z</time>
      </trkpt>
      <trkpt lat="43.05042" lon="1.73297">
        <ele>337.5</ele>
        <time>2019-01-16T13:13:50Z</time>
      </trkpt>
      <trkpt lat="43.05051" lon="1.73315">
        <ele>337.5</ele>
        <time>2019-01-16T13:13:52Z</time>
      </trkpt>
      <trkpt lat="43.05061" lon="1.73334">
        <ele>337.2</ele>
        <time>2019-01-16T13:13:54Z</time>
      </trkpt>
      <trkpt lat="43.05067" lon="1.73353">
        <ele>336.7</ele>
        <time>2019-01-16T13:13:56Z</time>
      </trkpt>
      <trkpt lat="43.0507" lon="1.73371">
        <ele>336.1</ele>
        <time>2019-01-16T13:13:58Z</time>
      </trkpt>
      <trkpt lat="43.05072" lon="1.73389">
        <ele>335.3</ele>
        <time>2019-01-16T13:14:00Z</time>
      </trkpt>
      <trkpt lat="43.05074" lon="1.73407">
        <ele>334.5</ele>
        <time>2019-01-16T13:14:02Z</time>
      </trkpt>
      <trkpt lat="43.05075" lon="1.73426">
        <ele>333.5</ele>
        <time>2019-01-16T13:14:04Z</time>
      </trkpt>
      <trkpt lat="43.05073" lon="1.73445">
        <ele>332.2</ele>
        <time>2019-01-16T13:14:06Z</time>
      </trkpt>
      <trkpt lat="43.05072" lon="1.73466">
        <ele>330.7</ele>
        <time>2019-01-16T13:14:08Z</time>
      </trkpt>
      <trkpt lat="43.05077" lon="1.73484">
        <ele>329.1</ele>
        <time>2019-01-16T13:14:10Z</time>
      </trkpt>
      <trkpt lat="43.05087" lon="1.73501">
        <ele>327.8</ele>
        <time>2019-01-16T13:14:12Z</time>
      </trkpt>
      <trkpt lat="43.05094" lon="1.7352">
        <ele>326.7</ele>
        <time>2019-01-16T13:14:14Z</time>
      </trkpt>
      <trkpt lat="43.05101" lon="1.73539">
        <ele>325.9</ele>
        <time>2019-01-16T13:14:16Z</time>
      </trkpt>
      <trkpt lat="43.05108" lon="1.73557">
        <ele>325.2</ele>
        <time>2019-01-16T13:14:18Z</time>
      </trkpt>
      <trkpt lat="43.05116" lon="1.73576">
        <ele>324.6</ele>
        <time>2019-01-16T13:14:20Z</time>
      </trkpt>
      <trkpt lat="43.05126" lon="1.73595">
        <ele>324.1</ele>
        <time>2019-01-16T13:14:22Z</time>
      </trkpt>
      <trkpt lat="43.05138" lon="1.73609">
        <ele>323.7</ele>
        <time>2019-01-16T13:14:24Z</time>
      </trkpt>
      <trkpt lat="43.0515" lon="1.73622">
        <ele>323.2</ele>
        <time>2019-01-16T13:14:26Z</time>
      </trkpt>
      <trkpt lat="43.05161" lon="1.73638">
        <ele>322.7</ele>
        <time>2019-01-16T13:14:28Z</time>
      </trkpt>
      <trkpt lat="43.05171" lon="1.73654">
        <ele>322.1</ele>
        <time>2019-01-16T13:14:30Z</time>
      </trkpt>
      <trkpt lat="43.05179" lon="1.73672">
        <ele>321.5</ele>
        <time>2019-01-16T13:14:32Z</time>
      </trkpt>
      <trkpt lat="43.05187" lon="1.73692">
        <ele>320.8</ele>
        <time>2019-01-16T13:14:34Z</time>
      </trkpt>
      <trkpt lat="43.05199" lon="1.73707">
        <ele>320.3</ele>
        <time>2019-01-16T13:14:36Z</time>
      </trkpt>
      <trkpt lat="43.05209" lon="1.73723">
        <ele>319.7</ele>
        <time>2019-01-16T13:14:38Z</time>
      </trkpt>
      <trkpt lat="43.05218" lon="1.73741">
        <ele>319</ele>
        <time>2019-01-16T13:14:40Z</time>
      </trkpt>
      <trkpt lat="43.05225" lon="1.7376">
        <ele>318.2</ele>
        <time>2019-01-16T13:14:42Z</time>
      </trkpt>
      <trkpt lat="43.05229" lon="1.73782">
        <ele>317.5</ele>
        <time>2019-01-16T13:14:44Z</time>
      </trkpt>
      <trkpt lat="43.05233" lon="1.73804">
        <ele>316.9</ele>
        <time>2019-01-16T13:14:46Z</time>
      </trkpt>
      <trkpt lat="43.05238" lon="1.73826">
        <ele>316.3</ele>
        <time>2019-01-16T13:14:48Z</time>
      </trkpt>
      <trkpt lat="43.05244" lon="1.73846">
        <ele>315.8</ele>
        <time>2019-01-16T13:14:50Z</time>
      </trkpt>
      <trkpt lat="43.05249" lon="1.73867">
        <ele>315.3</ele>
        <time>2019-01-16T13:14:52Z</time>
      </trkpt>
      <trkpt lat="43.05253" lon="1.73888">
        <ele>314.9</ele>
        <time>2019-01-16T13:14:54Z</time>
      </trkpt>
      <trkpt lat="43.05257" lon="1.73907">
        <ele>314.4</ele>
        <time>2019-01-16T13:14:56Z</time>
      </trkpt>
      <trkpt lat="43.05263" lon="1.73925">
        <ele>313.4</ele>
        <time>2019-01-16T13:14:58Z</time>
      </trkpt>
      <trkpt lat="43.05273" lon="1.73943">
        <ele>312.7</ele>
        <time>2019-01-16T13:15:00Z</time>
      </trkpt>
      <trkpt lat="43.05284" lon="1.73961">
        <ele>312.3</ele>
        <time>2019-01-16T13:15:02Z</time>
      </trkpt>
      <trkpt lat="43.0529" lon="1.73971">
        <ele>312.1</ele>
        <time>2019-01-16T13:15:03Z</time>
      </trkpt>
      <trkpt lat="43.05301" lon="1.7399">
        <ele>311.7</ele>
        <time>2019-01-16T13:15:05Z</time>
      </trkpt>
      <trkpt lat="43.05308" lon="1.74012">
        <ele>310.9</ele>
        <time>2019-01-16T13:15:07Z</time>
      </trkpt>
      <trkpt lat="43.05318" lon="1.74031">
        <ele>310.2</ele>
        <time>2019-01-16T13:15:09Z</time>
      </trkpt>
      <trkpt lat="43.05329" lon="1.74048">
        <ele>309.5</ele>
        <time>2019-01-16T13:15:11Z</time>
      </trkpt>
      <trkpt lat="43.05342" lon="1.74064">
        <ele>308.6</ele>
        <time>2019-01-16T13:15:13Z</time>
      </trkpt>
      <trkpt lat="43.05355" lon="1.74081">
        <ele>307.5</ele>
        <time>2019-01-16T13:15:15Z</time>
      </trkpt>
      <trkpt lat="43.05367" lon="1.74096">
        <ele>306.5</ele>
        <time>2019-01-16T13:15:17Z</time>
      </trkpt>
      <trkpt lat="43.05381" lon="1.7411">
        <ele>305.5</ele>
        <time>2019-01-16T13:15:19Z</time>
      </trkpt>
      <trkpt lat="43.05394" lon="1.74123">
        <ele>304.6</ele>
        <time>2019-01-16T13:15:21Z</time>
      </trkpt>
      <trkpt lat="43.05407" lon="1.74136">
        <ele>303.8</ele>
        <time>2019-01-16T13:15:23Z</time>
      </trkpt>
      <trkpt lat="43.05419" lon="1.74149">
        <ele>303.1</ele>
        <time>2019-01-16T13:15:25Z</time>
      </trkpt>
      <trkpt lat="43.05431" lon="1.74162">
        <ele>302.5</ele>
        <time>2019-01-16T13:15:27Z</time>
      </trkpt>
      <trkpt lat="43.05442" lon="1.74175">
        <ele>302</ele>
        <time>2019-01-16T13:15:29Z</time>
      </trkpt>
      <trkpt lat="43.05455" lon="1.74186">
        <ele>301.5</ele>
        <time>2019-01-16T13:15:31Z</time>
      </trkpt>
      <trkpt lat="43.05468" lon="1.74197">
        <ele>301</ele>
        <time>2019-01-16T13:15:33Z</time>
      </trkpt>
      <trkpt lat="43.05481" lon="1.74207">
        <ele>300.5</ele>
        <time>2019-01-16T13:15:35Z</time>
      </trkpt>
      <trkpt lat="43.05495" lon="1.74217">
        <ele>300.1</ele>
        <time>2019-01-16T13:15:37Z</time>
      </trkpt>
      <trkpt lat="43.05509" lon="1.74227">
        <ele>299.8</ele>
        <time>2019-01-16T13:15:39Z</time>
      </trkpt>
      <trkpt lat="43.05522" lon="1.74239">
        <ele>299.4</ele>
        <time>2019-01-16T13:15:41Z</time>
      </trkpt>
      <trkpt lat="43.05531" lon="1.74258">
        <ele>299</ele>
        <time>2019-01-16T13:15:43Z</time>
      </trkpt>
      <trkpt lat="43.05536" lon="1.74279">
        <ele>298.7</ele>
        <time>2019-01-16T13:15:45Z</time>
      </trkpt>
      <trkpt lat="43.0554" lon="1.743">
        <ele>298.4</ele>
        <time>2019-01-16T13:15:47Z</time>
      </trkpt>
      <trkpt lat="43.05545" lon="1.74316">
        <ele>298.2</ele>
        <time>2019-01-16T13:15:49Z</time>
      </trkpt>
      <trkpt lat="43.05554" lon="1.74319">
        <ele>297.9</ele>
        <time>2019-01-16T13:15:51Z</time>
      </trkpt>
      <trkpt lat="43.05563" lon="1.74315">
        <ele>297.8</ele>
        <time>2019-01-16T13:15:54Z</time>
      </trkpt>
      <trkpt lat="43.05551" lon="1.74318">
        <ele>297.8</ele>
        <time>2019-01-16T13:16:03Z</time>
      </trkpt>
      <trkpt lat="43.05539" lon="1.74319">
        <ele>298</ele>
        <time>2019-01-16T13:16:06Z</time>
      </trkpt>
      <trkpt lat="43.05531" lon="1.74327">
        <ele>298.2</ele>
        <time>2019-01-16T13:16:08Z</time>
      </trkpt>
      <trkpt lat="43.05522" lon="1.74335">
        <ele>298.2</ele>
        <time>2019-01-16T13:16:10Z</time>
      </trkpt>
      <trkpt lat="43.05514" lon="1.74344">
        <ele>298.3</ele>
        <time>2019-01-16T13:16:12Z</time>
      </trkpt>
      <trkpt lat="43.05506" lon="1.74352">
        <ele>298.5</ele>
        <time>2019-01-16T13:16:14Z</time>
      </trkpt>
      <trkpt lat="43.05498" lon="1.74361">
        <ele>298.6</ele>
        <time>2019-01-16T13:16:16Z</time>
      </trkpt>
      <trkpt lat="43.05491" lon="1.7437">
        <ele>298.8</ele>
        <time>2019-01-16T13:16:18Z</time>
      </trkpt>
      <trkpt lat="43.05484" lon="1.74381">
        <ele>299</ele>
        <time>2019-01-16T13:16:20Z</time>
      </trkpt>
      <trkpt lat="43.05479" lon="1.74393">
        <ele>299.3</ele>
        <time>2019-01-16T13:16:22Z</time>
      </trkpt>
      <trkpt lat="43.05474" lon="1.74405">
        <ele>299.6</ele>
        <time>2019-01-16T13:16:24Z</time>
      </trkpt>
      <trkpt lat="43.05469" lon="1.74417">
        <ele>299.9</ele>
        <time>2019-01-16T13:16:26Z</time>
      </trkpt>
      <trkpt lat="43.05466" lon="1.74428">
        <ele>300</ele>
        <time>2019-01-16T13:16:28Z</time>
      </trkpt>
      <trkpt lat="43.05462" lon="1.7444">
        <ele>300.1</ele>
        <time>2019-01-16T13:16:30Z</time>
      </trkpt>
      <trkpt lat="43.05459" lon="1.74452">
        <ele>300.1</ele>
        <time>2019-01-16T13:16:32Z</time>
      </trkpt>
      <trkpt lat="43.05454" lon="1.74469">
        <ele>300</ele>
        <time>2019-01-16T13:16:35Z</time>
      </trkpt>
      <trkpt lat="43.05451" lon="1.74487">
        <ele>300.2</ele>
        <time>2019-01-16T13:16:38Z</time>
      </trkpt>
      <trkpt lat="43.0545" lon="1.74499">
        <ele>300.4</ele>
        <time>2019-01-16T13:16:40Z</time>
      </trkpt>
      <trkpt lat="43.0545" lon="1.74512">
        <ele>300.6</ele>
        <time>2019-01-16T13:16:42Z</time>
      </trkpt>
      <trkpt lat="43.0545" lon="1.7453">
        <ele>301</ele>
        <time>2019-01-16T13:16:45Z</time>
      </trkpt>
      <trkpt lat="43.05449" lon="1.74547">
        <ele>300.8</ele>
        <time>2019-01-16T13:16:48Z</time>
      </trkpt>
      <trkpt lat="43.05448" lon="1.74563">
        <ele>300.5</ele>
        <time>2019-01-16T13:16:51Z</time>
      </trkpt>
      <trkpt lat="43.05448" lon="1.74579">
        <ele>298.7</ele>
        <time>2019-01-16T13:16:54Z</time>
      </trkpt>
      <trkpt lat="43.05447" lon="1.74596">
        <ele>295.4</ele>
        <time>2019-01-16T13:16:57Z</time>
      </trkpt>
      <trkpt lat="43.05448" lon="1.74612">
        <ele>293</ele>
        <time>2019-01-16T13:17:00Z</time>
      </trkpt>
      <trkpt lat="43.05449" lon="1.74628">
        <ele>291.3</ele>
        <time>2019-01-16T13:17:02Z</time>
      </trkpt>
      <trkpt lat="43.0545" lon="1.74644">
        <ele>290.4</ele>
        <time>2019-01-16T13:17:04Z</time>
      </trkpt>
      <trkpt lat="43.05452" lon="1.7466">
        <ele>290.3</ele>
        <time>2019-01-16T13:17:06Z</time>
      </trkpt>
      <trkpt lat="43.05453" lon="1.74675">
        <ele>290.6</ele>
        <time>2019-01-16T13:17:08Z</time>
      </trkpt>
      <trkpt lat="43.05454" lon="1.7469">
        <ele>291</ele>
        <time>2019-01-16T13:17:10Z</time>
      </trkpt>
      <trkpt lat="43.05453" lon="1.74704">
        <ele>291.1</ele>
        <time>2019-01-16T13:17:12Z</time>
      </trkpt>
      <trkpt lat="43.05453" lon="1.7472">
        <ele>291.1</ele>
        <time>2019-01-16T13:17:14Z</time>
      </trkpt>
      <trkpt lat="43.05451" lon="1.74736">
        <ele>290.9</ele>
        <time>2019-01-16T13:17:17Z</time>
      </trkpt>
      <trkpt lat="43.05449" lon="1.74749">
        <ele>290.6</ele>
        <time>2019-01-16T13:17:19Z</time>
      </trkpt>
      <trkpt lat="43.05446" lon="1.74765">
        <ele>290.7</ele>
        <time>2019-01-16T13:17:21Z</time>
      </trkpt>
      <trkpt lat="43.05442" lon="1.74783">
        <ele>291.1</ele>
        <time>2019-01-16T13:17:24Z</time>
      </trkpt>
      <trkpt lat="43.05438" lon="1.748">
        <ele>291.5</ele>
        <time>2019-01-16T13:17:27Z</time>
      </trkpt>
      <trkpt lat="43.05435" lon="1.74813">
        <ele>291.9</ele>
        <time>2019-01-16T13:17:29Z</time>
      </trkpt>
      <trkpt lat="43.05432" lon="1.74827">
        <ele>292.1</ele>
        <time>2019-01-16T13:17:32Z</time>
      </trkpt>
      <trkpt lat="43.05421" lon="1.74825">
        <ele>292.7</ele>
        <time>2019-01-16T13:17:39Z</time>
      </trkpt>
      <trkpt lat="43.05412" lon="1.74818">
        <ele>293.3</ele>
        <time>2019-01-16T13:17:43Z</time>
      </trkpt>
      <trkpt lat="43.05403" lon="1.74812">
        <ele>294.1</ele>
        <time>2019-01-16T13:17:47Z</time>
      </trkpt>
      <trkpt lat="43.05394" lon="1.74807">
        <ele>295</ele>
        <time>2019-01-16T13:17:51Z</time>
      </trkpt>
      <trkpt lat="43.05386" lon="1.748">
        <ele>296</ele>
        <time>2019-01-16T13:17:55Z</time>
      </trkpt>
      <trkpt lat="43.05377" lon="1.74792">
        <ele>297</ele>
        <time>2019-01-16T13:17:59Z</time>
      </trkpt>
      <trkpt lat="43.05368" lon="1.74786">
        <ele>297.9</ele>
        <time>2019-01-16T13:18:03Z</time>
      </trkpt>
      <trkpt lat="43.05358" lon="1.74777">
        <ele>298.9</ele>
        <time>2019-01-16T13:18:07Z</time>
      </trkpt>
      <trkpt lat="43.05351" lon="1.7477">
        <ele>299.6</ele>
        <time>2019-01-16T13:18:10Z</time>
      </trkpt>
      <trkpt lat="43.05343" lon="1.74764">
        <ele>300.3</ele>
        <time>2019-01-16T13:18:13Z</time>
      </trkpt>
      <trkpt lat="43.05335" lon="1.74758">
        <ele>301</ele>
        <time>2019-01-16T13:18:16Z</time>
      </trkpt>
      <trkpt lat="43.05327" lon="1.74752">
        <ele>301.7</ele>
        <time>2019-01-16T13:18:19Z</time>
      </trkpt>
      <trkpt lat="43.05319" lon="1.74746">
        <ele>302.4</ele>
        <time>2019-01-16T13:18:22Z</time>
      </trkpt>
      <trkpt lat="43.0531" lon="1.74741">
        <ele>303</ele>
        <time>2019-01-16T13:18:25Z</time>
      </trkpt>
      <trkpt lat="43.05301" lon="1.74735">
        <ele>303.7</ele>
        <time>2019-01-16T13:18:28Z</time>
      </trkpt>
      <trkpt lat="43.05292" lon="1.7473">
        <ele>304.3</ele>
        <time>2019-01-16T13:18:31Z</time>
      </trkpt>
      <trkpt lat="43.05283" lon="1.74726">
        <ele>304.9</ele>
        <time>2019-01-16T13:18:34Z</time>
      </trkpt>
      <trkpt lat="43.05274" lon="1.74721">
        <ele>305.6</ele>
        <time>2019-01-16T13:18:37Z</time>
      </trkpt>
      <trkpt lat="43.05266" lon="1.74717">
        <ele>306.2</ele>
        <time>2019-01-16T13:18:40Z</time>
      </trkpt>
      <trkpt lat="43.05256" lon="1.74713">
        <ele>306.9</ele>
        <time>2019-01-16T13:18:43Z</time>
      </trkpt>
      <trkpt lat="43.05246" lon="1.7471">
        <ele>307.7</ele>
        <time>2019-01-16T13:18:47Z</time>
      </trkpt>
      <trkpt lat="43.05236" lon="1.74705">
        <ele>308.5</ele>
        <time>2019-01-16T13:18:51Z</time>
      </trkpt>
      <trkpt lat="43.05226" lon="1.747">
        <ele>309.3</ele>
        <time>2019-01-16T13:18:55Z</time>
      </trkpt>
      <trkpt lat="43.05216" lon="1.74694">
        <ele>310.7</ele>
        <time>2019-01-16T13:18:58Z</time>
      </trkpt>
      <trkpt lat="43.05203" lon="1.74689">
        <ele>313.5</ele>
        <time>2019-01-16T13:19:01Z</time>
      </trkpt>
      <trkpt lat="43.05193" lon="1.74686">
        <ele>314.3</ele>
        <time>2019-01-16T13:19:03Z</time>
      </trkpt>
      <trkpt lat="43.05184" lon="1.74683">
        <ele>314.5</ele>
        <time>2019-01-16T13:19:05Z</time>
      </trkpt>
      <trkpt lat="43.05174" lon="1.74677">
        <ele>314.7</ele>
        <time>2019-01-16T13:19:07Z</time>
      </trkpt>
      <trkpt lat="43.05165" lon="1.74672">
        <ele>315</ele>
        <time>2019-01-16T13:19:09Z</time>
      </trkpt>
      <trkpt lat="43.05156" lon="1.74666">
        <ele>315.5</ele>
        <time>2019-01-16T13:19:11Z</time>
      </trkpt>
      <trkpt lat="43.05146" lon="1.74661">
        <ele>315.9</ele>
        <time>2019-01-16T13:19:13Z</time>
      </trkpt>
      <trkpt lat="43.05136" lon="1.74655">
        <ele>316.3</ele>
        <time>2019-01-16T13:19:15Z</time>
      </trkpt>
      <trkpt lat="43.05125" lon="1.74649">
        <ele>316.2</ele>
        <time>2019-01-16T13:19:17Z</time>
      </trkpt>
      <trkpt lat="43.05115" lon="1.74642">
        <ele>316</ele>
        <time>2019-01-16T13:19:19Z</time>
      </trkpt>
      <trkpt lat="43.05103" lon="1.74635">
        <ele>315.6</ele>
        <time>2019-01-16T13:19:21Z</time>
      </trkpt>
      <trkpt lat="43.05092" lon="1.74628">
        <ele>315.4</ele>
        <time>2019-01-16T13:19:23Z</time>
      </trkpt>
      <trkpt lat="43.05081" lon="1.74619">
        <ele>315.1</ele>
        <time>2019-01-16T13:19:25Z</time>
      </trkpt>
      <trkpt lat="43.05071" lon="1.74607">
        <ele>314.5</ele>
        <time>2019-01-16T13:19:27Z</time>
      </trkpt>
      <trkpt lat="43.05062" lon="1.74594">
        <ele>313.4</ele>
        <time>2019-01-16T13:19:29Z</time>
      </trkpt>
      <trkpt lat="43.0505" lon="1.74582">
        <ele>311.9</ele>
        <time>2019-01-16T13:19:31Z</time>
      </trkpt>
      <trkpt lat="43.05038" lon="1.74575">
        <ele>310.1</ele>
        <time>2019-01-16T13:19:33Z</time>
      </trkpt>
      <trkpt lat="43.05023" lon="1.74579">
        <ele>308.8</ele>
        <time>2019-01-16T13:19:35Z</time>
      </trkpt>
      <trkpt lat="43.05008" lon="1.74587">
        <ele>308</ele>
        <time>2019-01-16T13:19:37Z</time>
      </trkpt>
      <trkpt lat="43.04995" lon="1.74595">
        <ele>307.5</ele>
        <time>2019-01-16T13:19:39Z</time>
      </trkpt>
      <trkpt lat="43.04982" lon="1.74603">
        <ele>307.4</ele>
        <time>2019-01-16T13:19:41Z</time>
      </trkpt>
      <trkpt lat="43.0497" lon="1.74611">
        <ele>307.9</ele>
        <time>2019-01-16T13:19:43Z</time>
      </trkpt>
      <trkpt lat="43.04959" lon="1.74616">
        <ele>308.8</ele>
        <time>2019-01-16T13:19:45Z</time>
      </trkpt>
      <trkpt lat="43.0495" lon="1.74616">
        <ele>310.2</ele>
        <time>2019-01-16T13:19:47Z</time>
      </trkpt>
      <trkpt lat="43.04939" lon="1.74611">
        <ele>311.5</ele>
        <time>2019-01-16T13:19:50Z</time>
      </trkpt>
      <trkpt lat="43.04931" lon="1.74605">
        <ele>311.9</ele>
        <time>2019-01-16T13:19:53Z</time>
      </trkpt>
      <trkpt lat="43.04922" lon="1.74594">
        <ele>312.1</ele>
        <time>2019-01-16T13:19:57Z</time>
      </trkpt>
      <trkpt lat="43.04916" lon="1.74584">
        <ele>312.2</ele>
        <time>2019-01-16T13:20:00Z</time>
      </trkpt>
      <trkpt lat="43.04909" lon="1.74574">
        <ele>312.3</ele>
        <time>2019-01-16T13:20:03Z</time>
      </trkpt>
      <trkpt lat="43.04903" lon="1.74562">
        <ele>312.5</ele>
        <time>2019-01-16T13:20:06Z</time>
      </trkpt>
      <trkpt lat="43.04897" lon="1.74549">
        <ele>312.8</ele>
        <time>2019-01-16T13:20:10Z</time>
      </trkpt>
      <trkpt lat="43.04889" lon="1.74543">
        <ele>313.2</ele>
        <time>2019-01-16T13:20:13Z</time>
      </trkpt>
      <trkpt lat="43.04878" lon="1.74537">
        <ele>315.2</ele>
        <time>2019-01-16T13:20:16Z</time>
      </trkpt>
      <trkpt lat="43.04868" lon="1.74534">
        <ele>316.5</ele>
        <time>2019-01-16T13:20:18Z</time>
      </trkpt>
      <trkpt lat="43.04858" lon="1.74532">
        <ele>317.1</ele>
        <time>2019-01-16T13:20:20Z</time>
      </trkpt>
      <trkpt lat="43.04848" lon="1.74529">
        <ele>317.3</ele>
        <time>2019-01-16T13:20:22Z</time>
      </trkpt>
      <trkpt lat="43.04835" lon="1.74526">
        <ele>317.6</ele>
        <time>2019-01-16T13:20:24Z</time>
      </trkpt>
      <trkpt lat="43.04823" lon="1.74519">
        <ele>318.3</ele>
        <time>2019-01-16T13:20:26Z</time>
      </trkpt>
      <trkpt lat="43.04812" lon="1.74513">
        <ele>319.4</ele>
        <time>2019-01-16T13:20:28Z</time>
      </trkpt>
      <trkpt lat="43.04801" lon="1.74507">
        <ele>320.7</ele>
        <time>2019-01-16T13:20:30Z</time>
      </trkpt>
      <trkpt lat="43.04791" lon="1.74502">
        <ele>321.9</ele>
        <time>2019-01-16T13:20:32Z</time>
      </trkpt>
      <trkpt lat="43.04782" lon="1.74498">
        <ele>322.7</ele>
        <time>2019-01-16T13:20:34Z</time>
      </trkpt>
      <trkpt lat="43.04772" lon="1.74494">
        <ele>323.1</ele>
        <time>2019-01-16T13:20:36Z</time>
      </trkpt>
      <trkpt lat="43.04763" lon="1.74489">
        <ele>323.4</ele>
        <time>2019-01-16T13:20:38Z</time>
      </trkpt>
      <trkpt lat="43.04753" lon="1.74485">
        <ele>323.6</ele>
        <time>2019-01-16T13:20:40Z</time>
      </trkpt>
      <trkpt lat="43.04743" lon="1.7448">
        <ele>323.8</ele>
        <time>2019-01-16T13:20:42Z</time>
      </trkpt>
      <trkpt lat="43.04726" lon="1.74471">
        <ele>324.1</ele>
        <time>2019-01-16T13:20:46Z</time>
      </trkpt>
      <trkpt lat="43.04715" lon="1.74463">
        <ele>324.3</ele>
        <time>2019-01-16T13:20:49Z</time>
      </trkpt>
      <trkpt lat="43.04706" lon="1.74459">
        <ele>324.2</ele>
        <time>2019-01-16T13:20:51Z</time>
      </trkpt>
      <trkpt lat="43.04697" lon="1.74453">
        <ele>323.8</ele>
        <time>2019-01-16T13:20:53Z</time>
      </trkpt>
      <trkpt lat="43.04689" lon="1.74446">
        <ele>323.8</ele>
        <time>2019-01-16T13:20:55Z</time>
      </trkpt>
      <trkpt lat="43.04681" lon="1.74438">
        <ele>324.1</ele>
        <time>2019-01-16T13:20:57Z</time>
      </trkpt>
      <trkpt lat="43.04673" lon="1.7443">
        <ele>324.7</ele>
        <time>2019-01-16T13:20:59Z</time>
      </trkpt>
      <trkpt lat="43.04666" lon="1.74422">
        <ele>325.3</ele>
        <time>2019-01-16T13:21:01Z</time>
      </trkpt>
      <trkpt lat="43.04659" lon="1.74414">
        <ele>325.8</ele>
        <time>2019-01-16T13:21:03Z</time>
      </trkpt>
      <trkpt lat="43.04652" lon="1.74407">
        <ele>326.3</ele>
        <time>2019-01-16T13:21:05Z</time>
      </trkpt>
      <trkpt lat="43.04641" lon="1.74396">
        <ele>327</ele>
        <time>2019-01-16T13:21:08Z</time>
      </trkpt>
      <trkpt lat="43.0463" lon="1.74386">
        <ele>327.7</ele>
        <time>2019-01-16T13:21:11Z</time>
      </trkpt>
      <trkpt lat="43.0462" lon="1.74377">
        <ele>328.1</ele>
        <time>2019-01-16T13:21:14Z</time>
      </trkpt>
      <trkpt lat="43.04613" lon="1.74369">
        <ele>328.2</ele>
        <time>2019-01-16T13:21:17Z</time>
      </trkpt>
      <trkpt lat="43.04604" lon="1.74358">
        <ele>329.4</ele>
        <time>2019-01-16T13:23:35Z</time>
      </trkpt>
      <trkpt lat="43.04599" lon="1.7437">
        <ele>329.8</ele>
        <time>2019-01-16T13:23:40Z</time>
      </trkpt>
      <trkpt lat="43.04596" lon="1.74383">
        <ele>330.2</ele>
        <time>2019-01-16T13:23:44Z</time>
      </trkpt>
      <trkpt lat="43.04591" lon="1.74394">
        <ele>330.5</ele>
        <time>2019-01-16T13:23:47Z</time>
      </trkpt>
      <trkpt lat="43.04584" lon="1.74402">
        <ele>330.8</ele>
        <time>2019-01-16T13:23:51Z</time>
      </trkpt>
      <trkpt lat="43.04576" lon="1.74409">
        <ele>331.1</ele>
        <time>2019-01-16T13:23:54Z</time>
      </trkpt>
      <trkpt lat="43.04567" lon="1.74418">
        <ele>331.3</ele>
        <time>2019-01-16T13:23:58Z</time>
      </trkpt>
      <trkpt lat="43.04559" lon="1.74425">
        <ele>331.4</ele>
        <time>2019-01-16T13:24:02Z</time>
      </trkpt>
      <trkpt lat="43.04552" lon="1.74434">
        <ele>331.6</ele>
        <time>2019-01-16T13:24:06Z</time>
      </trkpt>
      <trkpt lat="43.04543" lon="1.74439">
        <ele>332</ele>
        <time>2019-01-16T13:24:10Z</time>
      </trkpt>
      <trkpt lat="43.04535" lon="1.74447">
        <ele>333.1</ele>
        <time>2019-01-16T13:24:18Z</time>
      </trkpt>
      <trkpt lat="43.04527" lon="1.74453">
        <ele>334</ele>
        <time>2019-01-16T13:24:23Z</time>
      </trkpt>
      <trkpt lat="43.04517" lon="1.74458">
        <ele>334.8</ele>
        <time>2019-01-16T13:24:30Z</time>
      </trkpt>
      <trkpt lat="43.04509" lon="1.74465">
        <ele>334.8</ele>
        <time>2019-01-16T13:24:36Z</time>
      </trkpt>
      <trkpt lat="43.045" lon="1.74469">
        <ele>334.8</ele>
        <time>2019-01-16T13:24:40Z</time>
      </trkpt>
      <trkpt lat="43.04492" lon="1.74476">
        <ele>335</ele>
        <time>2019-01-16T13:24:46Z</time>
      </trkpt>
      <trkpt lat="43.04482" lon="1.74479">
        <ele>335.7</ele>
        <time>2019-01-16T13:24:52Z</time>
      </trkpt>
      <trkpt lat="43.04473" lon="1.74483">
        <ele>336.5</ele>
        <time>2019-01-16T13:24:57Z</time>
      </trkpt>
      <trkpt lat="43.04463" lon="1.74485">
        <ele>337.4</ele>
        <time>2019-01-16T13:25:02Z</time>
      </trkpt>
      <trkpt lat="43.04454" lon="1.74485">
        <ele>338.3</ele>
        <time>2019-01-16T13:25:08Z</time>
      </trkpt>
      <trkpt lat="43.04444" lon="1.74487">
        <ele>338.9</ele>
        <time>2019-01-16T13:25:14Z</time>
      </trkpt>
      <trkpt lat="43.04435" lon="1.74491">
        <ele>339.2</ele>
        <time>2019-01-16T13:25:19Z</time>
      </trkpt>
      <trkpt lat="43.04425" lon="1.74493">
        <ele>339.2</ele>
        <time>2019-01-16T13:25:24Z</time>
      </trkpt>
      <trkpt lat="43.04415" lon="1.74497">
        <ele>338.8</ele>
        <time>2019-01-16T13:25:31Z</time>
      </trkpt>
      <trkpt lat="43.04406" lon="1.74497">
        <ele>338.5</ele>
        <time>2019-01-16T13:25:36Z</time>
      </trkpt>
      <trkpt lat="43.04397" lon="1.74499">
        <ele>338</ele>
        <time>2019-01-16T13:25:41Z</time>
      </trkpt>
      <trkpt lat="43.04387" lon="1.74502">
        <ele>337.2</ele>
        <time>2019-01-16T13:25:47Z</time>
      </trkpt>
      <trkpt lat="43.04379" lon="1.74507">
        <ele>336.7</ele>
        <time>2019-01-16T13:25:53Z</time>
      </trkpt>
      <trkpt lat="43.04371" lon="1.74514">
        <ele>336.3</ele>
        <time>2019-01-16T13:25:57Z</time>
      </trkpt>
      <trkpt lat="43.04363" lon="1.74519">
        <ele>336.2</ele>
        <time>2019-01-16T13:26:01Z</time>
      </trkpt>
      <trkpt lat="43.04353" lon="1.74523">
        <ele>336</ele>
        <time>2019-01-16T13:26:07Z</time>
      </trkpt>
      <trkpt lat="43.04342" lon="1.74528">
        <ele>335.7</ele>
        <time>2019-01-16T13:26:13Z</time>
      </trkpt>
      <trkpt lat="43.04331" lon="1.74534">
        <ele>335.7</ele>
        <time>2019-01-16T13:26:20Z</time>
      </trkpt>
      <trkpt lat="43.04322" lon="1.74539">
        <ele>336.6</ele>
        <time>2019-01-16T13:26:27Z</time>
      </trkpt>
      <trkpt lat="43.04312" lon="1.74542">
        <ele>337.8</ele>
        <time>2019-01-16T13:26:33Z</time>
      </trkpt>
      <trkpt lat="43.04303" lon="1.74544">
        <ele>339.4</ele>
        <time>2019-01-16T13:26:40Z</time>
      </trkpt>
      <trkpt lat="43.04293" lon="1.74546">
        <ele>340.6</ele>
        <time>2019-01-16T13:26:45Z</time>
      </trkpt>
      <trkpt lat="43.04286" lon="1.74555">
        <ele>341.7</ele>
        <time>2019-01-16T13:26:49Z</time>
      </trkpt>
      <trkpt lat="43.04278" lon="1.74562">
        <ele>343.3</ele>
        <time>2019-01-16T13:26:54Z</time>
      </trkpt>
      <trkpt lat="43.04268" lon="1.74564">
        <ele>345.6</ele>
        <time>2019-01-16T13:27:01Z</time>
      </trkpt>
      <trkpt lat="43.0426" lon="1.7457">
        <ele>346.9</ele>
        <time>2019-01-16T13:27:05Z</time>
      </trkpt>
      <trkpt lat="43.04251" lon="1.74573">
        <ele>349.2</ele>
        <time>2019-01-16T13:27:13Z</time>
      </trkpt>
      <trkpt lat="43.04242" lon="1.7458">
        <ele>350.6</ele>
        <time>2019-01-16T13:27:18Z</time>
      </trkpt>
      <trkpt lat="43.04232" lon="1.74584">
        <ele>352.7</ele>
        <time>2019-01-16T13:27:25Z</time>
      </trkpt>
      <trkpt lat="43.04222" lon="1.74587">
        <ele>354.6</ele>
        <time>2019-01-16T13:27:32Z</time>
      </trkpt>
      <trkpt lat="43.04214" lon="1.74594">
        <ele>356.2</ele>
        <time>2019-01-16T13:27:39Z</time>
      </trkpt>
      <trkpt lat="43.04204" lon="1.746">
        <ele>357.6</ele>
        <time>2019-01-16T13:27:46Z</time>
      </trkpt>
      <trkpt lat="43.04195" lon="1.74608">
        <ele>359</ele>
        <time>2019-01-16T13:27:53Z</time>
      </trkpt>
      <trkpt lat="43.04186" lon="1.74613">
        <ele>360.6</ele>
        <time>2019-01-16T13:28:01Z</time>
      </trkpt>
      <trkpt lat="43.04179" lon="1.74623">
        <ele>361.6</ele>
        <time>2019-01-16T13:28:06Z</time>
      </trkpt>
      <trkpt lat="43.04173" lon="1.74635">
        <ele>363.6</ele>
        <time>2019-01-16T13:28:14Z</time>
      </trkpt>
      <trkpt lat="43.04164" lon="1.74642">
        <ele>365.2</ele>
        <time>2019-01-16T13:28:20Z</time>
      </trkpt>
      <trkpt lat="43.04155" lon="1.74647">
        <ele>367.2</ele>
        <time>2019-01-16T13:28:28Z</time>
      </trkpt>
      <trkpt lat="43.04147" lon="1.74655">
        <ele>369</ele>
        <time>2019-01-16T13:28:36Z</time>
      </trkpt>
      <trkpt lat="43.0414" lon="1.74664">
        <ele>370.4</ele>
        <time>2019-01-16T13:28:43Z</time>
      </trkpt>
      <trkpt lat="43.04133" lon="1.74672">
        <ele>372</ele>
        <time>2019-01-16T13:28:51Z</time>
      </trkpt>
      <trkpt lat="43.04129" lon="1.74684">
        <ele>373.6</ele>
        <time>2019-01-16T13:28:58Z</time>
      </trkpt>
      <trkpt lat="43.04125" lon="1.74696">
        <ele>375.5</ele>
        <time>2019-01-16T13:29:05Z</time>
      </trkpt>
      <trkpt lat="43.04124" lon="1.74708">
        <ele>378.1</ele>
        <time>2019-01-16T13:29:13Z</time>
      </trkpt>
      <trkpt lat="43.04124" lon="1.74721">
        <ele>380.8</ele>
        <time>2019-01-16T13:29:21Z</time>
      </trkpt>
      <trkpt lat="43.04133" lon="1.74724">
        <ele>384</ele>
        <time>2019-01-16T13:29:32Z</time>
      </trkpt>
      <trkpt lat="43.04142" lon="1.7472">
        <ele>385.5</ele>
        <time>2019-01-16T13:29:37Z</time>
      </trkpt>
      <trkpt lat="43.04151" lon="1.74715">
        <ele>387.5</ele>
        <time>2019-01-16T13:29:45Z</time>
      </trkpt>
      <trkpt lat="43.04161" lon="1.74711">
        <ele>388.6</ele>
        <time>2019-01-16T13:29:50Z</time>
      </trkpt>
      <trkpt lat="43.04169" lon="1.74706">
        <ele>389.9</ele>
        <time>2019-01-16T13:29:56Z</time>
      </trkpt>
      <trkpt lat="43.04179" lon="1.74705">
        <ele>391</ele>
        <time>2019-01-16T13:30:01Z</time>
      </trkpt>
      <trkpt lat="43.04188" lon="1.74706">
        <ele>391.9</ele>
        <time>2019-01-16T13:30:05Z</time>
      </trkpt>
      <trkpt lat="43.04198" lon="1.74706">
        <ele>392.7</ele>
        <time>2019-01-16T13:30:09Z</time>
      </trkpt>
      <trkpt lat="43.04209" lon="1.74705">
        <ele>393.8</ele>
        <time>2019-01-16T13:30:15Z</time>
      </trkpt>
      <trkpt lat="43.04208" lon="1.74717">
        <ele>396.5</ele>
        <time>2019-01-16T13:30:33Z</time>
      </trkpt>
      <trkpt lat="43.04199" lon="1.74718">
        <ele>398.5</ele>
        <time>2019-01-16T13:30:55Z</time>
      </trkpt>
      <trkpt lat="43.04191" lon="1.74726">
        <ele>399.3</ele>
        <time>2019-01-16T13:31:02Z</time>
      </trkpt>
      <trkpt lat="43.04183" lon="1.74735">
        <ele>400</ele>
        <time>2019-01-16T13:31:09Z</time>
      </trkpt>
      <trkpt lat="43.04176" lon="1.74743">
        <ele>400.6</ele>
        <time>2019-01-16T13:31:17Z</time>
      </trkpt>
      <trkpt lat="43.04169" lon="1.74752">
        <ele>401.2</ele>
        <time>2019-01-16T13:31:24Z</time>
      </trkpt>
      <trkpt lat="43.04162" lon="1.74761">
        <ele>401.9</ele>
        <time>2019-01-16T13:31:32Z</time>
      </trkpt>
      <trkpt lat="43.04155" lon="1.74771">
        <ele>402.5</ele>
        <time>2019-01-16T13:31:41Z</time>
      </trkpt>
      <trkpt lat="43.04149" lon="1.74781">
        <ele>403</ele>
        <time>2019-01-16T13:31:50Z</time>
      </trkpt>
      <trkpt lat="43.04143" lon="1.74792">
        <ele>403.7</ele>
        <time>2019-01-16T13:31:58Z</time>
      </trkpt>
      <trkpt lat="43.04137" lon="1.74803">
        <ele>404.6</ele>
        <time>2019-01-16T13:32:06Z</time>
      </trkpt>
      <trkpt lat="43.04132" lon="1.74815">
        <ele>405.3</ele>
        <time>2019-01-16T13:32:12Z</time>
      </trkpt>
      <trkpt lat="43.04126" lon="1.74824">
        <ele>406.3</ele>
        <time>2019-01-16T13:32:20Z</time>
      </trkpt>
      <trkpt lat="43.04121" lon="1.74836">
        <ele>407.6</ele>
        <time>2019-01-16T13:32:28Z</time>
      </trkpt>
      <trkpt lat="43.04116" lon="1.74846">
        <ele>408.7</ele>
        <time>2019-01-16T13:32:35Z</time>
      </trkpt>
      <trkpt lat="43.04111" lon="1.74858">
        <ele>409.9</ele>
        <time>2019-01-16T13:32:43Z</time>
      </trkpt>
      <trkpt lat="43.04105" lon="1.74868">
        <ele>411.2</ele>
        <time>2019-01-16T13:32:50Z</time>
      </trkpt>
      <trkpt lat="43.04101" lon="1.74879">
        <ele>413</ele>
        <time>2019-01-16T13:32:58Z</time>
      </trkpt>
      <trkpt lat="43.04095" lon="1.74889">
        <ele>414.5</ele>
        <time>2019-01-16T13:33:05Z</time>
      </trkpt>
      <trkpt lat="43.04087" lon="1.74897">
        <ele>416.4</ele>
        <time>2019-01-16T13:33:13Z</time>
      </trkpt>
      <trkpt lat="43.04078" lon="1.749">
        <ele>418.5</ele>
        <time>2019-01-16T13:33:21Z</time>
      </trkpt>
      <trkpt lat="43.04068" lon="1.74903">
        <ele>420</ele>
        <time>2019-01-16T13:33:27Z</time>
      </trkpt>
      <trkpt lat="43.04059" lon="1.74906">
        <ele>421.2</ele>
        <time>2019-01-16T13:33:33Z</time>
      </trkpt>
      <trkpt lat="43.0405" lon="1.74907">
        <ele>422.1</ele>
        <time>2019-01-16T13:33:39Z</time>
      </trkpt>
      <trkpt lat="43.0404" lon="1.74907">
        <ele>423.4</ele>
        <time>2019-01-16T13:33:47Z</time>
      </trkpt>
      <trkpt lat="43.04031" lon="1.74902">
        <ele>425.5</ele>
        <time>2019-01-16T13:33:56Z</time>
      </trkpt>
      <trkpt lat="43.04022" lon="1.74905">
        <ele>433.3</ele>
        <time>2019-01-16T13:35:04Z</time>
      </trkpt>
      <trkpt lat="43.04027" lon="1.74915">
        <ele>438.2</ele>
        <time>2019-01-16T13:35:58Z</time>
      </trkpt>
      <trkpt lat="43.04025" lon="1.74901">
        <ele>441.5</ele>
        <time>2019-01-16T13:36:33Z</time>
      </trkpt>
      <trkpt lat="43.04022" lon="1.74887">
        <ele>442.3</ele>
        <time>2019-01-16T13:36:38Z</time>
      </trkpt>
      <trkpt lat="43.04021" lon="1.74875">
        <ele>443.2</ele>
        <time>2019-01-16T13:36:44Z</time>
      </trkpt>
      <trkpt lat="43.04023" lon="1.7489">
        <ele>443.5</ele>
        <time>2019-01-16T13:37:10Z</time>
      </trkpt>
      <trkpt lat="43.04023" lon="1.74903">
        <ele>442.9</ele>
        <time>2019-01-16T13:37:14Z</time>
      </trkpt>
      <trkpt lat="43.04026" lon="1.74916">
        <ele>441.1</ele>
        <time>2019-01-16T13:37:26Z</time>
      </trkpt>
      <trkpt lat="43.04035" lon="1.74924">
        <ele>440.3</ele>
        <time>2019-01-16T13:37:32Z</time>
      </trkpt>
      <trkpt lat="43.04044" lon="1.74926">
        <ele>440.2</ele>
        <time>2019-01-16T13:37:44Z</time>
      </trkpt>
      <trkpt lat="43.04054" lon="1.74926">
        <ele>440.5</ele>
        <time>2019-01-16T13:37:51Z</time>
      </trkpt>
      <trkpt lat="43.04064" lon="1.74929">
        <ele>440.7</ele>
        <time>2019-01-16T13:37:58Z</time>
      </trkpt>
      <trkpt lat="43.04073" lon="1.74935">
        <ele>440.7</ele>
        <time>2019-01-16T13:38:04Z</time>
      </trkpt>
      <trkpt lat="43.04082" lon="1.74936">
        <ele>440.4</ele>
        <time>2019-01-16T13:38:27Z</time>
      </trkpt>
      <trkpt lat="43.04091" lon="1.74943">
        <ele>440.4</ele>
        <time>2019-01-16T13:38:33Z</time>
      </trkpt>
      <trkpt lat="43.04101" lon="1.74943">
        <ele>440.5</ele>
        <time>2019-01-16T13:38:41Z</time>
      </trkpt>
      <trkpt lat="43.04108" lon="1.74935">
        <ele>440.8</ele>
        <time>2019-01-16T13:38:46Z</time>
      </trkpt>
      <trkpt lat="43.04116" lon="1.74927">
        <ele>441.4</ele>
        <time>2019-01-16T13:38:52Z</time>
      </trkpt>
      <trkpt lat="43.04123" lon="1.74917">
        <ele>442.1</ele>
        <time>2019-01-16T13:38:58Z</time>
      </trkpt>
      <trkpt lat="43.04131" lon="1.74909">
        <ele>443.1</ele>
        <time>2019-01-16T13:39:04Z</time>
      </trkpt>
      <trkpt lat="43.04139" lon="1.74901">
        <ele>444.3</ele>
        <time>2019-01-16T13:39:11Z</time>
      </trkpt>
      <trkpt lat="43.04147" lon="1.74894">
        <ele>445.4</ele>
        <time>2019-01-16T13:39:17Z</time>
      </trkpt>
      <trkpt lat="43.04156" lon="1.74889">
        <ele>446.6</ele>
        <time>2019-01-16T13:39:23Z</time>
      </trkpt>
      <trkpt lat="43.04165" lon="1.74885">
        <ele>447.8</ele>
        <time>2019-01-16T13:39:30Z</time>
      </trkpt>
      <trkpt lat="43.04174" lon="1.74882">
        <ele>448.8</ele>
        <time>2019-01-16T13:39:36Z</time>
      </trkpt>
      <trkpt lat="43.04184" lon="1.74878">
        <ele>450.2</ele>
        <time>2019-01-16T13:39:44Z</time>
      </trkpt>
      <trkpt lat="43.04193" lon="1.74875">
        <ele>451.1</ele>
        <time>2019-01-16T13:39:50Z</time>
      </trkpt>
      <trkpt lat="43.04202" lon="1.74872">
        <ele>452</ele>
        <time>2019-01-16T13:39:56Z</time>
      </trkpt>
      <trkpt lat="43.04211" lon="1.74869">
        <ele>452.7</ele>
        <time>2019-01-16T13:40:01Z</time>
      </trkpt>
      <trkpt lat="43.04222" lon="1.74867">
        <ele>453.6</ele>
        <time>2019-01-16T13:40:08Z</time>
      </trkpt>
      <trkpt lat="43.04231" lon="1.74867">
        <ele>454.4</ele>
        <time>2019-01-16T13:40:15Z</time>
      </trkpt>
      <trkpt lat="43.0424" lon="1.7487">
        <ele>455</ele>
        <time>2019-01-16T13:40:23Z</time>
      </trkpt>
      <trkpt lat="43.04249" lon="1.74872">
        <ele>455.3</ele>
        <time>2019-01-16T13:40:29Z</time>
      </trkpt>
      <trkpt lat="43.04259" lon="1.74876">
        <ele>455.8</ele>
        <time>2019-01-16T13:40:36Z</time>
      </trkpt>
      <trkpt lat="43.04267" lon="1.74885">
        <ele>456.1</ele>
        <time>2019-01-16T13:40:43Z</time>
      </trkpt>
      <trkpt lat="43.04273" lon="1.74894">
        <ele>456.3</ele>
        <time>2019-01-16T13:40:48Z</time>
      </trkpt>
      <trkpt lat="43.04264" lon="1.74897">
        <ele>456.7</ele>
        <time>2019-01-16T13:40:58Z</time>
      </trkpt>
      <trkpt lat="43.04254" lon="1.74896">
        <ele>457.4</ele>
        <time>2019-01-16T13:41:04Z</time>
      </trkpt>
      <trkpt lat="43.04245" lon="1.74896">
        <ele>458.4</ele>
        <time>2019-01-16T13:41:12Z</time>
      </trkpt>
      <trkpt lat="43.04236" lon="1.749">
        <ele>459.5</ele>
        <time>2019-01-16T13:41:22Z</time>
      </trkpt>
      <trkpt lat="43.04228" lon="1.74905">
        <ele>459.9</ele>
        <time>2019-01-16T13:41:30Z</time>
      </trkpt>
      <trkpt lat="43.04219" lon="1.74912">
        <ele>460</ele>
        <time>2019-01-16T13:41:38Z</time>
      </trkpt>
      <trkpt lat="43.0421" lon="1.74918">
        <ele>459.9</ele>
        <time>2019-01-16T13:41:45Z</time>
      </trkpt>
      <trkpt lat="43.04201" lon="1.74926">
        <ele>459.9</ele>
        <time>2019-01-16T13:41:50Z</time>
      </trkpt>
      <trkpt lat="43.04194" lon="1.74935">
        <ele>460.2</ele>
        <time>2019-01-16T13:41:56Z</time>
      </trkpt>
      <trkpt lat="43.04187" lon="1.74945">
        <ele>460.7</ele>
        <time>2019-01-16T13:42:03Z</time>
      </trkpt>
      <trkpt lat="43.04181" lon="1.74955">
        <ele>461.3</ele>
        <time>2019-01-16T13:42:09Z</time>
      </trkpt>
      <trkpt lat="43.04173" lon="1.74965">
        <ele>462.1</ele>
        <time>2019-01-16T13:42:16Z</time>
      </trkpt>
      <trkpt lat="43.04166" lon="1.74974">
        <ele>462.9</ele>
        <time>2019-01-16T13:42:22Z</time>
      </trkpt>
      <trkpt lat="43.04159" lon="1.74982">
        <ele>464</ele>
        <time>2019-01-16T13:42:27Z</time>
      </trkpt>
      <trkpt lat="43.04153" lon="1.74993">
        <ele>465.7</ele>
        <time>2019-01-16T13:42:33Z</time>
      </trkpt>
      <trkpt lat="43.04149" lon="1.75004">
        <ele>467.8</ele>
        <time>2019-01-16T13:42:40Z</time>
      </trkpt>
      <trkpt lat="43.04145" lon="1.75016">
        <ele>470</ele>
        <time>2019-01-16T13:42:47Z</time>
      </trkpt>
      <trkpt lat="43.0414" lon="1.75027">
        <ele>472.2</ele>
        <time>2019-01-16T13:42:55Z</time>
      </trkpt>
      <trkpt lat="43.04132" lon="1.75035">
        <ele>474</ele>
        <time>2019-01-16T13:43:03Z</time>
      </trkpt>
      <trkpt lat="43.04123" lon="1.75041">
        <ele>475.7</ele>
        <time>2019-01-16T13:43:11Z</time>
      </trkpt>
      <trkpt lat="43.04113" lon="1.75045">
        <ele>477.1</ele>
        <time>2019-01-16T13:43:18Z</time>
      </trkpt>
      <trkpt lat="43.04104" lon="1.75049">
        <ele>478.3</ele>
        <time>2019-01-16T13:43:25Z</time>
      </trkpt>
      <trkpt lat="43.04094" lon="1.7505">
        <ele>479.3</ele>
        <time>2019-01-16T13:43:32Z</time>
      </trkpt>
      <trkpt lat="43.04085" lon="1.75054">
        <ele>480.4</ele>
        <time>2019-01-16T13:43:40Z</time>
      </trkpt>
      <trkpt lat="43.04075" lon="1.75056">
        <ele>481.4</ele>
        <time>2019-01-16T13:43:48Z</time>
      </trkpt>
      <trkpt lat="43.04067" lon="1.75064">
        <ele>482.2</ele>
        <time>2019-01-16T13:43:55Z</time>
      </trkpt>
      <trkpt lat="43.04059" lon="1.7507">
        <ele>482.9</ele>
        <time>2019-01-16T13:44:02Z</time>
      </trkpt>
      <trkpt lat="43.04052" lon="1.75077">
        <ele>483.9</ele>
        <time>2019-01-16T13:44:11Z</time>
      </trkpt>
      <trkpt lat="43.04046" lon="1.75086">
        <ele>485</ele>
        <time>2019-01-16T13:44:19Z</time>
      </trkpt>
      <trkpt lat="43.04038" lon="1.75096">
        <ele>486.4</ele>
        <time>2019-01-16T13:44:26Z</time>
      </trkpt>
      <trkpt lat="43.04035" lon="1.75109">
        <ele>488.8</ele>
        <time>2019-01-16T13:44:36Z</time>
      </trkpt>
      <trkpt lat="43.04035" lon="1.75121">
        <ele>490.1</ele>
        <time>2019-01-16T13:44:42Z</time>
      </trkpt>
      <trkpt lat="43.04037" lon="1.75134">
        <ele>491.3</ele>
        <time>2019-01-16T13:44:49Z</time>
      </trkpt>
      <trkpt lat="43.04046" lon="1.75136">
        <ele>493.1</ele>
        <time>2019-01-16T13:44:58Z</time>
      </trkpt>
      <trkpt lat="43.04055" lon="1.75132">
        <ele>494.2</ele>
        <time>2019-01-16T13:45:03Z</time>
      </trkpt>
      <trkpt lat="43.04065" lon="1.75133">
        <ele>495.8</ele>
        <time>2019-01-16T13:45:10Z</time>
      </trkpt>
      <trkpt lat="43.04074" lon="1.7514">
        <ele>497.8</ele>
        <time>2019-01-16T13:45:18Z</time>
      </trkpt>
      <trkpt lat="43.04079" lon="1.75152">
        <ele>498.8</ele>
        <time>2019-01-16T13:45:23Z</time>
      </trkpt>
      <trkpt lat="43.04088" lon="1.75161">
        <ele>499.6</ele>
        <time>2019-01-16T13:45:27Z</time>
      </trkpt>
      <trkpt lat="43.04097" lon="1.7517">
        <ele>500.1</ele>
        <time>2019-01-16T13:45:31Z</time>
      </trkpt>
      <trkpt lat="43.04108" lon="1.75176">
        <ele>503.3</ele>
        <time>2019-01-16T13:45:34Z</time>
      </trkpt>
      <trkpt lat="43.04117" lon="1.75179">
        <ele>504.1</ele>
        <time>2019-01-16T13:45:36Z</time>
      </trkpt>
      <trkpt lat="43.0413" lon="1.75182">
        <ele>504.5</ele>
        <time>2019-01-16T13:45:39Z</time>
      </trkpt>
      <trkpt lat="43.04139" lon="1.75184">
        <ele>505</ele>
        <time>2019-01-16T13:45:42Z</time>
      </trkpt>
      <trkpt lat="43.0415" lon="1.75187">
        <ele>504.8</ele>
        <time>2019-01-16T13:45:49Z</time>
      </trkpt>
      <trkpt lat="43.0416" lon="1.75189">
        <ele>504.2</ele>
        <time>2019-01-16T13:45:53Z</time>
      </trkpt>
      <trkpt lat="43.0417" lon="1.75192">
        <ele>502.8</ele>
        <time>2019-01-16T13:45:58Z</time>
      </trkpt>
      <trkpt lat="43.04178" lon="1.752">
        <ele>497.9</ele>
        <time>2019-01-16T13:46:00Z</time>
      </trkpt>
      <trkpt lat="43.0419" lon="1.75209">
        <ele>492.8</ele>
        <time>2019-01-16T13:46:02Z</time>
      </trkpt>
      <trkpt lat="43.04204" lon="1.75215">
        <ele>489.1</ele>
        <time>2019-01-16T13:46:04Z</time>
      </trkpt>
      <trkpt lat="43.04215" lon="1.7522">
        <ele>486.5</ele>
        <time>2019-01-16T13:46:06Z</time>
      </trkpt>
      <trkpt lat="43.04225" lon="1.75225">
        <ele>484.5</ele>
        <time>2019-01-16T13:46:08Z</time>
      </trkpt>
      <trkpt lat="43.04235" lon="1.7523">
        <ele>483.8</ele>
        <time>2019-01-16T13:46:09Z</time>
      </trkpt>
      <trkpt lat="43.04247" lon="1.75235">
        <ele>483.5</ele>
        <time>2019-01-16T13:46:10Z</time>
      </trkpt>
      <trkpt lat="43.04259" lon="1.7524">
        <ele>483.7</ele>
        <time>2019-01-16T13:46:11Z</time>
      </trkpt>
      <trkpt lat="43.04272" lon="1.7525">
        <ele>483.5</ele>
        <time>2019-01-16T13:46:13Z</time>
      </trkpt>
      <trkpt lat="43.04284" lon="1.75259">
        <ele>482.5</ele>
        <time>2019-01-16T13:46:15Z</time>
      </trkpt>
      <trkpt lat="43.04296" lon="1.75269">
        <ele>481.8</ele>
        <time>2019-01-16T13:46:17Z</time>
      </trkpt>
      <trkpt lat="43.04305" lon="1.75278">
        <ele>481.4</ele>
        <time>2019-01-16T13:46:19Z</time>
      </trkpt>
      <trkpt lat="43.04317" lon="1.75287">
        <ele>481</ele>
        <time>2019-01-16T13:46:21Z</time>
      </trkpt>
      <trkpt lat="43.04329" lon="1.75297">
        <ele>480.4</ele>
        <time>2019-01-16T13:46:23Z</time>
      </trkpt>
      <trkpt lat="43.04337" lon="1.75304">
        <ele>479.9</ele>
        <time>2019-01-16T13:46:25Z</time>
      </trkpt>
      <trkpt lat="43.04346" lon="1.75308">
        <ele>479.8</ele>
        <time>2019-01-16T13:46:28Z</time>
      </trkpt>
      <trkpt lat="43.04355" lon="1.75313">
        <ele>479.6</ele>
        <time>2019-01-16T13:46:32Z</time>
      </trkpt>
      <trkpt lat="43.04366" lon="1.75324">
        <ele>479</ele>
        <time>2019-01-16T13:46:56Z</time>
      </trkpt>
      <trkpt lat="43.04376" lon="1.75331">
        <ele>478.7</ele>
        <time>2019-01-16T13:47:00Z</time>
      </trkpt>
      <trkpt lat="43.04388" lon="1.75339">
        <ele>476.7</ele>
        <time>2019-01-16T13:47:03Z</time>
      </trkpt>
      <trkpt lat="43.04398" lon="1.75349">
        <ele>474</ele>
        <time>2019-01-16T13:47:06Z</time>
      </trkpt>
      <trkpt lat="43.04406" lon="1.75357">
        <ele>472.6</ele>
        <time>2019-01-16T13:47:08Z</time>
      </trkpt>
      <trkpt lat="43.04416" lon="1.75365">
        <ele>470.4</ele>
        <time>2019-01-16T13:47:10Z</time>
      </trkpt>
      <trkpt lat="43.04428" lon="1.75375">
        <ele>468.1</ele>
        <time>2019-01-16T13:47:13Z</time>
      </trkpt>
      <trkpt lat="43.04437" lon="1.75385">
        <ele>467.2</ele>
        <time>2019-01-16T13:47:16Z</time>
      </trkpt>
      <trkpt lat="43.04442" lon="1.754">
        <ele>464.1</ele>
        <time>2019-01-16T13:47:19Z</time>
      </trkpt>
      <trkpt lat="43.04446" lon="1.75412">
        <ele>460.9</ele>
        <time>2019-01-16T13:47:21Z</time>
      </trkpt>
      <trkpt lat="43.04454" lon="1.75427">
        <ele>458.3</ele>
        <time>2019-01-16T13:47:24Z</time>
      </trkpt>
      <trkpt lat="43.04463" lon="1.75429">
        <ele>456.3</ele>
        <time>2019-01-16T13:48:19Z</time>
      </trkpt>
      <trkpt lat="43.04473" lon="1.75437">
        <ele>455.5</ele>
        <time>2019-01-16T13:48:23Z</time>
      </trkpt>
      <trkpt lat="43.04483" lon="1.75444">
        <ele>454.7</ele>
        <time>2019-01-16T13:48:26Z</time>
      </trkpt>
      <trkpt lat="43.04492" lon="1.75457">
        <ele>453.5</ele>
        <time>2019-01-16T13:48:30Z</time>
      </trkpt>
      <trkpt lat="43.04503" lon="1.7546">
        <ele>452.5</ele>
        <time>2019-01-16T13:48:33Z</time>
      </trkpt>
      <trkpt lat="43.04513" lon="1.75464">
        <ele>451.4</ele>
        <time>2019-01-16T13:48:36Z</time>
      </trkpt>
      <trkpt lat="43.04523" lon="1.75468">
        <ele>450.2</ele>
        <time>2019-01-16T13:48:39Z</time>
      </trkpt>
      <trkpt lat="43.04534" lon="1.75473">
        <ele>449</ele>
        <time>2019-01-16T13:48:42Z</time>
      </trkpt>
      <trkpt lat="43.04543" lon="1.75477">
        <ele>447.4</ele>
        <time>2019-01-16T13:48:46Z</time>
      </trkpt>
      <trkpt lat="43.04551" lon="1.75482">
        <ele>446.1</ele>
        <time>2019-01-16T13:48:49Z</time>
      </trkpt>
      <trkpt lat="43.0456" lon="1.75487">
        <ele>444.4</ele>
        <time>2019-01-16T13:48:53Z</time>
      </trkpt>
      <trkpt lat="43.04567" lon="1.75494">
        <ele>442.9</ele>
        <time>2019-01-16T13:48:56Z</time>
      </trkpt>
      <trkpt lat="43.04576" lon="1.75499">
        <ele>441.9</ele>
        <time>2019-01-16T13:48:58Z</time>
      </trkpt>
      <trkpt lat="43.04587" lon="1.75503">
        <ele>440.4</ele>
        <time>2019-01-16T13:49:01Z</time>
      </trkpt>
      <trkpt lat="43.04599" lon="1.75507">
        <ele>432.1</ele>
        <time>2019-01-16T13:49:04Z</time>
      </trkpt>
      <trkpt lat="43.0461" lon="1.75511">
        <ele>427.9</ele>
        <time>2019-01-16T13:49:07Z</time>
      </trkpt>
      <trkpt lat="43.0462" lon="1.75517">
        <ele>424.5</ele>
        <time>2019-01-16T13:49:09Z</time>
      </trkpt>
      <trkpt lat="43.04631" lon="1.75524">
        <ele>421.5</ele>
        <time>2019-01-16T13:49:21Z</time>
      </trkpt>
      <trkpt lat="43.04642" lon="1.75527">
        <ele>421.1</ele>
        <time>2019-01-16T13:49:25Z</time>
      </trkpt>
      <trkpt lat="43.04652" lon="1.75534">
        <ele>419.5</ele>
        <time>2019-01-16T13:49:29Z</time>
      </trkpt>
      <trkpt lat="43.04662" lon="1.75539">
        <ele>417.4</ele>
        <time>2019-01-16T13:49:31Z</time>
      </trkpt>
      <trkpt lat="43.04672" lon="1.75544">
        <ele>416.4</ele>
        <time>2019-01-16T13:49:34Z</time>
      </trkpt>
      <trkpt lat="43.04683" lon="1.7555">
        <ele>415.6</ele>
        <time>2019-01-16T13:49:37Z</time>
      </trkpt>
      <trkpt lat="43.04694" lon="1.75545">
        <ele>412.9</ele>
        <time>2019-01-16T13:49:40Z</time>
      </trkpt>
      <trkpt lat="43.04703" lon="1.7554">
        <ele>410.5</ele>
        <time>2019-01-16T13:49:42Z</time>
      </trkpt>
      <trkpt lat="43.04712" lon="1.75536">
        <ele>409.7</ele>
        <time>2019-01-16T13:49:44Z</time>
      </trkpt>
      <trkpt lat="43.04721" lon="1.75531">
        <ele>409</ele>
        <time>2019-01-16T13:49:46Z</time>
      </trkpt>
      <trkpt lat="43.04732" lon="1.75532">
        <ele>408.3</ele>
        <time>2019-01-16T13:49:49Z</time>
      </trkpt>
      <trkpt lat="43.04742" lon="1.75539">
        <ele>407.7</ele>
        <time>2019-01-16T13:49:52Z</time>
      </trkpt>
      <trkpt lat="43.04751" lon="1.75541">
        <ele>407</ele>
        <time>2019-01-16T13:49:55Z</time>
      </trkpt>
      <trkpt lat="43.04762" lon="1.75536">
        <ele>405.1</ele>
        <time>2019-01-16T13:49:58Z</time>
      </trkpt>
      <trkpt lat="43.04772" lon="1.75527">
        <ele>401.8</ele>
        <time>2019-01-16T13:50:00Z</time>
      </trkpt>
      <trkpt lat="43.04779" lon="1.75515">
        <ele>398.8</ele>
        <time>2019-01-16T13:50:02Z</time>
      </trkpt>
      <trkpt lat="43.04784" lon="1.75501">
        <ele>396.3</ele>
        <time>2019-01-16T13:50:04Z</time>
      </trkpt>
      <trkpt lat="43.04788" lon="1.75489">
        <ele>394.1</ele>
        <time>2019-01-16T13:50:06Z</time>
      </trkpt>
      <trkpt lat="43.0479" lon="1.75476">
        <ele>392</ele>
        <time>2019-01-16T13:50:08Z</time>
      </trkpt>
      <trkpt lat="43.04794" lon="1.75463">
        <ele>390.6</ele>
        <time>2019-01-16T13:50:12Z</time>
      </trkpt>
      <trkpt lat="43.04804" lon="1.75452">
        <ele>389.8</ele>
        <time>2019-01-16T13:50:16Z</time>
      </trkpt>
      <trkpt lat="43.04812" lon="1.75444">
        <ele>387.9</ele>
        <time>2019-01-16T13:50:19Z</time>
      </trkpt>
      <trkpt lat="43.04824" lon="1.75437">
        <ele>384.2</ele>
        <time>2019-01-16T13:50:21Z</time>
      </trkpt>
      <trkpt lat="43.04834" lon="1.75427">
        <ele>381.6</ele>
        <time>2019-01-16T13:50:23Z</time>
      </trkpt>
      <trkpt lat="43.04841" lon="1.75417">
        <ele>380.7</ele>
        <time>2019-01-16T13:50:25Z</time>
      </trkpt>
      <trkpt lat="43.0485" lon="1.75405">
        <ele>378.1</ele>
        <time>2019-01-16T13:50:28Z</time>
      </trkpt>
      <trkpt lat="43.04863" lon="1.75402">
        <ele>376.9</ele>
        <time>2019-01-16T13:50:32Z</time>
      </trkpt>
      <trkpt lat="43.04876" lon="1.75406">
        <ele>375.9</ele>
        <time>2019-01-16T13:50:36Z</time>
      </trkpt>
      <trkpt lat="43.04886" lon="1.7541">
        <ele>375.1</ele>
        <time>2019-01-16T13:50:39Z</time>
      </trkpt>
      <trkpt lat="43.04898" lon="1.75409">
        <ele>374.3</ele>
        <time>2019-01-16T13:50:42Z</time>
      </trkpt>
      <trkpt lat="43.04905" lon="1.75402">
        <ele>373.6</ele>
        <time>2019-01-16T13:50:45Z</time>
      </trkpt>
      <trkpt lat="43.04911" lon="1.75392">
        <ele>372.6</ele>
        <time>2019-01-16T13:50:49Z</time>
      </trkpt>
      <trkpt lat="43.04916" lon="1.75382">
        <ele>371.1</ele>
        <time>2019-01-16T13:50:54Z</time>
      </trkpt>
      <trkpt lat="43.04926" lon="1.75384">
        <ele>368.1</ele>
        <time>2019-01-16T13:51:03Z</time>
      </trkpt>
      <trkpt lat="43.04932" lon="1.75395">
        <ele>365.8</ele>
        <time>2019-01-16T13:51:09Z</time>
      </trkpt>
      <trkpt lat="43.04939" lon="1.75408">
        <ele>364</ele>
        <time>2019-01-16T13:51:13Z</time>
      </trkpt>
      <trkpt lat="43.04945" lon="1.75421">
        <ele>362.6</ele>
        <time>2019-01-16T13:51:16Z</time>
      </trkpt>
      <trkpt lat="43.04948" lon="1.75435">
        <ele>361.4</ele>
        <time>2019-01-16T13:51:19Z</time>
      </trkpt>
      <trkpt lat="43.04953" lon="1.75452">
        <ele>360.2</ele>
        <time>2019-01-16T13:51:22Z</time>
      </trkpt>
      <trkpt lat="43.04955" lon="1.75464">
        <ele>355</ele>
        <time>2019-01-16T13:51:24Z</time>
      </trkpt>
      <trkpt lat="43.04957" lon="1.75477">
        <ele>349.2</ele>
        <time>2019-01-16T13:51:26Z</time>
      </trkpt>
      <trkpt lat="43.04961" lon="1.75493">
        <ele>344.1</ele>
        <time>2019-01-16T13:51:28Z</time>
      </trkpt>
      <trkpt lat="43.04962" lon="1.75508">
        <ele>340.3</ele>
        <time>2019-01-16T13:51:30Z</time>
      </trkpt>
      <trkpt lat="43.04964" lon="1.75523">
        <ele>337.5</ele>
        <time>2019-01-16T13:51:32Z</time>
      </trkpt>
      <trkpt lat="43.04964" lon="1.75535">
        <ele>336</ele>
        <time>2019-01-16T13:51:34Z</time>
      </trkpt>
      <trkpt lat="43.04962" lon="1.75549">
        <ele>334.8</ele>
        <time>2019-01-16T13:51:36Z</time>
      </trkpt>
      <trkpt lat="43.04965" lon="1.75562">
        <ele>333.9</ele>
        <time>2019-01-16T13:51:38Z</time>
      </trkpt>
      <trkpt lat="43.04967" lon="1.75575">
        <ele>333.5</ele>
        <time>2019-01-16T13:51:40Z</time>
      </trkpt>
      <trkpt lat="43.04968" lon="1.75594">
        <ele>333.5</ele>
        <time>2019-01-16T13:51:43Z</time>
      </trkpt>
      <trkpt lat="43.04969" lon="1.75607">
        <ele>333.5</ele>
        <time>2019-01-16T13:51:45Z</time>
      </trkpt>
      <trkpt lat="43.0497" lon="1.7562">
        <ele>333.5</ele>
        <time>2019-01-16T13:51:47Z</time>
      </trkpt>
      <trkpt lat="43.04974" lon="1.75632">
        <ele>333.4</ele>
        <time>2019-01-16T13:51:49Z</time>
      </trkpt>
      <trkpt lat="43.04978" lon="1.75644">
        <ele>333.4</ele>
        <time>2019-01-16T13:51:51Z</time>
      </trkpt>
      <trkpt lat="43.04982" lon="1.75655">
        <ele>333.5</ele>
        <time>2019-01-16T13:51:53Z</time>
      </trkpt>
      <trkpt lat="43.04985" lon="1.75667">
        <ele>333.7</ele>
        <time>2019-01-16T13:51:55Z</time>
      </trkpt>
      <trkpt lat="43.04988" lon="1.75679">
        <ele>333.8</ele>
        <time>2019-01-16T13:51:57Z</time>
      </trkpt>
      <trkpt lat="43.04988" lon="1.75692">
        <ele>333.6</ele>
        <time>2019-01-16T13:51:59Z</time>
      </trkpt>
      <trkpt lat="43.04992" lon="1.75707">
        <ele>333.5</ele>
        <time>2019-01-16T13:52:02Z</time>
      </trkpt>
      <trkpt lat="43.04993" lon="1.75724">
        <ele>333.3</ele>
        <time>2019-01-16T13:52:05Z</time>
      </trkpt>
      <trkpt lat="43.04994" lon="1.75737">
        <ele>333.2</ele>
        <time>2019-01-16T13:52:08Z</time>
      </trkpt>
      <trkpt lat="43.04999" lon="1.75753">
        <ele>332.7</ele>
        <time>2019-01-16T13:52:11Z</time>
      </trkpt>
      <trkpt lat="43.05" lon="1.75766">
        <ele>332.3</ele>
        <time>2019-01-16T13:52:13Z</time>
      </trkpt>
      <trkpt lat="43.05003" lon="1.75779">
        <ele>331.7</ele>
        <time>2019-01-16T13:52:15Z</time>
      </trkpt>
      <trkpt lat="43.05007" lon="1.75792">
        <ele>331.2</ele>
        <time>2019-01-16T13:52:17Z</time>
      </trkpt>
      <trkpt lat="43.05011" lon="1.75805">
        <ele>331.1</ele>
        <time>2019-01-16T13:52:19Z</time>
      </trkpt>
      <trkpt lat="43.05016" lon="1.75823">
        <ele>330.6</ele>
        <time>2019-01-16T13:52:22Z</time>
      </trkpt>
      <trkpt lat="43.05019" lon="1.75838">
        <ele>329.6</ele>
        <time>2019-01-16T13:52:24Z</time>
      </trkpt>
      <trkpt lat="43.05023" lon="1.75851">
        <ele>327.8</ele>
        <time>2019-01-16T13:52:26Z</time>
      </trkpt>
      <trkpt lat="43.05027" lon="1.75865">
        <ele>325.7</ele>
        <time>2019-01-16T13:52:28Z</time>
      </trkpt>
      <trkpt lat="43.05029" lon="1.75882">
        <ele>323.9</ele>
        <time>2019-01-16T13:52:30Z</time>
      </trkpt>
      <trkpt lat="43.05028" lon="1.75895">
        <ele>322.4</ele>
        <time>2019-01-16T13:52:32Z</time>
      </trkpt>
      <trkpt lat="43.05021" lon="1.75905">
        <ele>321.4</ele>
        <time>2019-01-16T13:52:34Z</time>
      </trkpt>
      <trkpt lat="43.05014" lon="1.75912">
        <ele>320.8</ele>
        <time>2019-01-16T13:52:36Z</time>
      </trkpt>
      <trkpt lat="43.05003" lon="1.75917">
        <ele>319.9</ele>
        <time>2019-01-16T13:52:39Z</time>
      </trkpt>
      <trkpt lat="43.0499" lon="1.75919">
        <ele>318.2</ele>
        <time>2019-01-16T13:52:42Z</time>
      </trkpt>
      <trkpt lat="43.04979" lon="1.75923">
        <ele>316.9</ele>
        <time>2019-01-16T13:52:44Z</time>
      </trkpt>
      <trkpt lat="43.04968" lon="1.75932">
        <ele>315.8</ele>
        <time>2019-01-16T13:52:46Z</time>
      </trkpt>
      <trkpt lat="43.04956" lon="1.75939">
        <ele>314.8</ele>
        <time>2019-01-16T13:52:48Z</time>
      </trkpt>
      <trkpt lat="43.04942" lon="1.7594">
        <ele>313.8</ele>
        <time>2019-01-16T13:52:50Z</time>
      </trkpt>
      <trkpt lat="43.0493" lon="1.75941">
        <ele>312.9</ele>
        <time>2019-01-16T13:52:52Z</time>
      </trkpt>
      <trkpt lat="43.04921" lon="1.7595">
        <ele>312.4</ele>
        <time>2019-01-16T13:52:55Z</time>
      </trkpt>
      <trkpt lat="43.04915" lon="1.75961">
        <ele>312.1</ele>
        <time>2019-01-16T13:53:01Z</time>
      </trkpt>
      <trkpt lat="43.04904" lon="1.75965">
        <ele>312</ele>
        <time>2019-01-16T13:53:05Z</time>
      </trkpt>
      <trkpt lat="43.04892" lon="1.7597">
        <ele>311.4</ele>
        <time>2019-01-16T13:53:08Z</time>
      </trkpt>
      <trkpt lat="43.04884" lon="1.75976">
        <ele>310.6</ele>
        <time>2019-01-16T13:53:10Z</time>
      </trkpt>
      <trkpt lat="43.04876" lon="1.75983">
        <ele>309.9</ele>
        <time>2019-01-16T13:53:12Z</time>
      </trkpt>
      <trkpt lat="43.04868" lon="1.7599">
        <ele>309.3</ele>
        <time>2019-01-16T13:53:14Z</time>
      </trkpt>
      <trkpt lat="43.04857" lon="1.76001">
        <ele>308.6</ele>
        <time>2019-01-16T13:53:17Z</time>
      </trkpt>
      <trkpt lat="43.04847" lon="1.76011">
        <ele>308.2</ele>
        <time>2019-01-16T13:53:20Z</time>
      </trkpt>
      <trkpt lat="43.04837" lon="1.76022">
        <ele>307.9</ele>
        <time>2019-01-16T13:53:23Z</time>
      </trkpt>
      <trkpt lat="43.04826" lon="1.76032">
        <ele>307.7</ele>
        <time>2019-01-16T13:53:26Z</time>
      </trkpt>
      <trkpt lat="43.04776" lon="1.76086">
        <ele>303.7</ele>
        <time>2019-01-20T21:49:45Z</time>
      </trkpt>
      <trkpt lat="43.04735" lon="1.76154">
        <ele>304.1</ele>
        <time>2019-09-04T17:12:03Z</time>
      </trkpt>
      <trkpt lat="43.04706" lon="1.76216">
        <ele>303</ele>
        <time>2071-02-08T14:18:56Z</time>
      </trkpt>
      <trkpt lat="43.04673" lon="1.76278">
        <ele>303.3</ele>
        <time>2019-01-16T11:06:13Z</time>
      </trkpt>
      <trkpt lat="43.04673" lon="1.76278">
        <ele>303.3</ele>
        <time>2019-01-16T13:57:55Z</time>
      </trkpt>
      <trkpt lat="43.04673" lon="1.76279">
        <ele>303.2</ele>
        <time>2019-01-16T13:57:56Z</time>
      </trkpt>
      <trkpt lat="43.04663" lon="1.76278">
        <ele>303.6</ele>
        <time>2019-01-16T14:00:20Z</time>
      </trkpt>
      <trkpt lat="43.04655" lon="1.76269">
        <ele>303.5</ele>
        <time>2019-01-16T14:00:25Z</time>
      </trkpt>
      <trkpt lat="43.04649" lon="1.76259">
        <ele>303.7</ele>
        <time>2019-01-16T14:00:29Z</time>
      </trkpt>
      <trkpt lat="43.04643" lon="1.76248">
        <ele>303.9</ele>
        <time>2019-01-16T14:00:33Z</time>
      </trkpt>
      <trkpt lat="43.04636" lon="1.76235">
        <ele>304.1</ele>
        <time>2019-01-16T14:00:37Z</time>
      </trkpt>
      <trkpt lat="43.04628" lon="1.76223">
        <ele>304.4</ele>
        <time>2019-01-16T14:00:41Z</time>
      </trkpt>
      <trkpt lat="43.0462" lon="1.76214">
        <ele>304.8</ele>
        <time>2019-01-16T14:00:45Z</time>
      </trkpt>
      <trkpt lat="43.04613" lon="1.76204">
        <ele>305.2</ele>
        <time>2019-01-16T14:00:49Z</time>
      </trkpt>
      <trkpt lat="43.04606" lon="1.76194">
        <ele>305.8</ele>
        <time>2019-01-16T14:00:53Z</time>
      </trkpt>
      <trkpt lat="43.04597" lon="1.76184">
        <ele>306.4</ele>
        <time>2019-01-16T14:00:58Z</time>
      </trkpt>
      <trkpt lat="43.04587" lon="1.76178">
        <ele>306.7</ele>
        <time>2019-01-16T14:01:02Z</time>
      </trkpt>
      <trkpt lat="43.0458" lon="1.76171">
        <ele>306.9</ele>
        <time>2019-01-16T14:01:05Z</time>
      </trkpt>
      <trkpt lat="43.0457" lon="1.76165">
        <ele>307.1</ele>
        <time>2019-01-16T14:01:08Z</time>
      </trkpt>
      <trkpt lat="43.04561" lon="1.76157">
        <ele>307.3</ele>
        <time>2019-01-16T14:01:11Z</time>
      </trkpt>
      <trkpt lat="43.04554" lon="1.76149">
        <ele>307.5</ele>
        <time>2019-01-16T14:01:14Z</time>
      </trkpt>
      <trkpt lat="43.04546" lon="1.7614">
        <ele>307.8</ele>
        <time>2019-01-16T14:01:18Z</time>
      </trkpt>
      <trkpt lat="43.0454" lon="1.7613">
        <ele>308.2</ele>
        <time>2019-01-16T14:01:22Z</time>
      </trkpt>
      <trkpt lat="43.04534" lon="1.76116">
        <ele>308.6</ele>
        <time>2019-01-16T14:01:26Z</time>
      </trkpt>
      <trkpt lat="43.04527" lon="1.76104">
        <ele>309.1</ele>
        <time>2019-01-16T14:01:30Z</time>
      </trkpt>
      <trkpt lat="43.04522" lon="1.76093">
        <ele>309.3</ele>
        <time>2019-01-16T14:01:33Z</time>
      </trkpt>
      <trkpt lat="43.04517" lon="1.76081">
        <ele>309.6</ele>
        <time>2019-01-16T14:01:36Z</time>
      </trkpt>
      <trkpt lat="43.04512" lon="1.7607">
        <ele>309.8</ele>
        <time>2019-01-16T14:01:39Z</time>
      </trkpt>
      <trkpt lat="43.04506" lon="1.7606">
        <ele>310</ele>
        <time>2019-01-16T14:01:42Z</time>
      </trkpt>
      <trkpt lat="43.04501" lon="1.76048">
        <ele>310.1</ele>
        <time>2019-01-16T14:01:46Z</time>
      </trkpt>
      <trkpt lat="43.04496" lon="1.76035">
        <ele>310.3</ele>
        <time>2019-01-16T14:01:50Z</time>
      </trkpt>
      <trkpt lat="43.0449" lon="1.76023">
        <ele>310.5</ele>
        <time>2019-01-16T14:01:54Z</time>
      </trkpt>
      <trkpt lat="43.04482" lon="1.76014">
        <ele>310.6</ele>
        <time>2019-01-16T14:01:57Z</time>
      </trkpt>
      <trkpt lat="43.04474" lon="1.76007">
        <ele>310.7</ele>
        <time>2019-01-16T14:02:00Z</time>
      </trkpt>
      <trkpt lat="43.04465" lon="1.76001">
        <ele>310.7</ele>
        <time>2019-01-16T14:02:03Z</time>
      </trkpt>
      <trkpt lat="43.04455" lon="1.75995">
        <ele>310.4</ele>
        <time>2019-01-16T14:02:07Z</time>
      </trkpt>
      <trkpt lat="43.04444" lon="1.75991">
        <ele>309.8</ele>
        <time>2019-01-16T14:02:11Z</time>
      </trkpt>
      <trkpt lat="43.04433" lon="1.75988">
        <ele>309.1</ele>
        <time>2019-01-16T14:02:14Z</time>
      </trkpt>
      <trkpt lat="43.04422" lon="1.75985">
        <ele>308.2</ele>
        <time>2019-01-16T14:02:17Z</time>
      </trkpt>
      <trkpt lat="43.04412" lon="1.75982">
        <ele>307.3</ele>
        <time>2019-01-16T14:02:20Z</time>
      </trkpt>
      <trkpt lat="43.04403" lon="1.75978">
        <ele>306.4</ele>
        <time>2019-01-16T14:02:23Z</time>
      </trkpt>
      <trkpt lat="43.04393" lon="1.75973">
        <ele>305.4</ele>
        <time>2019-01-16T14:02:26Z</time>
      </trkpt>
      <trkpt lat="43.04383" lon="1.75968">
        <ele>304.4</ele>
        <time>2019-01-16T14:02:29Z</time>
      </trkpt>
      <trkpt lat="43.04374" lon="1.75963">
        <ele>303.5</ele>
        <time>2019-01-16T14:02:32Z</time>
      </trkpt>
      <trkpt lat="43.04364" lon="1.75958">
        <ele>302.6</ele>
        <time>2019-01-16T14:02:35Z</time>
      </trkpt>
      <trkpt lat="43.04354" lon="1.75953">
        <ele>301.8</ele>
        <time>2019-01-16T14:02:38Z</time>
      </trkpt>
      <trkpt lat="43.04344" lon="1.75947">
        <ele>301</ele>
        <time>2019-01-16T14:02:41Z</time>
      </trkpt>
      <trkpt lat="43.04333" lon="1.75941">
        <ele>300.4</ele>
        <time>2019-01-16T14:02:44Z</time>
      </trkpt>
      <trkpt lat="43.04324" lon="1.75938">
        <ele>299.7</ele>
        <time>2019-01-16T14:02:49Z</time>
      </trkpt>
      <trkpt lat="43.04315" lon="1.75935">
        <ele>299.1</ele>
        <time>2019-01-16T14:02:56Z</time>
      </trkpt>
      <trkpt lat="43.04305" lon="1.75933">
        <ele>299.1</ele>
        <time>2019-01-16T14:02:59Z</time>
      </trkpt>
      <trkpt lat="43.04295" lon="1.75931">
        <ele>299.2</ele>
        <time>2019-01-16T14:03:02Z</time>
      </trkpt>
      <trkpt lat="43.04285" lon="1.75929">
        <ele>299.5</ele>
        <time>2019-01-16T14:03:05Z</time>
      </trkpt>
      <trkpt lat="43.04276" lon="1.75927">
        <ele>299.9</ele>
        <time>2019-01-16T14:03:08Z</time>
      </trkpt>
      <trkpt lat="43.04264" lon="1.75926">
        <ele>300.5</ele>
        <time>2019-01-16T14:03:12Z</time>
      </trkpt>
      <trkpt lat="43.04255" lon="1.75925">
        <ele>301.1</ele>
        <time>2019-01-16T14:03:15Z</time>
      </trkpt>
      <trkpt lat="43.04245" lon="1.75922">
        <ele>301.7</ele>
        <time>2019-01-16T14:03:18Z</time>
      </trkpt>
      <trkpt lat="43.04235" lon="1.7592">
        <ele>302.3</ele>
        <time>2019-01-16T14:03:21Z</time>
      </trkpt>
      <trkpt lat="43.04225" lon="1.7592">
        <ele>303</ele>
        <time>2019-01-16T14:03:24Z</time>
      </trkpt>
      <trkpt lat="43.04214" lon="1.7592">
        <ele>303.8</ele>
        <time>2019-01-16T14:03:27Z</time>
      </trkpt>
      <trkpt lat="43.04205" lon="1.75924">
        <ele>304.5</ele>
        <time>2019-01-16T14:03:30Z</time>
      </trkpt>
      <trkpt lat="43.04196" lon="1.7593">
        <ele>305.3</ele>
        <time>2019-01-16T14:03:33Z</time>
      </trkpt>
      <trkpt lat="43.04188" lon="1.75935">
        <ele>306.1</ele>
        <time>2019-01-16T14:03:36Z</time>
      </trkpt>
      <trkpt lat="43.04179" lon="1.75937">
        <ele>307</ele>
        <time>2019-01-16T14:03:39Z</time>
      </trkpt>
      <trkpt lat="43.04167" lon="1.75937">
        <ele>308</ele>
        <time>2019-01-16T14:03:43Z</time>
      </trkpt>
      <trkpt lat="43.04157" lon="1.75937">
        <ele>308.8</ele>
        <time>2019-01-16T14:03:46Z</time>
      </trkpt>
      <trkpt lat="43.04148" lon="1.75936">
        <ele>309.6</ele>
        <time>2019-01-16T14:03:49Z</time>
      </trkpt>
      <trkpt lat="43.04138" lon="1.75933">
        <ele>310.3</ele>
        <time>2019-01-16T14:03:52Z</time>
      </trkpt>
      <trkpt lat="43.04127" lon="1.7593">
        <ele>311</ele>
        <time>2019-01-16T14:03:55Z</time>
      </trkpt>
      <trkpt lat="43.04116" lon="1.75925">
        <ele>311.8</ele>
        <time>2019-01-16T14:03:58Z</time>
      </trkpt>
      <trkpt lat="43.04105" lon="1.75917">
        <ele>314.2</ele>
        <time>2019-01-16T14:04:01Z</time>
      </trkpt>
      <trkpt lat="43.04095" lon="1.75907">
        <ele>317.9</ele>
        <time>2019-01-16T14:04:04Z</time>
      </trkpt>
      <trkpt lat="43.04084" lon="1.75901">
        <ele>320.8</ele>
        <time>2019-01-16T14:04:07Z</time>
      </trkpt>
      <trkpt lat="43.04073" lon="1.75898">
        <ele>321.7</ele>
        <time>2019-01-16T14:04:10Z</time>
      </trkpt>
      <trkpt lat="43.04061" lon="1.75898">
        <ele>322</ele>
        <time>2019-01-16T14:04:13Z</time>
      </trkpt>
      <trkpt lat="43.04051" lon="1.75898">
        <ele>322.2</ele>
        <time>2019-01-16T14:04:16Z</time>
      </trkpt>
      <trkpt lat="43.04039" lon="1.759">
        <ele>322.4</ele>
        <time>2019-01-16T14:04:19Z</time>
      </trkpt>
      <trkpt lat="43.04027" lon="1.75901">
        <ele>322.6</ele>
        <time>2019-01-16T14:04:22Z</time>
      </trkpt>
      <trkpt lat="43.04015" lon="1.75904">
        <ele>322.8</ele>
        <time>2019-01-16T14:04:25Z</time>
      </trkpt>
      <trkpt lat="43.04005" lon="1.75907">
        <ele>323.2</ele>
        <time>2019-01-16T14:04:28Z</time>
      </trkpt>
      <trkpt lat="43.03995" lon="1.75909">
        <ele>323.5</ele>
        <time>2019-01-16T14:04:31Z</time>
      </trkpt>
      <trkpt lat="43.03985" lon="1.75908">
        <ele>323.9</ele>
        <time>2019-01-16T14:04:34Z</time>
      </trkpt>
      <trkpt lat="43.03976" lon="1.75907">
        <ele>324.3</ele>
        <time>2019-01-16T14:04:37Z</time>
      </trkpt>
      <trkpt lat="43.03966" lon="1.75905">
        <ele>324.8</ele>
        <time>2019-01-16T14:04:40Z</time>
      </trkpt>
      <trkpt lat="43.03955" lon="1.75901">
        <ele>325.5</ele>
        <time>2019-01-16T14:04:44Z</time>
      </trkpt>
      <trkpt lat="43.03944" lon="1.75895">
        <ele>326.3</ele>
        <time>2019-01-16T14:04:48Z</time>
      </trkpt>
      <trkpt lat="43.03936" lon="1.75891">
        <ele>326.9</ele>
        <time>2019-01-16T14:04:51Z</time>
      </trkpt>
      <trkpt lat="43.03925" lon="1.75885">
        <ele>327.5</ele>
        <time>2019-01-16T14:04:54Z</time>
      </trkpt>
      <trkpt lat="43.03916" lon="1.75879">
        <ele>328.1</ele>
        <time>2019-01-16T14:04:57Z</time>
      </trkpt>
      <trkpt lat="43.03908" lon="1.75874">
        <ele>328.6</ele>
        <time>2019-01-16T14:05:00Z</time>
      </trkpt>
      <trkpt lat="43.03897" lon="1.75871">
        <ele>329.1</ele>
        <time>2019-01-16T14:05:03Z</time>
      </trkpt>
      <trkpt lat="43.03888" lon="1.75872">
        <ele>329.4</ele>
        <time>2019-01-16T14:05:06Z</time>
      </trkpt>
      <trkpt lat="43.03879" lon="1.75875">
        <ele>329.6</ele>
        <time>2019-01-16T14:05:09Z</time>
      </trkpt>
      <trkpt lat="43.03868" lon="1.75881">
        <ele>329.8</ele>
        <time>2019-01-16T14:05:13Z</time>
      </trkpt>
      <trkpt lat="43.03858" lon="1.75884">
        <ele>330.2</ele>
        <time>2019-01-16T14:05:17Z</time>
      </trkpt>
      <trkpt lat="43.03848" lon="1.75885">
        <ele>330.5</ele>
        <time>2019-01-16T14:05:21Z</time>
      </trkpt>
      <trkpt lat="43.03839" lon="1.75886">
        <ele>330.8</ele>
        <time>2019-01-16T14:05:25Z</time>
      </trkpt>
      <trkpt lat="43.03828" lon="1.75887">
        <ele>331.1</ele>
        <time>2019-01-16T14:05:29Z</time>
      </trkpt>
      <trkpt lat="43.03817" lon="1.75887">
        <ele>331.4</ele>
        <time>2019-01-16T14:05:33Z</time>
      </trkpt>
      <trkpt lat="43.03807" lon="1.75888">
        <ele>331.6</ele>
        <time>2019-01-16T14:05:36Z</time>
      </trkpt>
      <trkpt lat="43.03796" lon="1.75889">
        <ele>331.8</ele>
        <time>2019-01-16T14:05:39Z</time>
      </trkpt>
      <trkpt lat="43.03785" lon="1.7589">
        <ele>332</ele>
        <time>2019-01-16T14:05:42Z</time>
      </trkpt>
      <trkpt lat="43.03775" lon="1.7589">
        <ele>332.3</ele>
        <time>2019-01-16T14:05:45Z</time>
      </trkpt>
      <trkpt lat="43.03765" lon="1.75899">
        <ele>332.7</ele>
        <time>2019-01-16T14:05:50Z</time>
      </trkpt>
      <trkpt lat="43.03759" lon="1.7591">
        <ele>333</ele>
        <time>2019-01-16T14:05:54Z</time>
      </trkpt>
      <trkpt lat="43.03754" lon="1.75921">
        <ele>333.3</ele>
        <time>2019-01-16T14:05:58Z</time>
      </trkpt>
      <trkpt lat="43.03748" lon="1.75932">
        <ele>333.6</ele>
        <time>2019-01-16T14:06:01Z</time>
      </trkpt>
      <trkpt lat="43.03742" lon="1.75946">
        <ele>334.1</ele>
        <time>2019-01-16T14:06:05Z</time>
      </trkpt>
      <trkpt lat="43.03734" lon="1.75954">
        <ele>334.6</ele>
        <time>2019-01-16T14:06:08Z</time>
      </trkpt>
      <trkpt lat="43.03724" lon="1.75959">
        <ele>335.1</ele>
        <time>2019-01-16T14:06:12Z</time>
      </trkpt>
      <trkpt lat="43.03716" lon="1.75966">
        <ele>335.6</ele>
        <time>2019-01-16T14:06:15Z</time>
      </trkpt>
      <trkpt lat="43.0371" lon="1.75976">
        <ele>336</ele>
        <time>2019-01-16T14:06:18Z</time>
      </trkpt>
      <trkpt lat="43.03704" lon="1.75988">
        <ele>336.5</ele>
        <time>2019-01-16T14:06:21Z</time>
      </trkpt>
      <trkpt lat="43.03699" lon="1.75998">
        <ele>337</ele>
        <time>2019-01-16T14:06:24Z</time>
      </trkpt>
      <trkpt lat="43.03694" lon="1.76009">
        <ele>337.6</ele>
        <time>2019-01-16T14:06:27Z</time>
      </trkpt>
      <trkpt lat="43.03689" lon="1.7602">
        <ele>338.4</ele>
        <time>2019-01-16T14:06:31Z</time>
      </trkpt>
      <trkpt lat="43.03685" lon="1.76033">
        <ele>339.3</ele>
        <time>2019-01-16T14:06:35Z</time>
      </trkpt>
      <trkpt lat="43.03683" lon="1.76047">
        <ele>340.2</ele>
        <time>2019-01-16T14:06:39Z</time>
      </trkpt>
      <trkpt lat="43.03679" lon="1.76058">
        <ele>341.8</ele>
        <time>2019-01-16T14:06:45Z</time>
      </trkpt>
      <trkpt lat="43.03674" lon="1.76069">
        <ele>343</ele>
        <time>2019-01-16T14:06:50Z</time>
      </trkpt>
      <trkpt lat="43.03668" lon="1.76081">
        <ele>344.2</ele>
        <time>2019-01-16T14:06:56Z</time>
      </trkpt>
      <trkpt lat="43.03662" lon="1.76091">
        <ele>344.9</ele>
        <time>2019-01-16T14:07:00Z</time>
      </trkpt>
      <trkpt lat="43.03655" lon="1.76103">
        <ele>345.9</ele>
        <time>2019-01-16T14:07:05Z</time>
      </trkpt>
      <trkpt lat="43.03651" lon="1.76116">
        <ele>346.8</ele>
        <time>2019-01-16T14:07:10Z</time>
      </trkpt>
      <trkpt lat="43.03646" lon="1.76129">
        <ele>347.8</ele>
        <time>2019-01-16T14:07:15Z</time>
      </trkpt>
      <trkpt lat="43.0364" lon="1.76142">
        <ele>348.7</ele>
        <time>2019-01-16T14:07:20Z</time>
      </trkpt>
      <trkpt lat="43.03637" lon="1.76156">
        <ele>349.7</ele>
        <time>2019-01-16T14:07:25Z</time>
      </trkpt>
      <trkpt lat="43.03633" lon="1.76169">
        <ele>350.8</ele>
        <time>2019-01-16T14:07:30Z</time>
      </trkpt>
      <trkpt lat="43.03628" lon="1.76181">
        <ele>351.7</ele>
        <time>2019-01-16T14:07:35Z</time>
      </trkpt>
      <trkpt lat="43.03625" lon="1.76193">
        <ele>352.5</ele>
        <time>2019-01-16T14:07:39Z</time>
      </trkpt>
      <trkpt lat="43.03621" lon="1.76206">
        <ele>353.5</ele>
        <time>2019-01-16T14:07:44Z</time>
      </trkpt>
      <trkpt lat="43.03619" lon="1.76219">
        <ele>354.4</ele>
        <time>2019-01-16T14:07:49Z</time>
      </trkpt>
      <trkpt lat="43.03617" lon="1.76234">
        <ele>355.4</ele>
        <time>2019-01-16T14:07:54Z</time>
      </trkpt>
      <trkpt lat="43.03615" lon="1.76248">
        <ele>356.6</ele>
        <time>2019-01-16T14:08:00Z</time>
      </trkpt>
      <trkpt lat="43.03615" lon="1.76263">
        <ele>357.8</ele>
        <time>2019-01-16T14:08:06Z</time>
      </trkpt>
      <trkpt lat="43.03614" lon="1.76277">
        <ele>359</ele>
        <time>2019-01-16T14:08:12Z</time>
      </trkpt>
      <trkpt lat="43.03612" lon="1.7629">
        <ele>360</ele>
        <time>2019-01-16T14:08:18Z</time>
      </trkpt>
      <trkpt lat="43.03612" lon="1.76302">
        <ele>360.8</ele>
        <time>2019-01-16T14:08:23Z</time>
      </trkpt>
      <trkpt lat="43.03609" lon="1.76315">
        <ele>361.5</ele>
        <time>2019-01-16T14:08:29Z</time>
      </trkpt>
      <trkpt lat="43.03606" lon="1.76328">
        <ele>362.2</ele>
        <time>2019-01-16T14:08:35Z</time>
      </trkpt>
      <trkpt lat="43.03606" lon="1.76341">
        <ele>362.7</ele>
        <time>2019-01-16T14:08:41Z</time>
      </trkpt>
      <trkpt lat="43.03603" lon="1.76354">
        <ele>363.2</ele>
        <time>2019-01-16T14:08:47Z</time>
      </trkpt>
      <trkpt lat="43.03603" lon="1.76366">
        <ele>363.7</ele>
        <time>2019-01-16T14:08:53Z</time>
      </trkpt>
      <trkpt lat="43.03603" lon="1.7638">
        <ele>364.3</ele>
        <time>2019-01-16T14:08:59Z</time>
      </trkpt>
      <trkpt lat="43.03601" lon="1.76393">
        <ele>364.9</ele>
        <time>2019-01-16T14:09:05Z</time>
      </trkpt>
      <trkpt lat="43.03597" lon="1.76405">
        <ele>365.4</ele>
        <time>2019-01-16T14:09:12Z</time>
      </trkpt>
      <trkpt lat="43.03596" lon="1.76419">
        <ele>365.8</ele>
        <time>2019-01-16T14:09:18Z</time>
      </trkpt>
      <trkpt lat="43.03597" lon="1.76431">
        <ele>366.2</ele>
        <time>2019-01-16T14:09:23Z</time>
      </trkpt>
      <trkpt lat="43.03598" lon="1.76445">
        <ele>366.8</ele>
        <time>2019-01-16T14:09:30Z</time>
      </trkpt>
      <trkpt lat="43.03601" lon="1.76458">
        <ele>367.7</ele>
        <time>2019-01-16T14:09:37Z</time>
      </trkpt>
      <trkpt lat="43.03602" lon="1.76471">
        <ele>369.1</ele>
        <time>2019-01-16T14:09:45Z</time>
      </trkpt>
      <trkpt lat="43.03603" lon="1.76484">
        <ele>370.5</ele>
        <time>2019-01-16T14:09:53Z</time>
      </trkpt>
      <trkpt lat="43.03603" lon="1.76498">
        <ele>372.5</ele>
        <time>2019-01-16T14:10:03Z</time>
      </trkpt>
      <trkpt lat="43.03601" lon="1.76511">
        <ele>374.3</ele>
        <time>2019-01-16T14:10:12Z</time>
      </trkpt>
      <trkpt lat="43.03599" lon="1.76524">
        <ele>375.9</ele>
        <time>2019-01-16T14:10:22Z</time>
      </trkpt>
      <trkpt lat="43.03599" lon="1.76537">
        <ele>377.1</ele>
        <time>2019-01-16T14:10:31Z</time>
      </trkpt>
      <trkpt lat="43.03598" lon="1.7655">
        <ele>377.9</ele>
        <time>2019-01-16T14:10:38Z</time>
      </trkpt>
      <trkpt lat="43.03598" lon="1.76563">
        <ele>378.7</ele>
        <time>2019-01-16T14:10:45Z</time>
      </trkpt>
      <trkpt lat="43.03596" lon="1.76576">
        <ele>379.8</ele>
        <time>2019-01-16T14:10:54Z</time>
      </trkpt>
      <trkpt lat="43.03596" lon="1.76589">
        <ele>381</ele>
        <time>2019-01-16T14:11:02Z</time>
      </trkpt>
      <trkpt lat="43.03599" lon="1.76602">
        <ele>382.5</ele>
        <time>2019-01-16T14:11:09Z</time>
      </trkpt>
      <trkpt lat="43.03598" lon="1.76615">
        <ele>385.1</ele>
        <time>2019-01-16T14:11:18Z</time>
      </trkpt>
      <trkpt lat="43.03591" lon="1.76624">
        <ele>387.6</ele>
        <time>2019-01-16T14:11:26Z</time>
      </trkpt>
      <trkpt lat="43.03583" lon="1.76632">
        <ele>390</ele>
        <time>2019-01-16T14:11:35Z</time>
      </trkpt>
      <trkpt lat="43.03574" lon="1.76626">
        <ele>394</ele>
        <time>2019-01-16T14:11:49Z</time>
      </trkpt>
      <trkpt lat="43.03569" lon="1.76615">
        <ele>395.9</ele>
        <time>2019-01-16T14:11:56Z</time>
      </trkpt>
      <trkpt lat="43.03565" lon="1.76602">
        <ele>397.9</ele>
        <time>2019-01-16T14:12:05Z</time>
      </trkpt>
      <trkpt lat="43.03559" lon="1.76592">
        <ele>398.6</ele>
        <time>2019-01-16T14:12:09Z</time>
      </trkpt>
      <trkpt lat="43.03552" lon="1.76584">
        <ele>399.8</ele>
        <time>2019-01-16T14:12:15Z</time>
      </trkpt>
      <trkpt lat="43.03544" lon="1.76577">
        <ele>401</ele>
        <time>2019-01-16T14:12:20Z</time>
      </trkpt>
      <trkpt lat="43.03539" lon="1.76566">
        <ele>402.9</ele>
        <time>2019-01-16T14:12:28Z</time>
      </trkpt>
      <trkpt lat="43.03537" lon="1.76553">
        <ele>404.1</ele>
        <time>2019-01-16T14:12:33Z</time>
      </trkpt>
      <trkpt lat="43.03534" lon="1.76541">
        <ele>405.8</ele>
        <time>2019-01-16T14:12:39Z</time>
      </trkpt>
      <trkpt lat="43.03532" lon="1.76529">
        <ele>406.8</ele>
        <time>2019-01-16T14:12:43Z</time>
      </trkpt>
      <trkpt lat="43.03528" lon="1.76516">
        <ele>408.1</ele>
        <time>2019-01-16T14:12:48Z</time>
      </trkpt>
      <trkpt lat="43.03525" lon="1.76504">
        <ele>409.2</ele>
        <time>2019-01-16T14:12:53Z</time>
      </trkpt>
      <trkpt lat="43.03522" lon="1.76491">
        <ele>410.7</ele>
        <time>2019-01-16T14:12:59Z</time>
      </trkpt>
      <trkpt lat="43.03518" lon="1.76477">
        <ele>412.1</ele>
        <time>2019-01-16T14:13:05Z</time>
      </trkpt>
      <trkpt lat="43.03515" lon="1.76465">
        <ele>413.2</ele>
        <time>2019-01-16T14:13:10Z</time>
      </trkpt>
      <trkpt lat="43.03511" lon="1.76453">
        <ele>414.5</ele>
        <time>2019-01-16T14:13:16Z</time>
      </trkpt>
      <trkpt lat="43.03506" lon="1.76442">
        <ele>415.5</ele>
        <time>2019-01-16T14:13:21Z</time>
      </trkpt>
      <trkpt lat="43.03502" lon="1.7643">
        <ele>416.4</ele>
        <time>2019-01-16T14:13:27Z</time>
      </trkpt>
      <trkpt lat="43.03498" lon="1.76418">
        <ele>417.1</ele>
        <time>2019-01-16T14:13:38Z</time>
      </trkpt>
      <trkpt lat="43.03493" lon="1.76407">
        <ele>417.1</ele>
        <time>2019-01-16T14:13:46Z</time>
      </trkpt>
      <trkpt lat="43.03489" lon="1.76396">
        <ele>416.9</ele>
        <time>2019-01-16T14:13:53Z</time>
      </trkpt>
      <trkpt lat="43.03486" lon="1.76381">
        <ele>416.8</ele>
        <time>2019-01-16T14:13:58Z</time>
      </trkpt>
      <trkpt lat="43.03482" lon="1.76369">
        <ele>417.4</ele>
        <time>2019-01-16T14:14:15Z</time>
      </trkpt>
      <trkpt lat="43.0348" lon="1.76357">
        <ele>417.9</ele>
        <time>2019-01-16T14:14:19Z</time>
      </trkpt>
      <trkpt lat="43.03476" lon="1.7634">
        <ele>418.4</ele>
        <time>2019-01-16T14:14:23Z</time>
      </trkpt>
      <trkpt lat="43.03473" lon="1.76328">
        <ele>418.6</ele>
        <time>2019-01-16T14:14:26Z</time>
      </trkpt>
      <trkpt lat="43.03468" lon="1.76314">
        <ele>418.7</ele>
        <time>2019-01-16T14:14:29Z</time>
      </trkpt>
      <trkpt lat="43.03465" lon="1.76297">
        <ele>418.8</ele>
        <time>2019-01-16T14:14:32Z</time>
      </trkpt>
      <trkpt lat="43.03462" lon="1.76284">
        <ele>418.9</ele>
        <time>2019-01-16T14:14:34Z</time>
      </trkpt>
      <trkpt lat="43.03458" lon="1.76269">
        <ele>418.8</ele>
        <time>2019-01-16T14:14:37Z</time>
      </trkpt>
      <trkpt lat="43.03455" lon="1.76255">
        <ele>418.7</ele>
        <time>2019-01-16T14:14:39Z</time>
      </trkpt>
      <trkpt lat="43.0345" lon="1.76237">
        <ele>418.7</ele>
        <time>2019-01-16T14:14:42Z</time>
      </trkpt>
      <trkpt lat="43.03448" lon="1.76222">
        <ele>418.7</ele>
        <time>2019-01-16T14:14:44Z</time>
      </trkpt>
      <trkpt lat="43.03447" lon="1.76206">
        <ele>418.8</ele>
        <time>2019-01-16T14:14:47Z</time>
      </trkpt>
      <trkpt lat="43.03446" lon="1.76194">
        <ele>419.4</ele>
        <time>2019-01-16T14:14:57Z</time>
      </trkpt>
      <trkpt lat="43.03448" lon="1.76179">
        <ele>419.8</ele>
        <time>2019-01-16T14:15:02Z</time>
      </trkpt>
      <trkpt lat="43.03444" lon="1.76168">
        <ele>419.9</ele>
        <time>2019-01-16T14:15:05Z</time>
      </trkpt>
      <trkpt lat="43.03438" lon="1.76156">
        <ele>419.3</ele>
        <time>2019-01-16T14:15:08Z</time>
      </trkpt>
      <trkpt lat="43.03433" lon="1.76145">
        <ele>417.5</ele>
        <time>2019-01-16T14:15:10Z</time>
      </trkpt>
      <trkpt lat="43.03428" lon="1.76132">
        <ele>415</ele>
        <time>2019-01-16T14:15:12Z</time>
      </trkpt>
      <trkpt lat="43.03421" lon="1.76121">
        <ele>413.7</ele>
        <time>2019-01-16T14:15:15Z</time>
      </trkpt>
      <trkpt lat="43.03415" lon="1.76107">
        <ele>413</ele>
        <time>2019-01-16T14:15:18Z</time>
      </trkpt>
      <trkpt lat="43.0341" lon="1.7609">
        <ele>411.1</ele>
        <time>2019-01-16T14:15:21Z</time>
      </trkpt>
      <trkpt lat="43.03407" lon="1.76077">
        <ele>408.6</ele>
        <time>2019-01-16T14:15:23Z</time>
      </trkpt>
      <trkpt lat="43.03402" lon="1.76063">
        <ele>407.7</ele>
        <time>2019-01-16T14:15:25Z</time>
      </trkpt>
      <trkpt lat="43.03398" lon="1.76051">
        <ele>407.4</ele>
        <time>2019-01-16T14:15:27Z</time>
      </trkpt>
      <trkpt lat="43.03394" lon="1.7604">
        <ele>407.2</ele>
        <time>2019-01-16T14:15:29Z</time>
      </trkpt>
      <trkpt lat="43.03387" lon="1.76023">
        <ele>407.3</ele>
        <time>2019-01-16T14:15:31Z</time>
      </trkpt>
      <trkpt lat="43.03381" lon="1.76007">
        <ele>407.7</ele>
        <time>2019-01-16T14:15:34Z</time>
      </trkpt>
      <trkpt lat="43.03379" lon="1.75994">
        <ele>408.1</ele>
        <time>2019-01-16T14:15:37Z</time>
      </trkpt>
      <trkpt lat="43.03375" lon="1.7598">
        <ele>408.6</ele>
        <time>2019-01-16T14:15:40Z</time>
      </trkpt>
      <trkpt lat="43.0337" lon="1.75964">
        <ele>409.1</ele>
        <time>2019-01-16T14:15:43Z</time>
      </trkpt>
      <trkpt lat="43.03367" lon="1.75948">
        <ele>409.8</ele>
        <time>2019-01-16T14:15:47Z</time>
      </trkpt>
      <trkpt lat="43.03363" lon="1.75934">
        <ele>410.3</ele>
        <time>2019-01-16T14:15:50Z</time>
      </trkpt>
      <trkpt lat="43.03359" lon="1.75921">
        <ele>410.7</ele>
        <time>2019-01-16T14:15:53Z</time>
      </trkpt>
      <trkpt lat="43.03356" lon="1.75909">
        <ele>411</ele>
        <time>2019-01-16T14:15:55Z</time>
      </trkpt>
      <trkpt lat="43.03353" lon="1.75894">
        <ele>411.4</ele>
        <time>2019-01-16T14:15:58Z</time>
      </trkpt>
      <trkpt lat="43.03354" lon="1.75878">
        <ele>411.8</ele>
        <time>2019-01-16T14:16:01Z</time>
      </trkpt>
      <trkpt lat="43.03354" lon="1.75863">
        <ele>412.2</ele>
        <time>2019-01-16T14:16:04Z</time>
      </trkpt>
      <trkpt lat="43.03352" lon="1.75847">
        <ele>412.5</ele>
        <time>2019-01-16T14:16:07Z</time>
      </trkpt>
      <trkpt lat="43.03349" lon="1.75832">
        <ele>412.9</ele>
        <time>2019-01-16T14:16:10Z</time>
      </trkpt>
      <trkpt lat="43.03348" lon="1.75815">
        <ele>413.4</ele>
        <time>2019-01-16T14:16:13Z</time>
      </trkpt>
      <trkpt lat="43.03346" lon="1.75799">
        <ele>413.8</ele>
        <time>2019-01-16T14:16:16Z</time>
      </trkpt>
      <trkpt lat="43.03344" lon="1.75785">
        <ele>414.1</ele>
        <time>2019-01-16T14:16:18Z</time>
      </trkpt>
      <trkpt lat="43.03344" lon="1.75769">
        <ele>414.6</ele>
        <time>2019-01-16T14:16:21Z</time>
      </trkpt>
      <trkpt lat="43.03343" lon="1.75754">
        <ele>415.1</ele>
        <time>2019-01-16T14:16:24Z</time>
      </trkpt>
      <trkpt lat="43.03343" lon="1.7574">
        <ele>416.2</ele>
        <time>2019-01-16T14:16:30Z</time>
      </trkpt>
      <trkpt lat="43.0334" lon="1.75726">
        <ele>416.8</ele>
        <time>2019-01-16T14:16:34Z</time>
      </trkpt>
      <trkpt lat="43.03335" lon="1.75715">
        <ele>417.1</ele>
        <time>2019-01-16T14:16:38Z</time>
      </trkpt>
      <trkpt lat="43.03332" lon="1.75702">
        <ele>417.2</ele>
        <time>2019-01-16T14:16:41Z</time>
      </trkpt>
      <trkpt lat="43.03324" lon="1.7569">
        <ele>417.2</ele>
        <time>2019-01-16T14:16:44Z</time>
      </trkpt>
      <trkpt lat="43.03318" lon="1.75678">
        <ele>417.3</ele>
        <time>2019-01-16T14:16:47Z</time>
      </trkpt>
      <trkpt lat="43.03313" lon="1.75663">
        <ele>417.5</ele>
        <time>2019-01-16T14:16:51Z</time>
      </trkpt>
      <trkpt lat="43.0331" lon="1.75651">
        <ele>417.9</ele>
        <time>2019-01-16T14:16:56Z</time>
      </trkpt>
      <trkpt lat="43.03306" lon="1.75639">
        <ele>418.7</ele>
        <time>2019-01-16T14:17:02Z</time>
      </trkpt>
      <trkpt lat="43.03301" lon="1.75626">
        <ele>419.3</ele>
        <time>2019-01-16T14:17:07Z</time>
      </trkpt>
      <trkpt lat="43.033" lon="1.75613">
        <ele>419.8</ele>
        <time>2019-01-16T14:17:12Z</time>
      </trkpt>
      <trkpt lat="43.03299" lon="1.75598">
        <ele>420.2</ele>
        <time>2019-01-16T14:17:17Z</time>
      </trkpt>
      <trkpt lat="43.03299" lon="1.75584">
        <ele>420.4</ele>
        <time>2019-01-16T14:17:20Z</time>
      </trkpt>
      <trkpt lat="43.03297" lon="1.75571">
        <ele>420.6</ele>
        <time>2019-01-16T14:17:23Z</time>
      </trkpt>
      <trkpt lat="43.03299" lon="1.75558">
        <ele>421.3</ele>
        <time>2019-01-16T14:17:29Z</time>
      </trkpt>
      <trkpt lat="43.03301" lon="1.75546">
        <ele>422</ele>
        <time>2019-01-16T14:17:36Z</time>
      </trkpt>
      <trkpt lat="43.03302" lon="1.75534">
        <ele>422.3</ele>
        <time>2019-01-16T14:17:41Z</time>
      </trkpt>
      <trkpt lat="43.03301" lon="1.75519">
        <ele>422.3</ele>
        <time>2019-01-16T14:17:45Z</time>
      </trkpt>
      <trkpt lat="43.033" lon="1.75507">
        <ele>422.1</ele>
        <time>2019-01-16T14:17:48Z</time>
      </trkpt>
      <trkpt lat="43.03303" lon="1.75492">
        <ele>421.8</ele>
        <time>2019-01-16T14:17:51Z</time>
      </trkpt>
      <trkpt lat="43.03305" lon="1.75479">
        <ele>421.3</ele>
        <time>2019-01-16T14:17:54Z</time>
      </trkpt>
      <trkpt lat="43.03306" lon="1.75465">
        <ele>420.9</ele>
        <time>2019-01-16T14:17:57Z</time>
      </trkpt>
      <trkpt lat="43.03306" lon="1.7545">
        <ele>420.4</ele>
        <time>2019-01-16T14:18:00Z</time>
      </trkpt>
      <trkpt lat="43.03308" lon="1.75437">
        <ele>420.1</ele>
        <time>2019-01-16T14:18:03Z</time>
      </trkpt>
      <trkpt lat="43.03308" lon="1.75423">
        <ele>419.8</ele>
        <time>2019-01-16T14:18:06Z</time>
      </trkpt>
      <trkpt lat="43.03308" lon="1.75409">
        <ele>419.9</ele>
        <time>2019-01-16T14:18:09Z</time>
      </trkpt>
      <trkpt lat="43.03309" lon="1.75397">
        <ele>420.4</ele>
        <time>2019-01-16T14:18:13Z</time>
      </trkpt>
      <trkpt lat="43.03309" lon="1.75383">
        <ele>421.5</ele>
        <time>2019-01-16T14:18:19Z</time>
      </trkpt>
      <trkpt lat="43.03306" lon="1.7537">
        <ele>422.7</ele>
        <time>2019-01-16T14:18:25Z</time>
      </trkpt>
      <trkpt lat="43.03302" lon="1.75357">
        <ele>423.9</ele>
        <time>2019-01-16T14:18:31Z</time>
      </trkpt>
      <trkpt lat="43.033" lon="1.75344">
        <ele>425.3</ele>
        <time>2019-01-16T14:18:38Z</time>
      </trkpt>
      <trkpt lat="43.03297" lon="1.75331">
        <ele>426.1</ele>
        <time>2019-01-16T14:18:42Z</time>
      </trkpt>
      <trkpt lat="43.03294" lon="1.75317">
        <ele>426.9</ele>
        <time>2019-01-16T14:18:46Z</time>
      </trkpt>
      <trkpt lat="43.03295" lon="1.75304">
        <ele>428</ele>
        <time>2019-01-16T14:18:51Z</time>
      </trkpt>
      <trkpt lat="43.033" lon="1.75292">
        <ele>429.8</ele>
        <time>2019-01-16T14:18:58Z</time>
      </trkpt>
      <trkpt lat="43.03306" lon="1.75282">
        <ele>431.4</ele>
        <time>2019-01-16T14:19:04Z</time>
      </trkpt>
      <trkpt lat="43.03311" lon="1.75269">
        <ele>432.8</ele>
        <time>2019-01-16T14:19:10Z</time>
      </trkpt>
      <trkpt lat="43.03314" lon="1.75257">
        <ele>433.9</ele>
        <time>2019-01-16T14:19:15Z</time>
      </trkpt>
      <trkpt lat="43.03317" lon="1.75244">
        <ele>435.2</ele>
        <time>2019-01-16T14:19:21Z</time>
      </trkpt>
      <trkpt lat="43.03321" lon="1.7523">
        <ele>436.1</ele>
        <time>2019-01-16T14:19:26Z</time>
      </trkpt>
      <trkpt lat="43.03325" lon="1.75217">
        <ele>437</ele>
        <time>2019-01-16T14:19:31Z</time>
      </trkpt>
      <trkpt lat="43.03329" lon="1.75204">
        <ele>437.8</ele>
        <time>2019-01-16T14:19:36Z</time>
      </trkpt>
      <trkpt lat="43.03334" lon="1.75193">
        <ele>438.6</ele>
        <time>2019-01-16T14:19:41Z</time>
      </trkpt>
      <trkpt lat="43.03337" lon="1.75179">
        <ele>439.2</ele>
        <time>2019-01-16T14:19:46Z</time>
      </trkpt>
      <trkpt lat="43.03342" lon="1.75166">
        <ele>439.8</ele>
        <time>2019-01-16T14:19:51Z</time>
      </trkpt>
      <trkpt lat="43.03347" lon="1.75154">
        <ele>440.3</ele>
        <time>2019-01-16T14:19:56Z</time>
      </trkpt>
      <trkpt lat="43.03351" lon="1.75142">
        <ele>440.7</ele>
        <time>2019-01-16T14:20:01Z</time>
      </trkpt>
      <trkpt lat="43.03354" lon="1.7513">
        <ele>441.2</ele>
        <time>2019-01-16T14:20:07Z</time>
      </trkpt>
      <trkpt lat="43.03355" lon="1.75116">
        <ele>442.1</ele>
        <time>2019-01-16T14:20:18Z</time>
      </trkpt>
      <trkpt lat="43.03352" lon="1.75104">
        <ele>443.5</ele>
        <time>2019-01-16T14:20:37Z</time>
      </trkpt>
      <trkpt lat="43.03348" lon="1.75093">
        <ele>444.4</ele>
        <time>2019-01-16T14:20:51Z</time>
      </trkpt>
      <trkpt lat="43.03344" lon="1.75081">
        <ele>445.7</ele>
        <time>2019-01-16T14:21:11Z</time>
      </trkpt>
      <trkpt lat="43.0334" lon="1.75069">
        <ele>446.4</ele>
        <time>2019-01-16T14:21:17Z</time>
      </trkpt>
      <trkpt lat="43.03334" lon="1.7506">
        <ele>446.9</ele>
        <time>2019-01-16T14:21:24Z</time>
      </trkpt>
      <trkpt lat="43.03331" lon="1.75048">
        <ele>447.5</ele>
        <time>2019-01-16T14:21:33Z</time>
      </trkpt>
      <trkpt lat="43.03329" lon="1.75035">
        <ele>448.2</ele>
        <time>2019-01-16T14:21:49Z</time>
      </trkpt>
      <trkpt lat="43.03331" lon="1.75019">
        <ele>448.6</ele>
        <time>2019-01-16T14:21:54Z</time>
      </trkpt>
      <trkpt lat="43.03333" lon="1.75004">
        <ele>448.9</ele>
        <time>2019-01-16T14:21:58Z</time>
      </trkpt>
      <trkpt lat="43.03339" lon="1.74993">
        <ele>449.1</ele>
        <time>2019-01-16T14:22:01Z</time>
      </trkpt>
      <trkpt lat="43.03347" lon="1.7498">
        <ele>449.4</ele>
        <time>2019-01-16T14:22:04Z</time>
      </trkpt>
      <trkpt lat="43.03351" lon="1.7497">
        <ele>449.7</ele>
        <time>2019-01-16T14:22:06Z</time>
      </trkpt>
      <trkpt lat="43.03357" lon="1.74957">
        <ele>449.8</ele>
        <time>2019-01-16T14:22:09Z</time>
      </trkpt>
      <trkpt lat="43.03363" lon="1.74945">
        <ele>449.7</ele>
        <time>2019-01-16T14:22:12Z</time>
      </trkpt>
      <trkpt lat="43.03368" lon="1.74933">
        <ele>449.5</ele>
        <time>2019-01-16T14:22:15Z</time>
      </trkpt>
      <trkpt lat="43.03372" lon="1.74922">
        <ele>449.2</ele>
        <time>2019-01-16T14:22:18Z</time>
      </trkpt>
      <trkpt lat="43.03378" lon="1.7491">
        <ele>448.8</ele>
        <time>2019-01-16T14:22:21Z</time>
      </trkpt>
      <trkpt lat="43.03383" lon="1.74899">
        <ele>448.3</ele>
        <time>2019-01-16T14:22:24Z</time>
      </trkpt>
      <trkpt lat="43.03389" lon="1.74888">
        <ele>447.7</ele>
        <time>2019-01-16T14:22:27Z</time>
      </trkpt>
      <trkpt lat="43.03391" lon="1.74874">
        <ele>447</ele>
        <time>2019-01-16T14:22:30Z</time>
      </trkpt>
      <trkpt lat="43.03392" lon="1.7486">
        <ele>445.8</ele>
        <time>2019-01-16T14:22:34Z</time>
      </trkpt>
      <trkpt lat="43.03395" lon="1.74848">
        <ele>444.9</ele>
        <time>2019-01-16T14:22:37Z</time>
      </trkpt>
      <trkpt lat="43.03398" lon="1.74833">
        <ele>443.5</ele>
        <time>2019-01-16T14:22:41Z</time>
      </trkpt>
      <trkpt lat="43.034" lon="1.74818">
        <ele>442.1</ele>
        <time>2019-01-16T14:22:45Z</time>
      </trkpt>
      <trkpt lat="43.03402" lon="1.74803">
        <ele>440.4</ele>
        <time>2019-01-16T14:22:50Z</time>
      </trkpt>
      <trkpt lat="43.03404" lon="1.7479">
        <ele>438.3</ele>
        <time>2019-01-16T14:22:57Z</time>
      </trkpt>
      <trkpt lat="43.03407" lon="1.74777">
        <ele>436.9</ele>
        <time>2019-01-16T14:23:01Z</time>
      </trkpt>
      <trkpt lat="43.0341" lon="1.74765">
        <ele>435.5</ele>
        <time>2019-01-16T14:23:05Z</time>
      </trkpt>
      <trkpt lat="43.03412" lon="1.74751">
        <ele>433.9</ele>
        <time>2019-01-16T14:23:09Z</time>
      </trkpt>
      <trkpt lat="43.03412" lon="1.74738">
        <ele>432.8</ele>
        <time>2019-01-16T14:23:12Z</time>
      </trkpt>
      <trkpt lat="43.03413" lon="1.74724">
        <ele>431.6</ele>
        <time>2019-01-16T14:23:15Z</time>
      </trkpt>
      <trkpt lat="43.03416" lon="1.74708">
        <ele>430</ele>
        <time>2019-01-16T14:23:19Z</time>
      </trkpt>
      <trkpt lat="43.03419" lon="1.74694">
        <ele>428.5</ele>
        <time>2019-01-16T14:23:23Z</time>
      </trkpt>
      <trkpt lat="43.03421" lon="1.74682">
        <ele>427.4</ele>
        <time>2019-01-16T14:23:26Z</time>
      </trkpt>
      <trkpt lat="43.03424" lon="1.7467">
        <ele>426.4</ele>
        <time>2019-01-16T14:23:29Z</time>
      </trkpt>
      <trkpt lat="43.03427" lon="1.74657">
        <ele>425.4</ele>
        <time>2019-01-16T14:23:32Z</time>
      </trkpt>
      <trkpt lat="43.03429" lon="1.74643">
        <ele>424.5</ele>
        <time>2019-01-16T14:23:35Z</time>
      </trkpt>
      <trkpt lat="43.0343" lon="1.74626">
        <ele>423.6</ele>
        <time>2019-01-16T14:23:38Z</time>
      </trkpt>
      <trkpt lat="43.03433" lon="1.74612">
        <ele>422.8</ele>
        <time>2019-01-16T14:23:41Z</time>
      </trkpt>
      <trkpt lat="43.03437" lon="1.74599">
        <ele>421.8</ele>
        <time>2019-01-16T14:23:45Z</time>
      </trkpt>
      <trkpt lat="43.03439" lon="1.74584">
        <ele>420.7</ele>
        <time>2019-01-16T14:23:49Z</time>
      </trkpt>
      <trkpt lat="43.03438" lon="1.74571">
        <ele>419.9</ele>
        <time>2019-01-16T14:23:52Z</time>
      </trkpt>
      <trkpt lat="43.0344" lon="1.74555">
        <ele>418.7</ele>
        <time>2019-01-16T14:23:56Z</time>
      </trkpt>
      <trkpt lat="43.0344" lon="1.74541">
        <ele>417.7</ele>
        <time>2019-01-16T14:23:59Z</time>
      </trkpt>
      <trkpt lat="43.0344" lon="1.74528">
        <ele>414.5</ele>
        <time>2019-01-16T14:24:02Z</time>
      </trkpt>
      <trkpt lat="43.0344" lon="1.74514">
        <ele>412.2</ele>
        <time>2019-01-16T14:24:05Z</time>
      </trkpt>
      <trkpt lat="43.03436" lon="1.74501">
        <ele>410.8</ele>
        <time>2019-01-16T14:24:08Z</time>
      </trkpt>
      <trkpt lat="43.03433" lon="1.74489">
        <ele>409.6</ele>
        <time>2019-01-16T14:24:11Z</time>
      </trkpt>
      <trkpt lat="43.03431" lon="1.74474">
        <ele>408.3</ele>
        <time>2019-01-16T14:24:14Z</time>
      </trkpt>
      <trkpt lat="43.03429" lon="1.74462">
        <ele>407</ele>
        <time>2019-01-16T14:24:17Z</time>
      </trkpt>
      <trkpt lat="43.03427" lon="1.74448">
        <ele>405.2</ele>
        <time>2019-01-16T14:24:21Z</time>
      </trkpt>
      <trkpt lat="43.03427" lon="1.7443">
        <ele>399</ele>
        <time>2019-01-16T14:24:24Z</time>
      </trkpt>
      <trkpt lat="43.03426" lon="1.74415">
        <ele>393.4</ele>
        <time>2019-01-16T14:24:26Z</time>
      </trkpt>
      <trkpt lat="43.03426" lon="1.744">
        <ele>389.4</ele>
        <time>2019-01-16T14:24:28Z</time>
      </trkpt>
      <trkpt lat="43.03428" lon="1.74385">
        <ele>386.3</ele>
        <time>2019-01-16T14:24:30Z</time>
      </trkpt>
      <trkpt lat="43.03427" lon="1.74367">
        <ele>384.9</ele>
        <time>2019-01-16T14:24:32Z</time>
      </trkpt>
      <trkpt lat="43.03428" lon="1.74352">
        <ele>384.6</ele>
        <time>2019-01-16T14:24:34Z</time>
      </trkpt>
      <trkpt lat="43.03429" lon="1.74338">
        <ele>384.7</ele>
        <time>2019-01-16T14:24:36Z</time>
      </trkpt>
      <trkpt lat="43.0343" lon="1.74323">
        <ele>384.6</ele>
        <time>2019-01-16T14:24:38Z</time>
      </trkpt>
      <trkpt lat="43.03432" lon="1.74309">
        <ele>384.5</ele>
        <time>2019-01-16T14:24:40Z</time>
      </trkpt>
      <trkpt lat="43.03433" lon="1.74292">
        <ele>384.6</ele>
        <time>2019-01-16T14:24:42Z</time>
      </trkpt>
      <trkpt lat="43.03433" lon="1.74276">
        <ele>384.8</ele>
        <time>2019-01-16T14:24:44Z</time>
      </trkpt>
      <trkpt lat="43.03433" lon="1.74262">
        <ele>385</ele>
        <time>2019-01-16T14:24:46Z</time>
      </trkpt>
      <trkpt lat="43.03432" lon="1.74244">
        <ele>385</ele>
        <time>2019-01-16T14:24:49Z</time>
      </trkpt>
      <trkpt lat="43.03432" lon="1.74231">
        <ele>384.8</ele>
        <time>2019-01-16T14:24:51Z</time>
      </trkpt>
      <trkpt lat="43.03432" lon="1.74216">
        <ele>384.7</ele>
        <time>2019-01-16T14:24:54Z</time>
      </trkpt>
      <trkpt lat="43.03436" lon="1.74204">
        <ele>384.5</ele>
        <time>2019-01-16T14:25:21Z</time>
      </trkpt>
      <trkpt lat="43.03424" lon="1.74208">
        <ele>384.8</ele>
        <time>2019-01-16T14:25:41Z</time>
      </trkpt>
      <trkpt lat="43.03414" lon="1.74215">
        <ele>383.9</ele>
        <time>2019-01-16T14:25:43Z</time>
      </trkpt>
      <trkpt lat="43.03404" lon="1.74219">
        <ele>382.8</ele>
        <time>2019-01-16T14:25:45Z</time>
      </trkpt>
      <trkpt lat="43.03394" lon="1.74223">
        <ele>381.9</ele>
        <time>2019-01-16T14:25:47Z</time>
      </trkpt>
      <trkpt lat="43.03382" lon="1.74227">
        <ele>381.5</ele>
        <time>2019-01-16T14:25:50Z</time>
      </trkpt>
      <trkpt lat="43.03372" lon="1.74229">
        <ele>381.1</ele>
        <time>2019-01-16T14:25:53Z</time>
      </trkpt>
      <trkpt lat="43.03362" lon="1.7423">
        <ele>380.7</ele>
        <time>2019-01-16T14:25:57Z</time>
      </trkpt>
      <trkpt lat="43.03353" lon="1.74235">
        <ele>379.9</ele>
        <time>2019-01-16T14:26:03Z</time>
      </trkpt>
      <trkpt lat="43.03344" lon="1.74241">
        <ele>379.5</ele>
        <time>2019-01-16T14:26:08Z</time>
      </trkpt>
      <trkpt lat="43.03335" lon="1.74249">
        <ele>379.1</ele>
        <time>2019-01-16T14:26:13Z</time>
      </trkpt>
      <trkpt lat="43.03329" lon="1.74258">
        <ele>378.9</ele>
        <time>2019-01-16T14:26:17Z</time>
      </trkpt>
      <trkpt lat="43.03321" lon="1.74264">
        <ele>378.7</ele>
        <time>2019-01-16T14:26:21Z</time>
      </trkpt>
      <trkpt lat="43.0331" lon="1.74269">
        <ele>378.6</ele>
        <time>2019-01-16T14:26:26Z</time>
      </trkpt>
      <trkpt lat="43.03302" lon="1.74274">
        <ele>378.4</ele>
        <time>2019-01-16T14:26:30Z</time>
      </trkpt>
      <trkpt lat="43.03292" lon="1.74281">
        <ele>378.4</ele>
        <time>2019-01-16T14:26:34Z</time>
      </trkpt>
      <trkpt lat="43.03283" lon="1.74287">
        <ele>378.5</ele>
        <time>2019-01-16T14:26:38Z</time>
      </trkpt>
      <trkpt lat="43.03275" lon="1.74294">
        <ele>378.6</ele>
        <time>2019-01-16T14:26:42Z</time>
      </trkpt>
      <trkpt lat="43.03266" lon="1.743">
        <ele>378.8</ele>
        <time>2019-01-16T14:26:46Z</time>
      </trkpt>
      <trkpt lat="43.03256" lon="1.74306">
        <ele>379</ele>
        <time>2019-01-16T14:26:50Z</time>
      </trkpt>
      <trkpt lat="43.03248" lon="1.7431">
        <ele>379.2</ele>
        <time>2019-01-16T14:26:53Z</time>
      </trkpt>
      <trkpt lat="43.03237" lon="1.74314">
        <ele>379.4</ele>
        <time>2019-01-16T14:26:57Z</time>
      </trkpt>
      <trkpt lat="43.03226" lon="1.74318">
        <ele>379.6</ele>
        <time>2019-01-16T14:27:01Z</time>
      </trkpt>
      <trkpt lat="43.03216" lon="1.74322">
        <ele>379.7</ele>
        <time>2019-01-16T14:27:05Z</time>
      </trkpt>
      <trkpt lat="43.03207" lon="1.74324">
        <ele>379.7</ele>
        <time>2019-01-16T14:27:08Z</time>
      </trkpt>
      <trkpt lat="43.03194" lon="1.74329">
        <ele>378</ele>
        <time>2019-01-16T14:27:11Z</time>
      </trkpt>
      <trkpt lat="43.03184" lon="1.74331">
        <ele>376.8</ele>
        <time>2019-01-16T14:27:13Z</time>
      </trkpt>
      <trkpt lat="43.03175" lon="1.74335">
        <ele>376</ele>
        <time>2019-01-16T14:27:15Z</time>
      </trkpt>
      <trkpt lat="43.03162" lon="1.74341">
        <ele>375.1</ele>
        <time>2019-01-16T14:27:18Z</time>
      </trkpt>
      <trkpt lat="43.03153" lon="1.74348">
        <ele>374</ele>
        <time>2019-01-16T14:27:20Z</time>
      </trkpt>
      <trkpt lat="43.03142" lon="1.74356">
        <ele>373.4</ele>
        <time>2019-01-16T14:27:23Z</time>
      </trkpt>
      <trkpt lat="43.03132" lon="1.74364">
        <ele>373.1</ele>
        <time>2019-01-16T14:27:27Z</time>
      </trkpt>
      <trkpt lat="43.03123" lon="1.7437">
        <ele>372.9</ele>
        <time>2019-01-16T14:27:31Z</time>
      </trkpt>
      <trkpt lat="43.03112" lon="1.74373">
        <ele>372.8</ele>
        <time>2019-01-16T14:27:34Z</time>
      </trkpt>
      <trkpt lat="43.03102" lon="1.74376">
        <ele>372.5</ele>
        <time>2019-01-16T14:27:37Z</time>
      </trkpt>
      <trkpt lat="43.03092" lon="1.74382">
        <ele>372.1</ele>
        <time>2019-01-16T14:27:40Z</time>
      </trkpt>
      <trkpt lat="43.03081" lon="1.74386">
        <ele>371.6</ele>
        <time>2019-01-16T14:27:43Z</time>
      </trkpt>
      <trkpt lat="43.03074" lon="1.74397">
        <ele>371.3</ele>
        <time>2019-01-16T14:27:46Z</time>
      </trkpt>
      <trkpt lat="43.03069" lon="1.74408">
        <ele>371</ele>
        <time>2019-01-16T14:27:49Z</time>
      </trkpt>
      <trkpt lat="43.03064" lon="1.74419">
        <ele>370.9</ele>
        <time>2019-01-16T14:27:52Z</time>
      </trkpt>
      <trkpt lat="43.03057" lon="1.7443">
        <ele>371.2</ele>
        <time>2019-01-16T14:27:58Z</time>
      </trkpt>
      <trkpt lat="43.03051" lon="1.74439">
        <ele>371.7</ele>
        <time>2019-01-16T14:28:02Z</time>
      </trkpt>
      <trkpt lat="43.03044" lon="1.74449">
        <ele>372.8</ele>
        <time>2019-01-16T14:28:08Z</time>
      </trkpt>
      <trkpt lat="43.03036" lon="1.74456">
        <ele>374.8</ele>
        <time>2019-01-16T14:28:16Z</time>
      </trkpt>
      <trkpt lat="43.03028" lon="1.74462">
        <ele>376.6</ele>
        <time>2019-01-16T14:28:23Z</time>
      </trkpt>
      <trkpt lat="43.03018" lon="1.74467">
        <ele>378.2</ele>
        <time>2019-01-16T14:28:31Z</time>
      </trkpt>
      <trkpt lat="43.03009" lon="1.74475">
        <ele>379.5</ele>
        <time>2019-01-16T14:28:37Z</time>
      </trkpt>
      <trkpt lat="43.03" lon="1.74481">
        <ele>380.4</ele>
        <time>2019-01-16T14:28:41Z</time>
      </trkpt>
      <trkpt lat="43.0299" lon="1.74487">
        <ele>381.5</ele>
        <time>2019-01-16T14:28:47Z</time>
      </trkpt>
      <trkpt lat="43.02982" lon="1.74498">
        <ele>382.7</ele>
        <time>2019-01-16T14:28:53Z</time>
      </trkpt>
      <trkpt lat="43.02975" lon="1.74507">
        <ele>383.9</ele>
        <time>2019-01-16T14:28:58Z</time>
      </trkpt>
      <trkpt lat="43.02967" lon="1.74515">
        <ele>385.2</ele>
        <time>2019-01-16T14:29:03Z</time>
      </trkpt>
      <trkpt lat="43.02957" lon="1.74522">
        <ele>386.4</ele>
        <time>2019-01-16T14:29:08Z</time>
      </trkpt>
      <trkpt lat="43.02948" lon="1.74529">
        <ele>387</ele>
        <time>2019-01-16T14:29:12Z</time>
      </trkpt>
      <trkpt lat="43.02941" lon="1.74537">
        <ele>387.4</ele>
        <time>2019-01-16T14:29:16Z</time>
      </trkpt>
      <trkpt lat="43.02933" lon="1.74547">
        <ele>387.5</ele>
        <time>2019-01-16T14:29:21Z</time>
      </trkpt>
      <trkpt lat="43.02924" lon="1.74555">
        <ele>387.1</ele>
        <time>2019-01-16T14:29:27Z</time>
      </trkpt>
      <trkpt lat="43.02914" lon="1.74551">
        <ele>385.3</ele>
        <time>2019-01-16T14:29:31Z</time>
      </trkpt>
      <trkpt lat="43.02905" lon="1.74548">
        <ele>384</ele>
        <time>2019-01-16T14:29:34Z</time>
      </trkpt>
      <trkpt lat="43.02894" lon="1.74552">
        <ele>383.3</ele>
        <time>2019-01-16T14:29:39Z</time>
      </trkpt>
      <trkpt lat="43.02885" lon="1.74547">
        <ele>382.5</ele>
        <time>2019-01-16T14:29:44Z</time>
      </trkpt>
      <trkpt lat="43.02878" lon="1.74536">
        <ele>381.9</ele>
        <time>2019-01-16T14:29:49Z</time>
      </trkpt>
      <trkpt lat="43.02869" lon="1.74523">
        <ele>381.5</ele>
        <time>2019-01-16T14:29:53Z</time>
      </trkpt>
      <trkpt lat="43.0286" lon="1.74513">
        <ele>381.7</ele>
        <time>2019-01-16T14:29:56Z</time>
      </trkpt>
      <trkpt lat="43.02851" lon="1.74505">
        <ele>382.5</ele>
        <time>2019-01-16T14:30:00Z</time>
      </trkpt>
      <trkpt lat="43.02844" lon="1.74496">
        <ele>384.1</ele>
        <time>2019-01-16T14:30:05Z</time>
      </trkpt>
      <trkpt lat="43.02836" lon="1.74488">
        <ele>386.9</ele>
        <time>2019-01-16T14:30:12Z</time>
      </trkpt>
      <trkpt lat="43.02828" lon="1.74478">
        <ele>390.6</ele>
        <time>2019-01-16T14:30:20Z</time>
      </trkpt>
      <trkpt lat="43.02821" lon="1.74471">
        <ele>393.2</ele>
        <time>2019-01-16T14:30:26Z</time>
      </trkpt>
      <trkpt lat="43.02813" lon="1.74464">
        <ele>395.5</ele>
        <time>2019-01-16T14:30:32Z</time>
      </trkpt>
      <trkpt lat="43.02805" lon="1.74455">
        <ele>398.1</ele>
        <time>2019-01-16T14:30:40Z</time>
      </trkpt>
      <trkpt lat="43.02797" lon="1.74448">
        <ele>400.3</ele>
        <time>2019-01-16T14:30:49Z</time>
      </trkpt>
      <trkpt lat="43.02801" lon="1.7446">
        <ele>402</ele>
        <time>2019-01-16T14:30:57Z</time>
      </trkpt>
      <trkpt lat="43.02808" lon="1.74471">
        <ele>403.5</ele>
        <time>2019-01-16T14:31:04Z</time>
      </trkpt>
      <trkpt lat="43.02813" lon="1.74482">
        <ele>405.1</ele>
        <time>2019-01-16T14:31:12Z</time>
      </trkpt>
      <trkpt lat="43.02818" lon="1.74495">
        <ele>406.8</ele>
        <time>2019-01-16T14:31:20Z</time>
      </trkpt>
      <trkpt lat="43.02821" lon="1.74507">
        <ele>408.4</ele>
        <time>2019-01-16T14:31:28Z</time>
      </trkpt>
      <trkpt lat="43.02822" lon="1.74521">
        <ele>410.2</ele>
        <time>2019-01-16T14:31:37Z</time>
      </trkpt>
      <trkpt lat="43.02821" lon="1.74535">
        <ele>411.7</ele>
        <time>2019-01-16T14:31:45Z</time>
      </trkpt>
      <trkpt lat="43.02817" lon="1.74547">
        <ele>412.9</ele>
        <time>2019-01-16T14:31:53Z</time>
      </trkpt>
      <trkpt lat="43.02814" lon="1.74559">
        <ele>413.7</ele>
        <time>2019-01-16T14:32:01Z</time>
      </trkpt>
      <trkpt lat="43.02809" lon="1.7457">
        <ele>414.3</ele>
        <time>2019-01-16T14:32:08Z</time>
      </trkpt>
      <trkpt lat="43.02803" lon="1.7458">
        <ele>414.8</ele>
        <time>2019-01-16T14:32:15Z</time>
      </trkpt>
      <trkpt lat="43.02797" lon="1.74592">
        <ele>414.9</ele>
        <time>2019-01-16T14:32:22Z</time>
      </trkpt>
      <trkpt lat="43.02792" lon="1.74603">
        <ele>414.7</ele>
        <time>2019-01-16T14:32:29Z</time>
      </trkpt>
      <trkpt lat="43.02788" lon="1.74616">
        <ele>414.6</ele>
        <time>2019-01-16T14:32:36Z</time>
      </trkpt>
      <trkpt lat="43.02785" lon="1.74628">
        <ele>414.6</ele>
        <time>2019-01-16T14:32:43Z</time>
      </trkpt>
      <trkpt lat="43.02781" lon="1.74641">
        <ele>414.7</ele>
        <time>2019-01-16T14:32:50Z</time>
      </trkpt>
      <trkpt lat="43.02777" lon="1.74652">
        <ele>414.9</ele>
        <time>2019-01-16T14:32:56Z</time>
      </trkpt>
      <trkpt lat="43.02772" lon="1.74664">
        <ele>415.1</ele>
        <time>2019-01-16T14:33:03Z</time>
      </trkpt>
      <trkpt lat="43.02768" lon="1.74677">
        <ele>415.5</ele>
        <time>2019-01-16T14:33:10Z</time>
      </trkpt>
      <trkpt lat="43.02763" lon="1.74688">
        <ele>415.9</ele>
        <time>2019-01-16T14:33:15Z</time>
      </trkpt>
      <trkpt lat="43.02759" lon="1.74699">
        <ele>416.4</ele>
        <time>2019-01-16T14:33:21Z</time>
      </trkpt>
      <trkpt lat="43.02755" lon="1.74712">
        <ele>417.2</ele>
        <time>2019-01-16T14:33:28Z</time>
      </trkpt>
      <trkpt lat="43.0275" lon="1.74722">
        <ele>417.9</ele>
        <time>2019-01-16T14:33:34Z</time>
      </trkpt>
      <trkpt lat="43.02745" lon="1.74734">
        <ele>418.9</ele>
        <time>2019-01-16T14:33:41Z</time>
      </trkpt>
      <trkpt lat="43.02738" lon="1.74744">
        <ele>420</ele>
        <time>2019-01-16T14:33:48Z</time>
      </trkpt>
      <trkpt lat="43.02736" lon="1.74759">
        <ele>421</ele>
        <time>2019-01-16T14:33:53Z</time>
      </trkpt>
      <trkpt lat="43.02739" lon="1.74771">
        <ele>421.9</ele>
        <time>2019-01-16T14:33:56Z</time>
      </trkpt>
      <trkpt lat="43.02744" lon="1.74782">
        <ele>423.3</ele>
        <time>2019-01-16T14:34:00Z</time>
      </trkpt>
      <trkpt lat="43.02746" lon="1.74795">
        <ele>425.2</ele>
        <time>2019-01-16T14:34:05Z</time>
      </trkpt>
      <trkpt lat="43.02744" lon="1.74808">
        <ele>427.3</ele>
        <time>2019-01-16T14:34:11Z</time>
      </trkpt>
      <trkpt lat="43.0274" lon="1.7482">
        <ele>429.1</ele>
        <time>2019-01-16T14:34:17Z</time>
      </trkpt>
      <trkpt lat="43.02735" lon="1.7483">
        <ele>430.4</ele>
        <time>2019-01-16T14:34:23Z</time>
      </trkpt>
      <trkpt lat="43.02731" lon="1.74843">
        <ele>431.1</ele>
        <time>2019-01-16T14:34:30Z</time>
      </trkpt>
      <trkpt lat="43.02728" lon="1.74856">
        <ele>431.3</ele>
        <time>2019-01-16T14:34:36Z</time>
      </trkpt>
      <trkpt lat="43.02723" lon="1.74869">
        <ele>431.4</ele>
        <time>2019-01-16T14:34:41Z</time>
      </trkpt>
      <trkpt lat="43.02716" lon="1.74878">
        <ele>431.7</ele>
        <time>2019-01-16T14:34:46Z</time>
      </trkpt>
      <trkpt lat="43.02709" lon="1.74886">
        <ele>431.9</ele>
        <time>2019-01-16T14:34:51Z</time>
      </trkpt>
      <trkpt lat="43.027" lon="1.74895">
        <ele>431.9</ele>
        <time>2019-01-16T14:34:57Z</time>
      </trkpt>
      <trkpt lat="43.02693" lon="1.74903">
        <ele>431.5</ele>
        <time>2019-01-16T14:35:02Z</time>
      </trkpt>
      <trkpt lat="43.02687" lon="1.74916">
        <ele>431</ele>
        <time>2019-01-16T14:35:08Z</time>
      </trkpt>
      <trkpt lat="43.02684" lon="1.7493">
        <ele>431.5</ele>
        <time>2019-01-16T14:35:14Z</time>
      </trkpt>
      <trkpt lat="43.02677" lon="1.74939">
        <ele>432.4</ele>
        <time>2019-01-16T14:35:18Z</time>
      </trkpt>
      <trkpt lat="43.02683" lon="1.74929">
        <ele>439.7</ele>
        <time>2019-01-16T14:35:37Z</time>
      </trkpt>
      <trkpt lat="43.02691" lon="1.74923">
        <ele>442.1</ele>
        <time>2019-01-16T14:35:42Z</time>
      </trkpt>
      <trkpt lat="43.02697" lon="1.74914">
        <ele>444.8</ele>
        <time>2019-01-16T14:35:48Z</time>
      </trkpt>
      <trkpt lat="43.02703" lon="1.74904">
        <ele>446.9</ele>
        <time>2019-01-16T14:35:54Z</time>
      </trkpt>
      <trkpt lat="43.02709" lon="1.74894">
        <ele>448.8</ele>
        <time>2019-01-16T14:35:59Z</time>
      </trkpt>
      <trkpt lat="43.02713" lon="1.74883">
        <ele>451.6</ele>
        <time>2019-01-16T14:36:06Z</time>
      </trkpt>
      <trkpt lat="43.02714" lon="1.74869">
        <ele>453.9</ele>
        <time>2019-01-16T14:36:12Z</time>
      </trkpt>
      <trkpt lat="43.02714" lon="1.74856">
        <ele>455.6</ele>
        <time>2019-01-16T14:36:17Z</time>
      </trkpt>
      <trkpt lat="43.02713" lon="1.74843">
        <ele>457.4</ele>
        <time>2019-01-16T14:36:24Z</time>
      </trkpt>
      <trkpt lat="43.0271" lon="1.74831">
        <ele>458.8</ele>
        <time>2019-01-16T14:36:31Z</time>
      </trkpt>
      <trkpt lat="43.02704" lon="1.7482">
        <ele>459.7</ele>
        <time>2019-01-16T14:36:36Z</time>
      </trkpt>
      <trkpt lat="43.02698" lon="1.74811">
        <ele>460.9</ele>
        <time>2019-01-16T14:36:42Z</time>
      </trkpt>
      <trkpt lat="43.02692" lon="1.74801">
        <ele>462.8</ele>
        <time>2019-01-16T14:36:51Z</time>
      </trkpt>
      <trkpt lat="43.02689" lon="1.74789">
        <ele>463.7</ele>
        <time>2019-01-16T14:36:56Z</time>
      </trkpt>
      <trkpt lat="43.02687" lon="1.74776">
        <ele>464.7</ele>
        <time>2019-01-16T14:37:02Z</time>
      </trkpt>
      <trkpt lat="43.02688" lon="1.74763">
        <ele>466</ele>
        <time>2019-01-16T14:37:08Z</time>
      </trkpt>
      <trkpt lat="43.02694" lon="1.74752">
        <ele>468</ele>
        <time>2019-01-16T14:37:15Z</time>
      </trkpt>
      <trkpt lat="43.02702" lon="1.74741">
        <ele>470.6</ele>
        <time>2019-01-16T14:37:23Z</time>
      </trkpt>
      <trkpt lat="43.02709" lon="1.74731">
        <ele>472.8</ele>
        <time>2019-01-16T14:37:30Z</time>
      </trkpt>
      <trkpt lat="43.02715" lon="1.7472">
        <ele>474.8</ele>
        <time>2019-01-16T14:37:37Z</time>
      </trkpt>
      <trkpt lat="43.0272" lon="1.7471">
        <ele>475.9</ele>
        <time>2019-01-16T14:37:41Z</time>
      </trkpt>
      <trkpt lat="43.02724" lon="1.74699">
        <ele>477.4</ele>
        <time>2019-01-16T14:37:46Z</time>
      </trkpt>
      <trkpt lat="43.02726" lon="1.74686">
        <ele>479.3</ele>
        <time>2019-01-16T14:37:53Z</time>
      </trkpt>
      <trkpt lat="43.02725" lon="1.74672">
        <ele>480.7</ele>
        <time>2019-01-16T14:38:01Z</time>
      </trkpt>
      <trkpt lat="43.02724" lon="1.74657">
        <ele>481.3</ele>
        <time>2019-01-16T14:38:07Z</time>
      </trkpt>
      <trkpt lat="43.02722" lon="1.74643">
        <ele>481.9</ele>
        <time>2019-01-16T14:38:13Z</time>
      </trkpt>
      <trkpt lat="43.0272" lon="1.74631">
        <ele>482.2</ele>
        <time>2019-01-16T14:38:20Z</time>
      </trkpt>
      <trkpt lat="43.02719" lon="1.74617">
        <ele>482.3</ele>
        <time>2019-01-16T14:38:27Z</time>
      </trkpt>
      <trkpt lat="43.0272" lon="1.74603">
        <ele>482.1</ele>
        <time>2019-01-16T14:38:34Z</time>
      </trkpt>
      <trkpt lat="43.02718" lon="1.74591">
        <ele>482</ele>
        <time>2019-01-16T14:38:41Z</time>
      </trkpt>
      <trkpt lat="43.02715" lon="1.74578">
        <ele>481.9</ele>
        <time>2019-01-16T14:38:48Z</time>
      </trkpt>
      <trkpt lat="43.02709" lon="1.74567">
        <ele>481.9</ele>
        <time>2019-01-16T14:38:55Z</time>
      </trkpt>
      <trkpt lat="43.02702" lon="1.74556">
        <ele>482.2</ele>
        <time>2019-01-16T14:39:03Z</time>
      </trkpt>
      <trkpt lat="43.02694" lon="1.74549">
        <ele>482.6</ele>
        <time>2019-01-16T14:39:09Z</time>
      </trkpt>
      <trkpt lat="43.02687" lon="1.7454">
        <ele>483</ele>
        <time>2019-01-16T14:39:16Z</time>
      </trkpt>
      <trkpt lat="43.02679" lon="1.74531">
        <ele>483.7</ele>
        <time>2019-01-16T14:39:24Z</time>
      </trkpt>
      <trkpt lat="43.02671" lon="1.74524">
        <ele>484.5</ele>
        <time>2019-01-16T14:39:32Z</time>
      </trkpt>
      <trkpt lat="43.02661" lon="1.74519">
        <ele>485.2</ele>
        <time>2019-01-16T14:39:40Z</time>
      </trkpt>
      <trkpt lat="43.02652" lon="1.74516">
        <ele>485.7</ele>
        <time>2019-01-16T14:39:47Z</time>
      </trkpt>
      <trkpt lat="43.02642" lon="1.74515">
        <ele>486.5</ele>
        <time>2019-01-16T14:39:54Z</time>
      </trkpt>
      <trkpt lat="43.02632" lon="1.74516">
        <ele>487.6</ele>
        <time>2019-01-16T14:40:03Z</time>
      </trkpt>
      <trkpt lat="43.02622" lon="1.74514">
        <ele>488.5</ele>
        <time>2019-01-16T14:40:09Z</time>
      </trkpt>
      <trkpt lat="43.02613" lon="1.74514">
        <ele>489.7</ele>
        <time>2019-01-16T14:40:17Z</time>
      </trkpt>
      <trkpt lat="43.02604" lon="1.74516">
        <ele>490.2</ele>
        <time>2019-01-16T14:40:21Z</time>
      </trkpt>
      <trkpt lat="43.02595" lon="1.74518">
        <ele>490.8</ele>
        <time>2019-01-16T14:40:29Z</time>
      </trkpt>
      <trkpt lat="43.02586" lon="1.74522">
        <ele>491.2</ele>
        <time>2019-01-16T14:40:35Z</time>
      </trkpt>
      <trkpt lat="43.02577" lon="1.74526">
        <ele>492.1</ele>
        <time>2019-01-16T14:40:43Z</time>
      </trkpt>
      <trkpt lat="43.02567" lon="1.7453">
        <ele>492.5</ele>
        <time>2019-01-16T14:40:48Z</time>
      </trkpt>
      <trkpt lat="43.02557" lon="1.74534">
        <ele>492.7</ele>
        <time>2019-01-16T14:40:53Z</time>
      </trkpt>
      <trkpt lat="43.02548" lon="1.74539">
        <ele>492.9</ele>
        <time>2019-01-16T14:41:01Z</time>
      </trkpt>
      <trkpt lat="43.02538" lon="1.74542">
        <ele>493.1</ele>
        <time>2019-01-16T14:41:06Z</time>
      </trkpt>
      <trkpt lat="43.02528" lon="1.74544">
        <ele>493</ele>
        <time>2019-01-16T14:41:11Z</time>
      </trkpt>
      <trkpt lat="43.0252" lon="1.7455">
        <ele>492.6</ele>
        <time>2019-01-16T14:41:18Z</time>
      </trkpt>
      <trkpt lat="43.02509" lon="1.7455">
        <ele>492.6</ele>
        <time>2019-01-16T14:41:22Z</time>
      </trkpt>
      <trkpt lat="43.02504" lon="1.74539">
        <ele>493.9</ele>
        <time>2019-01-16T14:41:32Z</time>
      </trkpt>
      <trkpt lat="43.02503" lon="1.74526">
        <ele>495.6</ele>
        <time>2019-01-16T14:41:40Z</time>
      </trkpt>
      <trkpt lat="43.02504" lon="1.74513">
        <ele>498</ele>
        <time>2019-01-16T14:41:49Z</time>
      </trkpt>
      <trkpt lat="43.02504" lon="1.745">
        <ele>500</ele>
        <time>2019-01-16T14:41:56Z</time>
      </trkpt>
      <trkpt lat="43.025" lon="1.74488">
        <ele>501.9</ele>
        <time>2019-01-16T14:42:03Z</time>
      </trkpt>
      <trkpt lat="43.02495" lon="1.74477">
        <ele>503.3</ele>
        <time>2019-01-16T14:42:10Z</time>
      </trkpt>
      <trkpt lat="43.02489" lon="1.74466">
        <ele>504.7</ele>
        <time>2019-01-16T14:42:17Z</time>
      </trkpt>
      <trkpt lat="43.02482" lon="1.74458">
        <ele>506.2</ele>
        <time>2019-01-16T14:42:25Z</time>
      </trkpt>
      <trkpt lat="43.02474" lon="1.74452">
        <ele>507.4</ele>
        <time>2019-01-16T14:42:32Z</time>
      </trkpt>
      <trkpt lat="43.02465" lon="1.74447">
        <ele>508.3</ele>
        <time>2019-01-16T14:42:38Z</time>
      </trkpt>
      <trkpt lat="43.02456" lon="1.74445">
        <ele>509.2</ele>
        <time>2019-01-16T14:42:45Z</time>
      </trkpt>
      <trkpt lat="43.02446" lon="1.74442">
        <ele>510</ele>
        <time>2019-01-16T14:42:51Z</time>
      </trkpt>
      <trkpt lat="43.02437" lon="1.74438">
        <ele>510.8</ele>
        <time>2019-01-16T14:42:59Z</time>
      </trkpt>
      <trkpt lat="43.02427" lon="1.74438">
        <ele>511.9</ele>
        <time>2019-01-16T14:43:07Z</time>
      </trkpt>
      <trkpt lat="43.02416" lon="1.74437">
        <ele>513.1</ele>
        <time>2019-01-16T14:43:16Z</time>
      </trkpt>
      <trkpt lat="43.02406" lon="1.74439">
        <ele>514.4</ele>
        <time>2019-01-16T14:43:24Z</time>
      </trkpt>
      <trkpt lat="43.02395" lon="1.74438">
        <ele>515.6</ele>
        <time>2019-01-16T14:43:31Z</time>
      </trkpt>
      <trkpt lat="43.02386" lon="1.74436">
        <ele>516.3</ele>
        <time>2019-01-16T14:43:36Z</time>
      </trkpt>
      <trkpt lat="43.02377" lon="1.74436">
        <ele>517.1</ele>
        <time>2019-01-16T14:43:42Z</time>
      </trkpt>
      <trkpt lat="43.02367" lon="1.74437">
        <ele>518</ele>
        <time>2019-01-16T14:43:48Z</time>
      </trkpt>
      <trkpt lat="43.02359" lon="1.7444">
        <ele>518.8</ele>
        <time>2019-01-16T14:43:56Z</time>
      </trkpt>
      <trkpt lat="43.02349" lon="1.74442">
        <ele>536.2</ele>
        <time>2019-01-16T14:46:24Z</time>
      </trkpt>
      <trkpt lat="43.0234" lon="1.74443">
        <ele>539</ele>
        <time>2019-01-16T14:46:31Z</time>
      </trkpt>
      <trkpt lat="43.02331" lon="1.74447">
        <ele>541.1</ele>
        <time>2019-01-16T14:46:38Z</time>
      </trkpt>
      <trkpt lat="43.02322" lon="1.74452">
        <ele>542.6</ele>
        <time>2019-01-16T14:46:45Z</time>
      </trkpt>
      <trkpt lat="43.02313" lon="1.74459">
        <ele>543.9</ele>
        <time>2019-01-16T14:46:55Z</time>
      </trkpt>
      <trkpt lat="43.02305" lon="1.74465">
        <ele>544.2</ele>
        <time>2019-01-16T14:47:01Z</time>
      </trkpt>
      <trkpt lat="43.02297" lon="1.74471">
        <ele>544.5</ele>
        <time>2019-01-16T14:47:07Z</time>
      </trkpt>
      <trkpt lat="43.02288" lon="1.74481">
        <ele>544.9</ele>
        <time>2019-01-16T14:47:14Z</time>
      </trkpt>
      <trkpt lat="43.02278" lon="1.74485">
        <ele>545.1</ele>
        <time>2019-01-16T14:47:22Z</time>
      </trkpt>
      <trkpt lat="43.0227" lon="1.74491">
        <ele>545.2</ele>
        <time>2019-01-16T14:47:29Z</time>
      </trkpt>
      <trkpt lat="43.02261" lon="1.74496">
        <ele>545.1</ele>
        <time>2019-01-16T14:47:36Z</time>
      </trkpt>
      <trkpt lat="43.02252" lon="1.74499">
        <ele>545</ele>
        <time>2019-01-16T14:47:42Z</time>
      </trkpt>
      <trkpt lat="43.02244" lon="1.74505">
        <ele>544.9</ele>
        <time>2019-01-16T14:47:48Z</time>
      </trkpt>
      <trkpt lat="43.02234" lon="1.74512">
        <ele>544.9</ele>
        <time>2019-01-16T14:47:54Z</time>
      </trkpt>
      <trkpt lat="43.02225" lon="1.74518">
        <ele>544.9</ele>
        <time>2019-01-16T14:48:00Z</time>
      </trkpt>
      <trkpt lat="43.02216" lon="1.74525">
        <ele>544.9</ele>
        <time>2019-01-16T14:48:06Z</time>
      </trkpt>
      <trkpt lat="43.02208" lon="1.74531">
        <ele>544.9</ele>
        <time>2019-01-16T14:48:12Z</time>
      </trkpt>
      <trkpt lat="43.022" lon="1.74539">
        <ele>545</ele>
        <time>2019-01-16T14:48:17Z</time>
      </trkpt>
      <trkpt lat="43.02191" lon="1.74546">
        <ele>545.2</ele>
        <time>2019-01-16T14:48:23Z</time>
      </trkpt>
      <trkpt lat="43.02181" lon="1.74552">
        <ele>545.8</ele>
        <time>2019-01-16T14:48:30Z</time>
      </trkpt>
      <trkpt lat="43.02174" lon="1.7456">
        <ele>546.5</ele>
        <time>2019-01-16T14:48:37Z</time>
      </trkpt>
      <trkpt lat="43.02167" lon="1.74568">
        <ele>547.2</ele>
        <time>2019-01-16T14:48:43Z</time>
      </trkpt>
      <trkpt lat="43.02157" lon="1.74573">
        <ele>547.9</ele>
        <time>2019-01-16T14:48:50Z</time>
      </trkpt>
      <trkpt lat="43.02147" lon="1.74577">
        <ele>548.3</ele>
        <time>2019-01-16T14:48:57Z</time>
      </trkpt>
      <trkpt lat="43.0214" lon="1.74586">
        <ele>548.2</ele>
        <time>2019-01-16T14:49:04Z</time>
      </trkpt>
      <trkpt lat="43.02131" lon="1.74592">
        <ele>547.8</ele>
        <time>2019-01-16T14:49:09Z</time>
      </trkpt>
      <trkpt lat="43.02123" lon="1.74598">
        <ele>547.1</ele>
        <time>2019-01-16T14:49:14Z</time>
      </trkpt>
      <trkpt lat="43.02115" lon="1.74604">
        <ele>546.5</ele>
        <time>2019-01-16T14:49:19Z</time>
      </trkpt>
      <trkpt lat="43.02109" lon="1.74614">
        <ele>545.7</ele>
        <time>2019-01-16T14:49:24Z</time>
      </trkpt>
      <trkpt lat="43.02101" lon="1.74621">
        <ele>545</ele>
        <time>2019-01-16T14:49:30Z</time>
      </trkpt>
      <trkpt lat="43.02093" lon="1.74614">
        <ele>545.4</ele>
        <time>2019-01-16T14:49:40Z</time>
      </trkpt>
      <trkpt lat="43.02092" lon="1.74601">
        <ele>546.4</ele>
        <time>2019-01-16T14:49:46Z</time>
      </trkpt>
      <trkpt lat="43.0209" lon="1.74586">
        <ele>547.9</ele>
        <time>2019-01-16T14:49:52Z</time>
      </trkpt>
      <trkpt lat="43.0209" lon="1.74573">
        <ele>550.1</ele>
        <time>2019-01-16T14:49:59Z</time>
      </trkpt>
      <trkpt lat="43.02089" lon="1.7456">
        <ele>552.7</ele>
        <time>2019-01-16T14:50:07Z</time>
      </trkpt>
      <trkpt lat="43.02087" lon="1.74546">
        <ele>555.6</ele>
        <time>2019-01-16T14:50:17Z</time>
      </trkpt>
      <trkpt lat="43.02078" lon="1.74534">
        <ele>557.1</ele>
        <time>2019-01-16T14:50:22Z</time>
      </trkpt>
      <trkpt lat="43.0207" lon="1.74524">
        <ele>558.1</ele>
        <time>2019-01-16T14:50:25Z</time>
      </trkpt>
      <trkpt lat="43.02063" lon="1.74515">
        <ele>559.6</ele>
        <time>2019-01-16T14:50:29Z</time>
      </trkpt>
      <trkpt lat="43.02055" lon="1.74508">
        <ele>561.3</ele>
        <time>2019-01-16T14:50:34Z</time>
      </trkpt>
      <trkpt lat="43.02047" lon="1.74502">
        <ele>564</ele>
        <time>2019-01-16T14:50:43Z</time>
      </trkpt>
      <trkpt lat="43.02041" lon="1.74492">
        <ele>565.2</ele>
        <time>2019-01-16T14:50:48Z</time>
      </trkpt>
      <trkpt lat="43.02037" lon="1.74481">
        <ele>566.4</ele>
        <time>2019-01-16T14:50:53Z</time>
      </trkpt>
      <trkpt lat="43.02033" lon="1.74467">
        <ele>567.2</ele>
        <time>2019-01-16T14:50:58Z</time>
      </trkpt>
      <trkpt lat="43.02032" lon="1.74454">
        <ele>567.9</ele>
        <time>2019-01-16T14:51:05Z</time>
      </trkpt>
      <trkpt lat="43.02032" lon="1.7444">
        <ele>568.2</ele>
        <time>2019-01-16T14:51:12Z</time>
      </trkpt>
      <trkpt lat="43.02035" lon="1.74428">
        <ele>568.3</ele>
        <time>2019-01-16T14:51:18Z</time>
      </trkpt>
      <trkpt lat="43.0204" lon="1.74417">
        <ele>569</ele>
        <time>2019-01-16T14:51:25Z</time>
      </trkpt>
      <trkpt lat="43.02048" lon="1.74411">
        <ele>569.9</ele>
        <time>2019-01-16T14:51:32Z</time>
      </trkpt>
      <trkpt lat="43.02057" lon="1.74408">
        <ele>570.8</ele>
        <time>2019-01-16T14:51:38Z</time>
      </trkpt>
      <trkpt lat="43.02065" lon="1.744">
        <ele>571.7</ele>
        <time>2019-01-16T14:51:44Z</time>
      </trkpt>
      <trkpt lat="43.02069" lon="1.74386">
        <ele>572.1</ele>
        <time>2019-01-16T14:51:51Z</time>
      </trkpt>
      <trkpt lat="43.02074" lon="1.74374">
        <ele>571.7</ele>
        <time>2019-01-16T14:51:57Z</time>
      </trkpt>
      <trkpt lat="43.0208" lon="1.74363">
        <ele>571.3</ele>
        <time>2019-01-16T14:52:02Z</time>
      </trkpt>
      <trkpt lat="43.02084" lon="1.7435">
        <ele>571.2</ele>
        <time>2019-01-16T14:52:08Z</time>
      </trkpt>
      <trkpt lat="43.02088" lon="1.74337">
        <ele>571.2</ele>
        <time>2019-01-16T14:52:13Z</time>
      </trkpt>
      <trkpt lat="43.02092" lon="1.74322">
        <ele>571.8</ele>
        <time>2019-01-16T14:52:21Z</time>
      </trkpt>
      <trkpt lat="43.02091" lon="1.74309">
        <ele>572.2</ele>
        <time>2019-01-16T14:52:26Z</time>
      </trkpt>
      <trkpt lat="43.02093" lon="1.74297">
        <ele>572.7</ele>
        <time>2019-01-16T14:52:30Z</time>
      </trkpt>
      <trkpt lat="43.02096" lon="1.74284">
        <ele>574.2</ele>
        <time>2019-01-16T14:52:38Z</time>
      </trkpt>
      <trkpt lat="43.02097" lon="1.74271">
        <ele>575.3</ele>
        <time>2019-01-16T14:52:44Z</time>
      </trkpt>
      <trkpt lat="43.02096" lon="1.74257">
        <ele>576.2</ele>
        <time>2019-01-16T14:52:50Z</time>
      </trkpt>
      <trkpt lat="43.02095" lon="1.74245">
        <ele>577.5</ele>
        <time>2019-01-16T14:52:58Z</time>
      </trkpt>
      <trkpt lat="43.02094" lon="1.74231">
        <ele>578.5</ele>
        <time>2019-01-16T14:53:05Z</time>
      </trkpt>
      <trkpt lat="43.02093" lon="1.74218">
        <ele>579.4</ele>
        <time>2019-01-16T14:53:11Z</time>
      </trkpt>
      <trkpt lat="43.02093" lon="1.74204">
        <ele>580.3</ele>
        <time>2019-01-16T14:53:19Z</time>
      </trkpt>
      <trkpt lat="43.02091" lon="1.74188">
        <ele>580.8</ele>
        <time>2019-01-16T14:53:24Z</time>
      </trkpt>
      <trkpt lat="43.02094" lon="1.74177">
        <ele>581.6</ele>
        <time>2019-01-16T14:53:29Z</time>
      </trkpt>
      <trkpt lat="43.02099" lon="1.74165">
        <ele>582.6</ele>
        <time>2019-01-16T14:53:35Z</time>
      </trkpt>
      <trkpt lat="43.02107" lon="1.74157">
        <ele>583.9</ele>
        <time>2019-01-16T14:53:42Z</time>
      </trkpt>
      <trkpt lat="43.02115" lon="1.74149">
        <ele>585.2</ele>
        <time>2019-01-16T14:53:48Z</time>
      </trkpt>
      <trkpt lat="43.02122" lon="1.74139">
        <ele>586.5</ele>
        <time>2019-01-16T14:53:54Z</time>
      </trkpt>
      <trkpt lat="43.02125" lon="1.74127">
        <ele>587.5</ele>
        <time>2019-01-16T14:54:00Z</time>
      </trkpt>
      <trkpt lat="43.02129" lon="1.74115">
        <ele>588.3</ele>
        <time>2019-01-16T14:54:06Z</time>
      </trkpt>
      <trkpt lat="43.02132" lon="1.74103">
        <ele>589.1</ele>
        <time>2019-01-16T14:54:13Z</time>
      </trkpt>
      <trkpt lat="43.02133" lon="1.7409">
        <ele>589.7</ele>
        <time>2019-01-16T14:54:20Z</time>
      </trkpt>
      <trkpt lat="43.02134" lon="1.74078">
        <ele>590</ele>
        <time>2019-01-16T14:54:26Z</time>
      </trkpt>
      <trkpt lat="43.02133" lon="1.74065">
        <ele>590.3</ele>
        <time>2019-01-16T14:54:30Z</time>
      </trkpt>
      <trkpt lat="43.02133" lon="1.74051">
        <ele>590.6</ele>
        <time>2019-01-16T14:54:34Z</time>
      </trkpt>
      <trkpt lat="43.0213" lon="1.74038">
        <ele>591.4</ele>
        <time>2019-01-16T14:54:40Z</time>
      </trkpt>
      <trkpt lat="43.02131" lon="1.74024">
        <ele>592.1</ele>
        <time>2019-01-16T14:54:47Z</time>
      </trkpt>
      <trkpt lat="43.02139" lon="1.74016">
        <ele>591</ele>
        <time>2019-01-16T14:56:58Z</time>
      </trkpt>
      <trkpt lat="43.02145" lon="1.74003">
        <ele>590.4</ele>
        <time>2019-01-16T14:57:03Z</time>
      </trkpt>
      <trkpt lat="43.02151" lon="1.73988">
        <ele>589.4</ele>
        <time>2019-01-16T14:57:07Z</time>
      </trkpt>
      <trkpt lat="43.02158" lon="1.73974">
        <ele>588.1</ele>
        <time>2019-01-16T14:57:10Z</time>
      </trkpt>
      <trkpt lat="43.02164" lon="1.73965">
        <ele>587.7</ele>
        <time>2019-01-16T14:57:12Z</time>
      </trkpt>
      <trkpt lat="43.0217" lon="1.73955">
        <ele>586.5</ele>
        <time>2019-01-16T14:57:14Z</time>
      </trkpt>
      <trkpt lat="43.02179" lon="1.73941">
        <ele>586</ele>
        <time>2019-01-16T14:57:18Z</time>
      </trkpt>
      <trkpt lat="43.02187" lon="1.73933">
        <ele>585.7</ele>
        <time>2019-01-16T14:57:27Z</time>
      </trkpt>
      <trkpt lat="43.02196" lon="1.73933">
        <ele>585.7</ele>
        <time>2019-01-16T14:57:30Z</time>
      </trkpt>
      <trkpt lat="43.02208" lon="1.73933">
        <ele>585.5</ele>
        <time>2019-01-16T14:57:33Z</time>
      </trkpt>
      <trkpt lat="43.02221" lon="1.73934">
        <ele>583.9</ele>
        <time>2019-01-16T14:57:36Z</time>
      </trkpt>
      <trkpt lat="43.0223" lon="1.73933">
        <ele>582.5</ele>
        <time>2019-01-16T14:57:38Z</time>
      </trkpt>
      <trkpt lat="43.02238" lon="1.73926">
        <ele>580.9</ele>
        <time>2019-01-16T14:57:40Z</time>
      </trkpt>
      <trkpt lat="43.02246" lon="1.7392">
        <ele>578.8</ele>
        <time>2019-01-16T14:57:42Z</time>
      </trkpt>
      <trkpt lat="43.02256" lon="1.73907">
        <ele>575.3</ele>
        <time>2019-01-16T14:57:45Z</time>
      </trkpt>
      <trkpt lat="43.02264" lon="1.73898">
        <ele>572.3</ele>
        <time>2019-01-16T14:57:47Z</time>
      </trkpt>
      <trkpt lat="43.02273" lon="1.7389">
        <ele>569</ele>
        <time>2019-01-16T14:57:49Z</time>
      </trkpt>
      <trkpt lat="43.02282" lon="1.73881">
        <ele>565.6</ele>
        <time>2019-01-16T14:57:51Z</time>
      </trkpt>
      <trkpt lat="43.02292" lon="1.73871">
        <ele>562.4</ele>
        <time>2019-01-16T14:57:53Z</time>
      </trkpt>
      <trkpt lat="43.02301" lon="1.73863">
        <ele>559.4</ele>
        <time>2019-01-16T14:57:55Z</time>
      </trkpt>
      <trkpt lat="43.0231" lon="1.73854">
        <ele>557.5</ele>
        <time>2019-01-16T14:57:57Z</time>
      </trkpt>
      <trkpt lat="43.02317" lon="1.73844">
        <ele>554.9</ele>
        <time>2019-01-16T14:57:59Z</time>
      </trkpt>
      <trkpt lat="43.02323" lon="1.73834">
        <ele>552.2</ele>
        <time>2019-01-16T14:58:01Z</time>
      </trkpt>
      <trkpt lat="43.02334" lon="1.73824">
        <ele>551.3</ele>
        <time>2019-01-16T14:58:02Z</time>
      </trkpt>
      <trkpt lat="43.02348" lon="1.73812">
        <ele>550.7</ele>
        <time>2019-01-16T14:58:04Z</time>
      </trkpt>
      <trkpt lat="43.0236" lon="1.73804">
        <ele>551.4</ele>
        <time>2019-01-16T14:58:06Z</time>
      </trkpt>
      <trkpt lat="43.02371" lon="1.73792">
        <ele>551.8</ele>
        <time>2019-01-16T14:58:08Z</time>
      </trkpt>
      <trkpt lat="43.02378" lon="1.73781">
        <ele>552.1</ele>
        <time>2019-01-16T14:58:10Z</time>
      </trkpt>
      <trkpt lat="43.02377" lon="1.73764">
        <ele>555.3</ele>
        <time>2019-01-16T14:58:13Z</time>
      </trkpt>
      <trkpt lat="43.02373" lon="1.73748">
        <ele>556.5</ele>
        <time>2019-01-16T14:58:16Z</time>
      </trkpt>
      <trkpt lat="43.02377" lon="1.73731">
        <ele>557</ele>
        <time>2019-01-16T14:58:19Z</time>
      </trkpt>
      <trkpt lat="43.02385" lon="1.73725">
        <ele>556.5</ele>
        <time>2019-01-16T14:58:21Z</time>
      </trkpt>
      <trkpt lat="43.02394" lon="1.73718">
        <ele>555.8</ele>
        <time>2019-01-16T14:58:23Z</time>
      </trkpt>
      <trkpt lat="43.02405" lon="1.73712">
        <ele>555.1</ele>
        <time>2019-01-16T14:58:25Z</time>
      </trkpt>
      <trkpt lat="43.02415" lon="1.73708">
        <ele>554.6</ele>
        <time>2019-01-16T14:58:27Z</time>
      </trkpt>
      <trkpt lat="43.02427" lon="1.7371">
        <ele>553.9</ele>
        <time>2019-01-16T14:58:29Z</time>
      </trkpt>
      <trkpt lat="43.02436" lon="1.73716">
        <ele>552.8</ele>
        <time>2019-01-16T14:58:31Z</time>
      </trkpt>
      <trkpt lat="43.02446" lon="1.73724">
        <ele>551.4</ele>
        <time>2019-01-16T14:58:33Z</time>
      </trkpt>
      <trkpt lat="43.02454" lon="1.73731">
        <ele>549.9</ele>
        <time>2019-01-16T14:58:35Z</time>
      </trkpt>
      <trkpt lat="43.02463" lon="1.73736">
        <ele>548.4</ele>
        <time>2019-01-16T14:58:37Z</time>
      </trkpt>
      <trkpt lat="43.02475" lon="1.73734">
        <ele>547.1</ele>
        <time>2019-01-16T14:58:39Z</time>
      </trkpt>
      <trkpt lat="43.02486" lon="1.73732">
        <ele>545.9</ele>
        <time>2019-01-16T14:58:41Z</time>
      </trkpt>
      <trkpt lat="43.02497" lon="1.73724">
        <ele>545.3</ele>
        <time>2019-01-16T14:58:43Z</time>
      </trkpt>
      <trkpt lat="43.02504" lon="1.7371">
        <ele>544.5</ele>
        <time>2019-01-16T14:58:45Z</time>
      </trkpt>
      <trkpt lat="43.02513" lon="1.73694">
        <ele>543.8</ele>
        <time>2019-01-16T14:58:47Z</time>
      </trkpt>
      <trkpt lat="43.0252" lon="1.73679">
        <ele>542.9</ele>
        <time>2019-01-16T14:58:49Z</time>
      </trkpt>
      <trkpt lat="43.02526" lon="1.73665">
        <ele>541.9</ele>
        <time>2019-01-16T14:58:51Z</time>
      </trkpt>
      <trkpt lat="43.02532" lon="1.73653">
        <ele>540.9</ele>
        <time>2019-01-16T14:58:53Z</time>
      </trkpt>
      <trkpt lat="43.02541" lon="1.73643">
        <ele>540</ele>
        <time>2019-01-16T14:58:55Z</time>
      </trkpt>
      <trkpt lat="43.02552" lon="1.73633">
        <ele>539.3</ele>
        <time>2019-01-16T14:58:57Z</time>
      </trkpt>
      <trkpt lat="43.02565" lon="1.73623">
        <ele>538.7</ele>
        <time>2019-01-16T14:58:59Z</time>
      </trkpt>
      <trkpt lat="43.02577" lon="1.73612">
        <ele>538.3</ele>
        <time>2019-01-16T14:59:01Z</time>
      </trkpt>
      <trkpt lat="43.0259" lon="1.73601">
        <ele>537.4</ele>
        <time>2019-01-16T14:59:03Z</time>
      </trkpt>
      <trkpt lat="43.02602" lon="1.7359">
        <ele>536.1</ele>
        <time>2019-01-16T14:59:05Z</time>
      </trkpt>
      <trkpt lat="43.02612" lon="1.7358">
        <ele>534.3</ele>
        <time>2019-01-16T14:59:07Z</time>
      </trkpt>
      <trkpt lat="43.02622" lon="1.73565">
        <ele>532.4</ele>
        <time>2019-01-16T14:59:09Z</time>
      </trkpt>
      <trkpt lat="43.02633" lon="1.73552">
        <ele>530.1</ele>
        <time>2019-01-16T14:59:11Z</time>
      </trkpt>
      <trkpt lat="43.02642" lon="1.73541">
        <ele>527.9</ele>
        <time>2019-01-16T14:59:13Z</time>
      </trkpt>
      <trkpt lat="43.02651" lon="1.73531">
        <ele>525.8</ele>
        <time>2019-01-16T14:59:15Z</time>
      </trkpt>
      <trkpt lat="43.02662" lon="1.73516">
        <ele>523.7</ele>
        <time>2019-01-16T14:59:17Z</time>
      </trkpt>
      <trkpt lat="43.02673" lon="1.73501">
        <ele>521.6</ele>
        <time>2019-01-16T14:59:19Z</time>
      </trkpt>
      <trkpt lat="43.02684" lon="1.73487">
        <ele>519.5</ele>
        <time>2019-01-16T14:59:21Z</time>
      </trkpt>
      <trkpt lat="43.02694" lon="1.73472">
        <ele>517.5</ele>
        <time>2019-01-16T14:59:23Z</time>
      </trkpt>
      <trkpt lat="43.02704" lon="1.73458">
        <ele>515.4</ele>
        <time>2019-01-16T14:59:25Z</time>
      </trkpt>
      <trkpt lat="43.02712" lon="1.73445">
        <ele>513.3</ele>
        <time>2019-01-16T14:59:27Z</time>
      </trkpt>
      <trkpt lat="43.02723" lon="1.73432">
        <ele>511.2</ele>
        <time>2019-01-16T14:59:29Z</time>
      </trkpt>
      <trkpt lat="43.02734" lon="1.7342">
        <ele>509.1</ele>
        <time>2019-01-16T14:59:31Z</time>
      </trkpt>
      <trkpt lat="43.02743" lon="1.7341">
        <ele>507.1</ele>
        <time>2019-01-16T14:59:33Z</time>
      </trkpt>
      <trkpt lat="43.02754" lon="1.73402">
        <ele>504.9</ele>
        <time>2019-01-16T14:59:35Z</time>
      </trkpt>
      <trkpt lat="43.02764" lon="1.73399">
        <ele>502.6</ele>
        <time>2019-01-16T14:59:37Z</time>
      </trkpt>
      <trkpt lat="43.02776" lon="1.73403">
        <ele>500.6</ele>
        <time>2019-01-16T14:59:39Z</time>
      </trkpt>
      <trkpt lat="43.02789" lon="1.73408">
        <ele>498.8</ele>
        <time>2019-01-16T14:59:41Z</time>
      </trkpt>
      <trkpt lat="43.02803" lon="1.73414">
        <ele>497.3</ele>
        <time>2019-01-16T14:59:43Z</time>
      </trkpt>
      <trkpt lat="43.02817" lon="1.73418">
        <ele>496.1</ele>
        <time>2019-01-16T14:59:45Z</time>
      </trkpt>
      <trkpt lat="43.02829" lon="1.73422">
        <ele>495.2</ele>
        <time>2019-01-16T14:59:47Z</time>
      </trkpt>
      <trkpt lat="43.02838" lon="1.73418">
        <ele>494.5</ele>
        <time>2019-01-16T14:59:49Z</time>
      </trkpt>
      <trkpt lat="43.02843" lon="1.73406">
        <ele>493.8</ele>
        <time>2019-01-16T14:59:51Z</time>
      </trkpt>
      <trkpt lat="43.02844" lon="1.73391">
        <ele>493.3</ele>
        <time>2019-01-16T14:59:53Z</time>
      </trkpt>
      <trkpt lat="43.02845" lon="1.73374">
        <ele>492.9</ele>
        <time>2019-01-16T14:59:55Z</time>
      </trkpt>
      <trkpt lat="43.02845" lon="1.73355">
        <ele>492.5</ele>
        <time>2019-01-16T14:59:57Z</time>
      </trkpt>
      <trkpt lat="43.02847" lon="1.73335">
        <ele>492.2</ele>
        <time>2019-01-16T14:59:59Z</time>
      </trkpt>
      <trkpt lat="43.02851" lon="1.73315">
        <ele>492</ele>
        <time>2019-01-16T15:00:01Z</time>
      </trkpt>
      <trkpt lat="43.02854" lon="1.73294">
        <ele>491.7</ele>
        <time>2019-01-16T15:00:03Z</time>
      </trkpt>
      <trkpt lat="43.02854" lon="1.73274">
        <ele>491.5</ele>
        <time>2019-01-16T15:00:05Z</time>
      </trkpt>
      <trkpt lat="43.02855" lon="1.73259">
        <ele>491</ele>
        <time>2019-01-16T15:00:07Z</time>
      </trkpt>
      <trkpt lat="43.02863" lon="1.73247">
        <ele>490.3</ele>
        <time>2019-01-16T15:00:09Z</time>
      </trkpt>
      <trkpt lat="43.02875" lon="1.73241">
        <ele>489.3</ele>
        <time>2019-01-16T15:00:11Z</time>
      </trkpt>
      <trkpt lat="43.02888" lon="1.73239">
        <ele>488.4</ele>
        <time>2019-01-16T15:00:13Z</time>
      </trkpt>
      <trkpt lat="43.02902" lon="1.73237">
        <ele>487.3</ele>
        <time>2019-01-16T15:00:15Z</time>
      </trkpt>
      <trkpt lat="43.02916" lon="1.73236">
        <ele>486.2</ele>
        <time>2019-01-16T15:00:17Z</time>
      </trkpt>
      <trkpt lat="43.02931" lon="1.73236">
        <ele>485.1</ele>
        <time>2019-01-16T15:00:19Z</time>
      </trkpt>
      <trkpt lat="43.02946" lon="1.73238">
        <ele>483.9</ele>
        <time>2019-01-16T15:00:21Z</time>
      </trkpt>
      <trkpt lat="43.02963" lon="1.73243">
        <ele>482</ele>
        <time>2019-01-16T15:00:23Z</time>
      </trkpt>
      <trkpt lat="43.02978" lon="1.73252">
        <ele>480.1</ele>
        <time>2019-01-16T15:00:25Z</time>
      </trkpt>
      <trkpt lat="43.02991" lon="1.7326">
        <ele>478.2</ele>
        <time>2019-01-16T15:00:27Z</time>
      </trkpt>
      <trkpt lat="43.02999" lon="1.73268">
        <ele>476.9</ele>
        <time>2019-01-16T15:00:29Z</time>
      </trkpt>
      <trkpt lat="43.03007" lon="1.73262">
        <ele>476.2</ele>
        <time>2019-01-16T15:00:33Z</time>
      </trkpt>
      <trkpt lat="43.03002" lon="1.73252">
        <ele>474.8</ele>
        <time>2019-01-16T15:01:28Z</time>
      </trkpt>
      <trkpt lat="43.02999" lon="1.7324">
        <ele>474.5</ele>
        <time>2019-01-16T15:01:32Z</time>
      </trkpt>
      <trkpt lat="43.02994" lon="1.73228">
        <ele>474.2</ele>
        <time>2019-01-16T15:01:35Z</time>
      </trkpt>
      <trkpt lat="43.0299" lon="1.73211">
        <ele>472.6</ele>
        <time>2019-01-16T15:01:38Z</time>
      </trkpt>
      <trkpt lat="43.02987" lon="1.73194">
        <ele>471.3</ele>
        <time>2019-01-16T15:01:41Z</time>
      </trkpt>
      <trkpt lat="43.02988" lon="1.73178">
        <ele>470.7</ele>
        <time>2019-01-16T15:01:44Z</time>
      </trkpt>
      <trkpt lat="43.02991" lon="1.7316">
        <ele>470.1</ele>
        <time>2019-01-16T15:01:47Z</time>
      </trkpt>
      <trkpt lat="43.02993" lon="1.73147">
        <ele>469.8</ele>
        <time>2019-01-16T15:01:49Z</time>
      </trkpt>
      <trkpt lat="43.02995" lon="1.73131">
        <ele>469.5</ele>
        <time>2019-01-16T15:01:51Z</time>
      </trkpt>
      <trkpt lat="43.02998" lon="1.73116">
        <ele>469.3</ele>
        <time>2019-01-16T15:01:53Z</time>
      </trkpt>
      <trkpt lat="43.03001" lon="1.73099">
        <ele>469</ele>
        <time>2019-01-16T15:01:55Z</time>
      </trkpt>
      <trkpt lat="43.03003" lon="1.73081">
        <ele>468.8</ele>
        <time>2019-01-16T15:01:57Z</time>
      </trkpt>
      <trkpt lat="43.03008" lon="1.73063">
        <ele>468.5</ele>
        <time>2019-01-16T15:01:59Z</time>
      </trkpt>
      <trkpt lat="43.03014" lon="1.73045">
        <ele>468.2</ele>
        <time>2019-01-16T15:02:01Z</time>
      </trkpt>
      <trkpt lat="43.03023" lon="1.73028">
        <ele>467.9</ele>
        <time>2019-01-16T15:02:03Z</time>
      </trkpt>
      <trkpt lat="43.03032" lon="1.73011">
        <ele>467.5</ele>
        <time>2019-01-16T15:02:05Z</time>
      </trkpt>
      <trkpt lat="43.03038" lon="1.7299">
        <ele>467.1</ele>
        <time>2019-01-16T15:02:07Z</time>
      </trkpt>
      <trkpt lat="43.03037" lon="1.72965">
        <ele>466.6</ele>
        <time>2019-01-16T15:02:09Z</time>
      </trkpt>
      <trkpt lat="43.03036" lon="1.72953">
        <ele>466.4</ele>
        <time>2019-01-16T15:02:10Z</time>
      </trkpt>
      <trkpt lat="43.03035" lon="1.72941">
        <ele>466.1</ele>
        <time>2019-01-16T15:02:11Z</time>
      </trkpt>
      <trkpt lat="43.03034" lon="1.72928">
        <ele>465.9</ele>
        <time>2019-01-16T15:02:12Z</time>
      </trkpt>
      <trkpt lat="43.03032" lon="1.72915">
        <ele>465.6</ele>
        <time>2019-01-16T15:02:13Z</time>
      </trkpt>
      <trkpt lat="43.03029" lon="1.72903">
        <ele>465.3</ele>
        <time>2019-01-16T15:02:14Z</time>
      </trkpt>
      <trkpt lat="43.03023" lon="1.72882">
        <ele>464.7</ele>
        <time>2019-01-16T15:02:16Z</time>
      </trkpt>
      <trkpt lat="43.03014" lon="1.72867">
        <ele>463.9</ele>
        <time>2019-01-16T15:02:18Z</time>
      </trkpt>
      <trkpt lat="43.03011" lon="1.72847">
        <ele>463.2</ele>
        <time>2019-01-16T15:02:20Z</time>
      </trkpt>
      <trkpt lat="43.03014" lon="1.72825">
        <ele>462.3</ele>
        <time>2019-01-16T15:02:22Z</time>
      </trkpt>
      <trkpt lat="43.03018" lon="1.72803">
        <ele>461.4</ele>
        <time>2019-01-16T15:02:24Z</time>
      </trkpt>
      <trkpt lat="43.03023" lon="1.72779">
        <ele>460.6</ele>
        <time>2019-01-16T15:02:26Z</time>
      </trkpt>
      <trkpt lat="43.03025" lon="1.72767">
        <ele>460.2</ele>
        <time>2019-01-16T15:02:27Z</time>
      </trkpt>
      <trkpt lat="43.03027" lon="1.72754">
        <ele>459.8</ele>
        <time>2019-01-16T15:02:28Z</time>
      </trkpt>
      <trkpt lat="43.03029" lon="1.72742">
        <ele>459.5</ele>
        <time>2019-01-16T15:02:29Z</time>
      </trkpt>
      <trkpt lat="43.03032" lon="1.72729">
        <ele>459.1</ele>
        <time>2019-01-16T15:02:30Z</time>
      </trkpt>
      <trkpt lat="43.03034" lon="1.72716">
        <ele>458.7</ele>
        <time>2019-01-16T15:02:31Z</time>
      </trkpt>
      <trkpt lat="43.03036" lon="1.72703">
        <ele>458.3</ele>
        <time>2019-01-16T15:02:32Z</time>
      </trkpt>
      <trkpt lat="43.03038" lon="1.72689">
        <ele>457.9</ele>
        <time>2019-01-16T15:02:33Z</time>
      </trkpt>
      <trkpt lat="43.0304" lon="1.72676">
        <ele>457.4</ele>
        <time>2019-01-16T15:02:34Z</time>
      </trkpt>
      <trkpt lat="43.03043" lon="1.72663">
        <ele>457</ele>
        <time>2019-01-16T15:02:35Z</time>
      </trkpt>
      <trkpt lat="43.03046" lon="1.7265">
        <ele>456.5</ele>
        <time>2019-01-16T15:02:36Z</time>
      </trkpt>
      <trkpt lat="43.03049" lon="1.72638">
        <ele>456</ele>
        <time>2019-01-16T15:02:37Z</time>
      </trkpt>
      <trkpt lat="43.03058" lon="1.72618">
        <ele>455.1</ele>
        <time>2019-01-16T15:02:39Z</time>
      </trkpt>
      <trkpt lat="43.03072" lon="1.72603">
        <ele>454.2</ele>
        <time>2019-01-16T15:02:41Z</time>
      </trkpt>
      <trkpt lat="43.03086" lon="1.726">
        <ele>453.1</ele>
        <time>2019-01-16T15:02:43Z</time>
      </trkpt>
      <trkpt lat="43.03099" lon="1.72611">
        <ele>452</ele>
        <time>2019-01-16T15:02:45Z</time>
      </trkpt>
      <trkpt lat="43.03106" lon="1.72629">
        <ele>450.8</ele>
        <time>2019-01-16T15:02:47Z</time>
      </trkpt>
      <trkpt lat="43.03113" lon="1.72643">
        <ele>449.6</ele>
        <time>2019-01-16T15:02:49Z</time>
      </trkpt>
      <trkpt lat="43.03122" lon="1.7265">
        <ele>448.5</ele>
        <time>2019-01-16T15:02:51Z</time>
      </trkpt>
      <trkpt lat="43.03134" lon="1.72639">
        <ele>447.8</ele>
        <time>2019-01-16T15:02:53Z</time>
      </trkpt>
      <trkpt lat="43.03141" lon="1.72624">
        <ele>447</ele>
        <time>2019-01-16T15:02:55Z</time>
      </trkpt>
      <trkpt lat="43.03145" lon="1.72605">
        <ele>445.9</ele>
        <time>2019-01-16T15:02:57Z</time>
      </trkpt>
      <trkpt lat="43.03148" lon="1.72584">
        <ele>444.5</ele>
        <time>2019-01-16T15:02:59Z</time>
      </trkpt>
      <trkpt lat="43.03151" lon="1.72561">
        <ele>443.1</ele>
        <time>2019-01-16T15:03:01Z</time>
      </trkpt>
      <trkpt lat="43.03158" lon="1.72539">
        <ele>441.6</ele>
        <time>2019-01-16T15:03:03Z</time>
      </trkpt>
      <trkpt lat="43.03169" lon="1.7252">
        <ele>440.2</ele>
        <time>2019-01-16T15:03:05Z</time>
      </trkpt>
      <trkpt lat="43.03181" lon="1.72502">
        <ele>438.8</ele>
        <time>2019-01-16T15:03:07Z</time>
      </trkpt>
      <trkpt lat="43.03192" lon="1.72484">
        <ele>437.7</ele>
        <time>2019-01-16T15:03:09Z</time>
      </trkpt>
      <trkpt lat="43.03203" lon="1.72466">
        <ele>436.5</ele>
        <time>2019-01-16T15:03:11Z</time>
      </trkpt>
      <trkpt lat="43.03215" lon="1.72448">
        <ele>435.4</ele>
        <time>2019-01-16T15:03:13Z</time>
      </trkpt>
      <trkpt lat="43.03225" lon="1.7243">
        <ele>434.2</ele>
        <time>2019-01-16T15:03:15Z</time>
      </trkpt>
      <trkpt lat="43.03234" lon="1.72409">
        <ele>433</ele>
        <time>2019-01-16T15:03:17Z</time>
      </trkpt>
      <trkpt lat="43.03241" lon="1.72386">
        <ele>431.9</ele>
        <time>2019-01-16T15:03:19Z</time>
      </trkpt>
      <trkpt lat="43.03245" lon="1.72375">
        <ele>431.3</ele>
        <time>2019-01-16T15:03:20Z</time>
      </trkpt>
      <trkpt lat="43.03248" lon="1.72363">
        <ele>430.8</ele>
        <time>2019-01-16T15:03:21Z</time>
      </trkpt>
      <trkpt lat="43.03251" lon="1.7235">
        <ele>430.2</ele>
        <time>2019-01-16T15:03:22Z</time>
      </trkpt>
      <trkpt lat="43.03253" lon="1.72337">
        <ele>429.7</ele>
        <time>2019-01-16T15:03:23Z</time>
      </trkpt>
      <trkpt lat="43.03255" lon="1.72324">
        <ele>429.3</ele>
        <time>2019-01-16T15:03:24Z</time>
      </trkpt>
      <trkpt lat="43.03255" lon="1.7231">
        <ele>428.8</ele>
        <time>2019-01-16T15:03:25Z</time>
      </trkpt>
      <trkpt lat="43.03254" lon="1.72296">
        <ele>428.4</ele>
        <time>2019-01-16T15:03:26Z</time>
      </trkpt>
      <trkpt lat="43.03251" lon="1.72283">
        <ele>427.9</ele>
        <time>2019-01-16T15:03:27Z</time>
      </trkpt>
      <trkpt lat="43.03249" lon="1.72269">
        <ele>427.3</ele>
        <time>2019-01-16T15:03:28Z</time>
      </trkpt>
      <trkpt lat="43.03246" lon="1.72255">
        <ele>426.8</ele>
        <time>2019-01-16T15:03:29Z</time>
      </trkpt>
      <trkpt lat="43.03244" lon="1.72241">
        <ele>426.2</ele>
        <time>2019-01-16T15:03:30Z</time>
      </trkpt>
      <trkpt lat="43.03241" lon="1.72227">
        <ele>425.6</ele>
        <time>2019-01-16T15:03:31Z</time>
      </trkpt>
      <trkpt lat="43.03238" lon="1.72213">
        <ele>425</ele>
        <time>2019-01-16T15:03:32Z</time>
      </trkpt>
      <trkpt lat="43.03234" lon="1.72199">
        <ele>424.4</ele>
        <time>2019-01-16T15:03:33Z</time>
      </trkpt>
      <trkpt lat="43.03228" lon="1.72187">
        <ele>423.8</ele>
        <time>2019-01-16T15:03:34Z</time>
      </trkpt>
      <trkpt lat="43.03221" lon="1.72178">
        <ele>423.2</ele>
        <time>2019-01-16T15:03:35Z</time>
      </trkpt>
      <trkpt lat="43.03213" lon="1.7217">
        <ele>422.6</ele>
        <time>2019-01-16T15:03:36Z</time>
      </trkpt>
      <trkpt lat="43.03205" lon="1.72162">
        <ele>422</ele>
        <time>2019-01-16T15:03:37Z</time>
      </trkpt>
      <trkpt lat="43.03197" lon="1.72154">
        <ele>421.4</ele>
        <time>2019-01-16T15:03:38Z</time>
      </trkpt>
      <trkpt lat="43.0319" lon="1.72146">
        <ele>420.9</ele>
        <time>2019-01-16T15:03:39Z</time>
      </trkpt>
      <trkpt lat="43.03183" lon="1.72137">
        <ele>420.4</ele>
        <time>2019-01-16T15:03:40Z</time>
      </trkpt>
      <trkpt lat="43.03173" lon="1.72119">
        <ele>419.6</ele>
        <time>2019-01-16T15:03:42Z</time>
      </trkpt>
      <trkpt lat="43.03162" lon="1.72103">
        <ele>418.8</ele>
        <time>2019-01-16T15:03:44Z</time>
      </trkpt>
      <trkpt lat="43.03152" lon="1.72087">
        <ele>417.8</ele>
        <time>2019-01-16T15:03:46Z</time>
      </trkpt>
      <trkpt lat="43.03145" lon="1.72071">
        <ele>416.9</ele>
        <time>2019-01-16T15:03:48Z</time>
      </trkpt>
      <trkpt lat="43.03142" lon="1.72053">
        <ele>416.1</ele>
        <time>2019-01-16T15:03:50Z</time>
      </trkpt>
      <trkpt lat="43.03148" lon="1.72034">
        <ele>415.3</ele>
        <time>2019-01-16T15:03:52Z</time>
      </trkpt>
      <trkpt lat="43.03157" lon="1.72018">
        <ele>414.4</ele>
        <time>2019-01-16T15:03:54Z</time>
      </trkpt>
      <trkpt lat="43.03166" lon="1.72001">
        <ele>413.7</ele>
        <time>2019-01-16T15:03:56Z</time>
      </trkpt>
      <trkpt lat="43.03176" lon="1.71983">
        <ele>413.1</ele>
        <time>2019-01-16T15:03:58Z</time>
      </trkpt>
      <trkpt lat="43.03183" lon="1.71965">
        <ele>412.5</ele>
        <time>2019-01-16T15:04:00Z</time>
      </trkpt>
      <trkpt lat="43.03191" lon="1.71945">
        <ele>411.9</ele>
        <time>2019-01-16T15:04:02Z</time>
      </trkpt>
      <trkpt lat="43.03201" lon="1.71927">
        <ele>411.3</ele>
        <time>2019-01-16T15:04:04Z</time>
      </trkpt>
      <trkpt lat="43.0321" lon="1.71911">
        <ele>410.8</ele>
        <time>2019-01-16T15:04:06Z</time>
      </trkpt>
      <trkpt lat="43.0322" lon="1.71895">
        <ele>410.3</ele>
        <time>2019-01-16T15:04:08Z</time>
      </trkpt>
      <trkpt lat="43.03229" lon="1.71878">
        <ele>409.7</ele>
        <time>2019-01-16T15:04:10Z</time>
      </trkpt>
      <trkpt lat="43.03239" lon="1.71862">
        <ele>409.2</ele>
        <time>2019-01-16T15:04:12Z</time>
      </trkpt>
      <trkpt lat="43.03249" lon="1.71845">
        <ele>408.6</ele>
        <time>2019-01-16T15:04:14Z</time>
      </trkpt>
      <trkpt lat="43.03259" lon="1.71828">
        <ele>408</ele>
        <time>2019-01-16T15:04:16Z</time>
      </trkpt>
      <trkpt lat="43.0327" lon="1.71812">
        <ele>407.5</ele>
        <time>2019-01-16T15:04:18Z</time>
      </trkpt>
      <trkpt lat="43.0328" lon="1.71796">
        <ele>407</ele>
        <time>2019-01-16T15:04:20Z</time>
      </trkpt>
      <trkpt lat="43.03289" lon="1.71778">
        <ele>406.6</ele>
        <time>2019-01-16T15:04:22Z</time>
      </trkpt>
      <trkpt lat="43.03297" lon="1.7176">
        <ele>406.2</ele>
        <time>2019-01-16T15:04:24Z</time>
      </trkpt>
      <trkpt lat="43.03305" lon="1.71742">
        <ele>406</ele>
        <time>2019-01-16T15:04:26Z</time>
      </trkpt>
      <trkpt lat="43.03313" lon="1.71724">
        <ele>405.7</ele>
        <time>2019-01-16T15:04:28Z</time>
      </trkpt>
      <trkpt lat="43.0332" lon="1.71707">
        <ele>405.4</ele>
        <time>2019-01-16T15:04:30Z</time>
      </trkpt>
      <trkpt lat="43.03327" lon="1.71689">
        <ele>405.1</ele>
        <time>2019-01-16T15:04:32Z</time>
      </trkpt>
      <trkpt lat="43.03334" lon="1.71672">
        <ele>404.8</ele>
        <time>2019-01-16T15:04:34Z</time>
      </trkpt>
      <trkpt lat="43.03341" lon="1.71656">
        <ele>404.5</ele>
        <time>2019-01-16T15:04:36Z</time>
      </trkpt>
      <trkpt lat="43.03347" lon="1.71641">
        <ele>404.3</ele>
        <time>2019-01-16T15:04:38Z</time>
      </trkpt>
      <trkpt lat="43.03354" lon="1.71625">
        <ele>404.1</ele>
        <time>2019-01-16T15:04:40Z</time>
      </trkpt>
      <trkpt lat="43.0336" lon="1.7161">
        <ele>403.9</ele>
        <time>2019-01-16T15:04:42Z</time>
      </trkpt>
      <trkpt lat="43.03367" lon="1.71595">
        <ele>403.8</ele>
        <time>2019-01-16T15:04:44Z</time>
      </trkpt>
      <trkpt lat="43.03373" lon="1.7158">
        <ele>403.7</ele>
        <time>2019-01-16T15:04:46Z</time>
      </trkpt>
      <trkpt lat="43.03379" lon="1.71565">
        <ele>403.6</ele>
        <time>2019-01-16T15:04:48Z</time>
      </trkpt>
      <trkpt lat="43.03385" lon="1.71551">
        <ele>403.4</ele>
        <time>2019-01-16T15:04:50Z</time>
      </trkpt>
      <trkpt lat="43.0339" lon="1.71539">
        <ele>403.3</ele>
        <time>2019-01-16T15:04:52Z</time>
      </trkpt>
      <trkpt lat="43.03395" lon="1.71526">
        <ele>403.2</ele>
        <time>2019-01-16T15:04:54Z</time>
      </trkpt>
      <trkpt lat="43.03401" lon="1.71512">
        <ele>403.1</ele>
        <time>2019-01-16T15:04:56Z</time>
      </trkpt>
      <trkpt lat="43.03407" lon="1.71499">
        <ele>402.9</ele>
        <time>2019-01-16T15:04:58Z</time>
      </trkpt>
      <trkpt lat="43.03412" lon="1.71486">
        <ele>402.8</ele>
        <time>2019-01-16T15:05:00Z</time>
      </trkpt>
      <trkpt lat="43.03418" lon="1.71472">
        <ele>402.7</ele>
        <time>2019-01-16T15:05:02Z</time>
      </trkpt>
      <trkpt lat="43.03424" lon="1.71459">
        <ele>402.6</ele>
        <time>2019-01-16T15:05:04Z</time>
      </trkpt>
      <trkpt lat="43.0343" lon="1.71445">
        <ele>402.4</ele>
        <time>2019-01-16T15:05:06Z</time>
      </trkpt>
      <trkpt lat="43.03435" lon="1.71431">
        <ele>402.3</ele>
        <time>2019-01-16T15:05:08Z</time>
      </trkpt>
      <trkpt lat="43.03441" lon="1.71418">
        <ele>402.2</ele>
        <time>2019-01-16T15:05:10Z</time>
      </trkpt>
      <trkpt lat="43.03446" lon="1.71404">
        <ele>402.1</ele>
        <time>2019-01-16T15:05:12Z</time>
      </trkpt>
      <trkpt lat="43.03451" lon="1.71391">
        <ele>402</ele>
        <time>2019-01-16T15:05:14Z</time>
      </trkpt>
      <trkpt lat="43.03456" lon="1.71377">
        <ele>401.8</ele>
        <time>2019-01-16T15:05:16Z</time>
      </trkpt>
      <trkpt lat="43.0346" lon="1.71363">
        <ele>401.7</ele>
        <time>2019-01-16T15:05:18Z</time>
      </trkpt>
      <trkpt lat="43.03464" lon="1.71348">
        <ele>401.6</ele>
        <time>2019-01-16T15:05:20Z</time>
      </trkpt>
      <trkpt lat="43.03468" lon="1.71334">
        <ele>401.4</ele>
        <time>2019-01-16T15:05:22Z</time>
      </trkpt>
      <trkpt lat="43.03472" lon="1.7132">
        <ele>401.3</ele>
        <time>2019-01-16T15:05:24Z</time>
      </trkpt>
      <trkpt lat="43.03472" lon="1.71306">
        <ele>401.2</ele>
        <time>2019-01-16T15:05:26Z</time>
      </trkpt>
      <trkpt lat="43.03465" lon="1.71296">
        <ele>401.1</ele>
        <time>2019-01-16T15:05:28Z</time>
      </trkpt>
      <trkpt lat="43.03456" lon="1.71291">
        <ele>401</ele>
        <time>2019-01-16T15:05:30Z</time>
      </trkpt>
      <trkpt lat="43.03446" lon="1.71286">
        <ele>400.9</ele>
        <time>2019-01-16T15:05:32Z</time>
      </trkpt>
      <trkpt lat="43.03437" lon="1.7128">
        <ele>400.8</ele>
        <time>2019-01-16T15:05:34Z</time>
      </trkpt>
      <trkpt lat="43.03429" lon="1.71275">
        <ele>400.7</ele>
        <time>2019-01-16T15:05:36Z</time>
      </trkpt>
      <trkpt lat="43.0342" lon="1.7127">
        <ele>400.7</ele>
        <time>2019-01-16T15:05:38Z</time>
      </trkpt>
      <trkpt lat="43.03408" lon="1.71262">
        <ele>400.7</ele>
        <time>2019-01-16T15:05:41Z</time>
      </trkpt>
      <trkpt lat="43.03397" lon="1.71255">
        <ele>400.8</ele>
        <time>2019-01-16T15:05:44Z</time>
      </trkpt>
      <trkpt lat="43.03386" lon="1.71249">
        <ele>400.8</ele>
        <time>2019-01-16T15:05:47Z</time>
      </trkpt>
      <trkpt lat="43.03375" lon="1.71242">
        <ele>400.9</ele>
        <time>2019-01-16T15:05:50Z</time>
      </trkpt>
      <trkpt lat="43.03365" lon="1.71236">
        <ele>401</ele>
        <time>2019-01-16T15:05:53Z</time>
      </trkpt>
      <trkpt lat="43.03356" lon="1.71231">
        <ele>401</ele>
        <time>2019-01-16T15:05:56Z</time>
      </trkpt>
      <trkpt lat="43.03346" lon="1.71224">
        <ele>401</ele>
        <time>2019-01-16T15:06:00Z</time>
      </trkpt>
      <trkpt lat="43.03337" lon="1.71219">
        <ele>401</ele>
        <time>2019-01-16T15:06:05Z</time>
      </trkpt>
      <trkpt lat="43.03337" lon="1.71219">
        <ele>401.1</ele>
        <time>2019-01-16T15:06:26Z</time>
      </trkpt>
    </trkseg>
  </trk>
</gpx>